<?xml version="1.0" encoding="UTF-8" standalone="no" ?>
<gpx xmlns="http://www.topografix.com/GPX/1/1" xmlns:xsi="http://www.w3.org/2001/XMLSchema-instance" xsi:schemaLocation="http://www.topografix.com/GPX/1/1 http://www.topografix.com/GPX/1/1/gpx.xsd" version="1.1" creator="VisuGPX - https://www.visugpx.com">
  <metadata>
    <name>10km Seyssuel</name>
  </metadata>
  <trk>
    <name><![CDATA[20210318_120720.gpx]]></name>
    <trkseg>
      <trkpt lat="45.56133" lon="4.8421">
        <ele>278.0956</ele>
        <time>2021-03-18T11:07:21Z</time>
      </trkpt>
      <trkpt lat="45.56134" lon="4.84206">
        <ele>278.45398</ele>
        <time>2021-03-18T11:07:22Z</time>
      </trkpt>
      <trkpt lat="45.56136" lon="4.84203">
        <ele>278.326</ele>
        <time>2021-03-18T11:07:23Z</time>
      </trkpt>
      <trkpt lat="45.5614" lon="4.84195">
        <ele>278.1468</ele>
        <time>2021-03-18T11:07:25Z</time>
      </trkpt>
      <trkpt lat="45.56141" lon="4.84191">
        <ele>277.99832</ele>
        <time>2021-03-18T11:07:26Z</time>
      </trkpt>
      <trkpt lat="45.56143" lon="4.84184">
        <ele>277.89594</ele>
        <time>2021-03-18T11:07:28Z</time>
      </trkpt>
      <trkpt lat="45.56145" lon="4.84175">
        <ele>277.24576</ele>
        <time>2021-03-18T11:07:30Z</time>
      </trkpt>
      <trkpt lat="45.56147" lon="4.84167">
        <ele>278.36182</ele>
        <time>2021-03-18T11:07:32Z</time>
      </trkpt>
      <trkpt lat="45.5615" lon="4.84157">
        <ele>278.7458</ele>
        <time>2021-03-18T11:07:34Z</time>
      </trkpt>
      <trkpt lat="45.5615" lon="4.84148">
        <ele>278.35156</ele>
        <time>2021-03-18T11:07:36Z</time>
      </trkpt>
      <trkpt lat="45.56151" lon="4.8414">
        <ele>277.66043</ele>
        <time>2021-03-18T11:07:38Z</time>
      </trkpt>
      <trkpt lat="45.56151" lon="4.84131">
        <ele>277.37375</ele>
        <time>2021-03-18T11:07:40Z</time>
      </trkpt>
      <trkpt lat="45.56152" lon="4.84123">
        <ele>277.67578</ele>
        <time>2021-03-18T11:07:42Z</time>
      </trkpt>
      <trkpt lat="45.56152" lon="4.84115">
        <ele>278.7253</ele>
        <time>2021-03-18T11:07:44Z</time>
      </trkpt>
      <trkpt lat="45.56154" lon="4.84107">
        <ele>279.02737</ele>
        <time>2021-03-18T11:07:46Z</time>
      </trkpt>
      <trkpt lat="45.56154" lon="4.84102">
        <ele>277.99832</ele>
        <time>2021-03-18T11:07:47Z</time>
      </trkpt>
      <trkpt lat="45.56155" lon="4.84091">
        <ele>278.39767</ele>
        <time>2021-03-18T11:07:49Z</time>
      </trkpt>
      <trkpt lat="45.56155" lon="4.84087">
        <ele>277.52222</ele>
        <time>2021-03-18T11:07:50Z</time>
      </trkpt>
      <trkpt lat="45.56157" lon="4.84077">
        <ele>277.8089</ele>
        <time>2021-03-18T11:07:52Z</time>
      </trkpt>
      <trkpt lat="45.56158" lon="4.84067">
        <ele>277.2509</ele>
        <time>2021-03-18T11:07:54Z</time>
      </trkpt>
      <trkpt lat="45.56154" lon="4.8406">
        <ele>276.93347</ele>
        <time>2021-03-18T11:07:56Z</time>
      </trkpt>
      <trkpt lat="45.56148" lon="4.84059">
        <ele>276.90274</ele>
        <time>2021-03-18T11:07:58Z</time>
      </trkpt>
      <trkpt lat="45.56142" lon="4.84062">
        <ele>277.32254</ele>
        <time>2021-03-18T11:08:00Z</time>
      </trkpt>
      <trkpt lat="45.56138" lon="4.84065">
        <ele>277.39932</ele>
        <time>2021-03-18T11:08:02Z</time>
      </trkpt>
      <trkpt lat="45.56132" lon="4.84066">
        <ele>277.27136</ele>
        <time>2021-03-18T11:08:04Z</time>
      </trkpt>
      <trkpt lat="45.56126" lon="4.84067">
        <ele>277.65533</ele>
        <time>2021-03-18T11:08:06Z</time>
      </trkpt>
      <trkpt lat="45.5612" lon="4.84067">
        <ele>277.3635</ele>
        <time>2021-03-18T11:08:08Z</time>
      </trkpt>
      <trkpt lat="45.56114" lon="4.84068">
        <ele>277.90106</ele>
        <time>2021-03-18T11:08:10Z</time>
      </trkpt>
      <trkpt lat="45.56107" lon="4.84068">
        <ele>277.89594</ele>
        <time>2021-03-18T11:08:12Z</time>
      </trkpt>
      <trkpt lat="45.561" lon="4.84067">
        <ele>277.9164</ele>
        <time>2021-03-18T11:08:14Z</time>
      </trkpt>
      <trkpt lat="45.56094" lon="4.84068">
        <ele>277.54782</ele>
        <time>2021-03-18T11:08:16Z</time>
      </trkpt>
      <trkpt lat="45.56089" lon="4.84068">
        <ele>278.30038</ele>
        <time>2021-03-18T11:08:18Z</time>
      </trkpt>
      <trkpt lat="45.56083" lon="4.84071">
        <ele>277.9164</ele>
        <time>2021-03-18T11:08:20Z</time>
      </trkpt>
      <trkpt lat="45.56077" lon="4.84073">
        <ele>278.43863</ele>
        <time>2021-03-18T11:08:22Z</time>
      </trkpt>
      <trkpt lat="45.56072" lon="4.84075">
        <ele>278.4642</ele>
        <time>2021-03-18T11:08:24Z</time>
      </trkpt>
      <trkpt lat="45.56067" lon="4.84077">
        <ele>277.97272</ele>
        <time>2021-03-18T11:08:26Z</time>
      </trkpt>
      <trkpt lat="45.56061" lon="4.84078">
        <ele>278.60245</ele>
        <time>2021-03-18T11:08:28Z</time>
      </trkpt>
      <trkpt lat="45.56056" lon="4.8408">
        <ele>278.24408</ele>
        <time>2021-03-18T11:08:30Z</time>
      </trkpt>
      <trkpt lat="45.5605" lon="4.84081">
        <ele>278.70483</ele>
        <time>2021-03-18T11:08:32Z</time>
      </trkpt>
      <trkpt lat="45.56044" lon="4.84082">
        <ele>278.42325</ele>
        <time>2021-03-18T11:08:34Z</time>
      </trkpt>
      <trkpt lat="45.56039" lon="4.84084">
        <ele>278.88913</ele>
        <time>2021-03-18T11:08:36Z</time>
      </trkpt>
      <trkpt lat="45.56032" lon="4.84086">
        <ele>278.47958</ele>
        <time>2021-03-18T11:08:38Z</time>
      </trkpt>
      <trkpt lat="45.56027" lon="4.84088">
        <ele>278.20822</ele>
        <time>2021-03-18T11:08:40Z</time>
      </trkpt>
      <trkpt lat="45.56021" lon="4.8409">
        <ele>278.34647</ele>
        <time>2021-03-18T11:08:42Z</time>
      </trkpt>
      <trkpt lat="45.56015" lon="4.84093">
        <ele>278.15192</ele>
        <time>2021-03-18T11:08:44Z</time>
      </trkpt>
      <trkpt lat="45.5601" lon="4.84095">
        <ele>278.47446</ele>
        <time>2021-03-18T11:08:46Z</time>
      </trkpt>
      <trkpt lat="45.56005" lon="4.84098">
        <ele>278.67923</ele>
        <time>2021-03-18T11:08:48Z</time>
      </trkpt>
      <trkpt lat="45.55999" lon="4.841">
        <ele>278.4642</ele>
        <time>2021-03-18T11:08:50Z</time>
      </trkpt>
      <trkpt lat="45.55995" lon="4.84102">
        <ele>279.12463</ele>
        <time>2021-03-18T11:08:52Z</time>
      </trkpt>
      <trkpt lat="45.5599" lon="4.84105">
        <ele>279.2168</ele>
        <time>2021-03-18T11:08:54Z</time>
      </trkpt>
      <trkpt lat="45.55988" lon="4.84107">
        <ele>279.01202</ele>
        <time>2021-03-18T11:08:55Z</time>
      </trkpt>
      <trkpt lat="45.55982" lon="4.84109">
        <ele>279.4267</ele>
        <time>2021-03-18T11:08:57Z</time>
      </trkpt>
      <trkpt lat="45.5598" lon="4.8411">
        <ele>279.39597</ele>
        <time>2021-03-18T11:08:58Z</time>
      </trkpt>
      <trkpt lat="45.55973" lon="4.84111">
        <ele>279.75946</ele>
        <time>2021-03-18T11:09:01Z</time>
      </trkpt>
      <trkpt lat="45.55972" lon="4.84112">
        <ele>279.9847</ele>
        <time>2021-03-18T11:09:02Z</time>
      </trkpt>
      <trkpt lat="45.5597" lon="4.84111">
        <ele>279.95914</ele>
        <time>2021-03-18T11:09:03Z</time>
      </trkpt>
      <trkpt lat="45.55965" lon="4.84105">
        <ele>279.8004</ele>
        <time>2021-03-18T11:09:05Z</time>
      </trkpt>
      <trkpt lat="45.55963" lon="4.84101">
        <ele>279.62637</ele>
        <time>2021-03-18T11:09:06Z</time>
      </trkpt>
      <trkpt lat="45.5596" lon="4.84093">
        <ele>279.8721</ele>
        <time>2021-03-18T11:09:08Z</time>
      </trkpt>
      <trkpt lat="45.55959" lon="4.84082">
        <ele>279.09393</ele>
        <time>2021-03-18T11:09:10Z</time>
      </trkpt>
      <trkpt lat="45.55958" lon="4.84072">
        <ele>278.9557</ele>
        <time>2021-03-18T11:09:12Z</time>
      </trkpt>
      <trkpt lat="45.55957" lon="4.84063">
        <ele>278.94034</ele>
        <time>2021-03-18T11:09:14Z</time>
      </trkpt>
      <trkpt lat="45.55959" lon="4.84054">
        <ele>278.08536</ele>
        <time>2021-03-18T11:09:16Z</time>
      </trkpt>
      <trkpt lat="45.55961" lon="4.84046">
        <ele>278.55124</ele>
        <time>2021-03-18T11:09:18Z</time>
      </trkpt>
      <trkpt lat="45.55964" lon="4.84039">
        <ele>278.64853</ele>
        <time>2021-03-18T11:09:20Z</time>
      </trkpt>
      <trkpt lat="45.55966" lon="4.84032">
        <ele>278.3567</ele>
        <time>2021-03-18T11:09:22Z</time>
      </trkpt>
      <trkpt lat="45.55969" lon="4.84025">
        <ele>277.73212</ele>
        <time>2021-03-18T11:09:24Z</time>
      </trkpt>
      <trkpt lat="45.55972" lon="4.84018">
        <ele>277.39932</ele>
        <time>2021-03-18T11:09:26Z</time>
      </trkpt>
      <trkpt lat="45.55976" lon="4.8401">
        <ele>277.56827</ele>
        <time>2021-03-18T11:09:28Z</time>
      </trkpt>
      <trkpt lat="45.5598" lon="4.84002">
        <ele>277.41983</ele>
        <time>2021-03-18T11:09:30Z</time>
      </trkpt>
      <trkpt lat="45.55983" lon="4.83994">
        <ele>277.34814</ele>
        <time>2021-03-18T11:09:32Z</time>
      </trkpt>
      <trkpt lat="45.55986" lon="4.83987">
        <ele>276.72354</ele>
        <time>2021-03-18T11:09:34Z</time>
      </trkpt>
      <trkpt lat="45.5599" lon="4.8398">
        <ele>276.6826</ele>
        <time>2021-03-18T11:09:36Z</time>
      </trkpt>
      <trkpt lat="45.55992" lon="4.83973">
        <ele>276.2986</ele>
        <time>2021-03-18T11:09:38Z</time>
      </trkpt>
      <trkpt lat="45.55996" lon="4.83964">
        <ele>275.8225</ele>
        <time>2021-03-18T11:09:40Z</time>
      </trkpt>
      <trkpt lat="45.55999" lon="4.83957">
        <ele>276.11945</ele>
        <time>2021-03-18T11:09:42Z</time>
      </trkpt>
      <trkpt lat="45.56002" lon="4.83949">
        <ele>275.4283</ele>
        <time>2021-03-18T11:09:44Z</time>
      </trkpt>
      <trkpt lat="45.56006" lon="4.83941">
        <ele>274.81906</ele>
        <time>2021-03-18T11:09:46Z</time>
      </trkpt>
      <trkpt lat="45.56009" lon="4.83933">
        <ele>275.02896</ele>
        <time>2021-03-18T11:09:48Z</time>
      </trkpt>
      <trkpt lat="45.56012" lon="4.83926">
        <ele>274.24057</ele>
        <time>2021-03-18T11:09:50Z</time>
      </trkpt>
      <trkpt lat="45.56015" lon="4.8392">
        <ele>274.18423</ele>
        <time>2021-03-18T11:09:52Z</time>
      </trkpt>
      <trkpt lat="45.56018" lon="4.83913">
        <ele>274.20984</ele>
        <time>2021-03-18T11:09:54Z</time>
      </trkpt>
      <trkpt lat="45.5602" lon="4.83906">
        <ele>274.23032</ele>
        <time>2021-03-18T11:09:56Z</time>
      </trkpt>
      <trkpt lat="45.56023" lon="4.83899">
        <ele>273.703</ele>
        <time>2021-03-18T11:09:58Z</time>
      </trkpt>
      <trkpt lat="45.56026" lon="4.83892">
        <ele>273.00674</ele>
        <time>2021-03-18T11:10:00Z</time>
      </trkpt>
      <trkpt lat="45.56029" lon="4.83885">
        <ele>272.98627</ele>
        <time>2021-03-18T11:10:02Z</time>
      </trkpt>
      <trkpt lat="45.56031" lon="4.83877">
        <ele>272.4999</ele>
        <time>2021-03-18T11:10:04Z</time>
      </trkpt>
      <trkpt lat="45.56034" lon="4.83869">
        <ele>272.45383</ele>
        <time>2021-03-18T11:10:06Z</time>
      </trkpt>
      <trkpt lat="45.56035" lon="4.83861">
        <ele>272.31558</ele>
        <time>2021-03-18T11:10:08Z</time>
      </trkpt>
      <trkpt lat="45.56036" lon="4.83852">
        <ele>270.93842</ele>
        <time>2021-03-18T11:10:10Z</time>
      </trkpt>
      <trkpt lat="45.56038" lon="4.83844">
        <ele>270.65686</ele>
        <time>2021-03-18T11:10:12Z</time>
      </trkpt>
      <trkpt lat="45.5604" lon="4.83836">
        <ele>270.54935</ele>
        <time>2021-03-18T11:10:14Z</time>
      </trkpt>
      <trkpt lat="45.56042" lon="4.83829">
        <ele>271.3736</ele>
        <time>2021-03-18T11:10:16Z</time>
      </trkpt>
      <trkpt lat="45.56044" lon="4.83821">
        <ele>270.6978</ele>
        <time>2021-03-18T11:10:18Z</time>
      </trkpt>
      <trkpt lat="45.56046" lon="4.83814">
        <ele>270.37527</ele>
        <time>2021-03-18T11:10:20Z</time>
      </trkpt>
      <trkpt lat="45.56047" lon="4.83806">
        <ele>271.58862</ele>
        <time>2021-03-18T11:10:22Z</time>
      </trkpt>
      <trkpt lat="45.56048" lon="4.83797">
        <ele>270.76947</ele>
        <time>2021-03-18T11:10:24Z</time>
      </trkpt>
      <trkpt lat="45.56049" lon="4.83789">
        <ele>270.8002</ele>
        <time>2021-03-18T11:10:26Z</time>
      </trkpt>
      <trkpt lat="45.5605" lon="4.8378">
        <ele>270.60565</ele>
        <time>2021-03-18T11:10:28Z</time>
      </trkpt>
      <trkpt lat="45.56051" lon="4.83772">
        <ele>270.38553</ele>
        <time>2021-03-18T11:10:30Z</time>
      </trkpt>
      <trkpt lat="45.56054" lon="4.83765">
        <ele>270.44696</ele>
        <time>2021-03-18T11:10:32Z</time>
      </trkpt>
      <trkpt lat="45.56055" lon="4.83758">
        <ele>270.35992</ele>
        <time>2021-03-18T11:10:34Z</time>
      </trkpt>
      <trkpt lat="45.56052" lon="4.83752">
        <ele>270.60052</ele>
        <time>2021-03-18T11:10:36Z</time>
      </trkpt>
      <trkpt lat="45.56047" lon="4.83749">
        <ele>270.18073</ele>
        <time>2021-03-18T11:10:38Z</time>
      </trkpt>
      <trkpt lat="45.56043" lon="4.83746">
        <ele>270.0169</ele>
        <time>2021-03-18T11:10:40Z</time>
      </trkpt>
      <trkpt lat="45.56038" lon="4.83742">
        <ele>269.60733</ele>
        <time>2021-03-18T11:10:42Z</time>
      </trkpt>
      <trkpt lat="45.56033" lon="4.8374">
        <ele>269.94522</ele>
        <time>2021-03-18T11:10:44Z</time>
      </trkpt>
      <trkpt lat="45.56028" lon="4.83738">
        <ele>269.85306</ele>
        <time>2021-03-18T11:10:46Z</time>
      </trkpt>
      <trkpt lat="45.56021" lon="4.83733">
        <ele>269.8838</ele>
        <time>2021-03-18T11:10:48Z</time>
      </trkpt>
      <trkpt lat="45.56016" lon="4.83729">
        <ele>269.48447</ele>
        <time>2021-03-18T11:10:50Z</time>
      </trkpt>
      <trkpt lat="45.56011" lon="4.83725">
        <ele>269.32578</ele>
        <time>2021-03-18T11:10:52Z</time>
      </trkpt>
      <trkpt lat="45.56006" lon="4.83721">
        <ele>269.21826</ele>
        <time>2021-03-18T11:10:54Z</time>
      </trkpt>
      <trkpt lat="45.56" lon="4.83717">
        <ele>269.5459</ele>
        <time>2021-03-18T11:10:56Z</time>
      </trkpt>
      <trkpt lat="45.55994" lon="4.83713">
        <ele>268.865</ele>
        <time>2021-03-18T11:10:58Z</time>
      </trkpt>
      <trkpt lat="45.55989" lon="4.83709">
        <ele>268.67047</ele>
        <time>2021-03-18T11:11:00Z</time>
      </trkpt>
      <trkpt lat="45.55985" lon="4.83705">
        <ele>268.8906</ele>
        <time>2021-03-18T11:11:02Z</time>
      </trkpt>
      <trkpt lat="45.5598" lon="4.837">
        <ele>268.23016</ele>
        <time>2021-03-18T11:11:04Z</time>
      </trkpt>
      <trkpt lat="45.55975" lon="4.83695">
        <ele>267.84106</ele>
        <time>2021-03-18T11:11:06Z</time>
      </trkpt>
      <trkpt lat="45.5597" lon="4.8369">
        <ele>268.0254</ele>
        <time>2021-03-18T11:11:08Z</time>
      </trkpt>
      <trkpt lat="45.55966" lon="4.83685">
        <ele>268.02026</ele>
        <time>2021-03-18T11:11:10Z</time>
      </trkpt>
      <trkpt lat="45.55961" lon="4.83679">
        <ele>267.5595</ele>
        <time>2021-03-18T11:11:12Z</time>
      </trkpt>
      <trkpt lat="45.55956" lon="4.83674">
        <ele>267.13458</ele>
        <time>2021-03-18T11:11:14Z</time>
      </trkpt>
      <trkpt lat="45.55951" lon="4.83669">
        <ele>266.62775</ele>
        <time>2021-03-18T11:11:16Z</time>
      </trkpt>
      <trkpt lat="45.55946" lon="4.83664">
        <ele>266.21817</ele>
        <time>2021-03-18T11:11:18Z</time>
      </trkpt>
      <trkpt lat="45.55942" lon="4.83659">
        <ele>265.63968</ele>
        <time>2021-03-18T11:11:20Z</time>
      </trkpt>
      <trkpt lat="45.55936" lon="4.83655">
        <ele>265.63968</ele>
        <time>2021-03-18T11:11:22Z</time>
      </trkpt>
      <trkpt lat="45.55932" lon="4.83651">
        <ele>265.07138</ele>
        <time>2021-03-18T11:11:24Z</time>
      </trkpt>
      <trkpt lat="45.55927" lon="4.83646">
        <ele>264.969</ele>
        <time>2021-03-18T11:11:26Z</time>
      </trkpt>
      <trkpt lat="45.55922" lon="4.83641">
        <ele>264.6772</ele>
        <time>2021-03-18T11:11:28Z</time>
      </trkpt>
      <trkpt lat="45.55918" lon="4.83637">
        <ele>264.15497</ele>
        <time>2021-03-18T11:11:30Z</time>
      </trkpt>
      <trkpt lat="45.55914" lon="4.83633">
        <ele>264.04236</ele>
        <time>2021-03-18T11:11:32Z</time>
      </trkpt>
      <trkpt lat="45.55906" lon="4.83627">
        <ele>263.15155</ele>
        <time>2021-03-18T11:11:35Z</time>
      </trkpt>
      <trkpt lat="45.55901" lon="4.83622">
        <ele>263.25906</ele>
        <time>2021-03-18T11:11:37Z</time>
      </trkpt>
      <trkpt lat="45.55895" lon="4.83618">
        <ele>262.6498</ele>
        <time>2021-03-18T11:11:39Z</time>
      </trkpt>
      <trkpt lat="45.5589" lon="4.83614">
        <ele>262.04572</ele>
        <time>2021-03-18T11:11:41Z</time>
      </trkpt>
      <trkpt lat="45.55885" lon="4.83609">
        <ele>262.0201</ele>
        <time>2021-03-18T11:11:43Z</time>
      </trkpt>
      <trkpt lat="45.55879" lon="4.83605">
        <ele>260.33066</ele>
        <time>2021-03-18T11:11:45Z</time>
      </trkpt>
      <trkpt lat="45.55874" lon="4.836">
        <ele>259.70096</ele>
        <time>2021-03-18T11:11:47Z</time>
      </trkpt>
      <trkpt lat="45.55866" lon="4.83593">
        <ele>259.61902</ele>
        <time>2021-03-18T11:11:50Z</time>
      </trkpt>
      <trkpt lat="45.55861" lon="4.83589">
        <ele>259.14804</ele>
        <time>2021-03-18T11:11:52Z</time>
      </trkpt>
      <trkpt lat="45.55856" lon="4.83584">
        <ele>258.1241</ele>
        <time>2021-03-18T11:11:54Z</time>
      </trkpt>
      <trkpt lat="45.55851" lon="4.8358">
        <ele>257.2589</ele>
        <time>2021-03-18T11:11:56Z</time>
      </trkpt>
      <trkpt lat="45.55846" lon="4.83576">
        <ele>257.66336</ele>
        <time>2021-03-18T11:11:58Z</time>
      </trkpt>
      <trkpt lat="45.55846" lon="4.83568">
        <ele>256.96198</ele>
        <time>2021-03-18T11:12:00Z</time>
      </trkpt>
      <trkpt lat="45.5585" lon="4.83561">
        <ele>257.11044</ele>
        <time>2021-03-18T11:12:02Z</time>
      </trkpt>
      <trkpt lat="45.55854" lon="4.83554">
        <ele>257.0541</ele>
        <time>2021-03-18T11:12:04Z</time>
      </trkpt>
      <trkpt lat="45.55859" lon="4.83547">
        <ele>256.75717</ele>
        <time>2021-03-18T11:12:06Z</time>
      </trkpt>
      <trkpt lat="45.55862" lon="4.8354">
        <ele>256.25037</ele>
        <time>2021-03-18T11:12:08Z</time>
      </trkpt>
      <trkpt lat="45.55867" lon="4.83534">
        <ele>256.0609</ele>
        <time>2021-03-18T11:12:10Z</time>
      </trkpt>
      <trkpt lat="45.5587" lon="4.83527">
        <ele>256.84933</ele>
        <time>2021-03-18T11:12:12Z</time>
      </trkpt>
      <trkpt lat="45.55873" lon="4.8352">
        <ele>256.64966</ele>
        <time>2021-03-18T11:12:14Z</time>
      </trkpt>
      <trkpt lat="45.55876" lon="4.83513">
        <ele>257.19748</ele>
        <time>2021-03-18T11:12:16Z</time>
      </trkpt>
      <trkpt lat="45.55878" lon="4.83506">
        <ele>257.5149</ele>
        <time>2021-03-18T11:12:18Z</time>
      </trkpt>
      <trkpt lat="45.55881" lon="4.83502">
        <ele>258.119</ele>
        <time>2021-03-18T11:12:23Z</time>
      </trkpt>
      <trkpt lat="45.55881" lon="4.83502">
        <ele>258.119</ele>
        <time>2021-03-18T11:12:23Z</time>
      </trkpt>
      <trkpt lat="45.55883" lon="4.83484">
        <ele>257.62753</ele>
        <time>2021-03-18T11:12:37Z</time>
      </trkpt>
      <trkpt lat="45.55885" lon="4.83476">
        <ele>256.32715</ele>
        <time>2021-03-18T11:12:39Z</time>
      </trkpt>
      <trkpt lat="45.55888" lon="4.83468">
        <ele>256.30154</ele>
        <time>2021-03-18T11:12:40Z</time>
      </trkpt>
      <trkpt lat="45.55891" lon="4.83459">
        <ele>255.18036</ele>
        <time>2021-03-18T11:12:42Z</time>
      </trkpt>
      <trkpt lat="45.55892" lon="4.83449">
        <ele>254.68376</ele>
        <time>2021-03-18T11:12:44Z</time>
      </trkpt>
      <trkpt lat="45.55893" lon="4.8344">
        <ele>253.98238</ele>
        <time>2021-03-18T11:12:46Z</time>
      </trkpt>
      <trkpt lat="45.55895" lon="4.83432">
        <ele>253.47041</ele>
        <time>2021-03-18T11:12:48Z</time>
      </trkpt>
      <trkpt lat="45.55898" lon="4.83423">
        <ele>252.56425</ele>
        <time>2021-03-18T11:12:50Z</time>
      </trkpt>
      <trkpt lat="45.55898" lon="4.83414">
        <ele>251.82703</ele>
        <time>2021-03-18T11:12:52Z</time>
      </trkpt>
      <trkpt lat="45.55898" lon="4.83403">
        <ele>250.9823</ele>
        <time>2021-03-18T11:12:54Z</time>
      </trkpt>
      <trkpt lat="45.55897" lon="4.83394">
        <ele>250.63417</ele>
        <time>2021-03-18T11:12:56Z</time>
      </trkpt>
      <trkpt lat="45.55896" lon="4.83385">
        <ele>249.29285</ele>
        <time>2021-03-18T11:12:59Z</time>
      </trkpt>
      <trkpt lat="45.55896" lon="4.83372">
        <ele>248.35083</ele>
        <time>2021-03-18T11:13:01Z</time>
      </trkpt>
      <trkpt lat="45.55894" lon="4.83364">
        <ele>248.22798</ele>
        <time>2021-03-18T11:13:03Z</time>
      </trkpt>
      <trkpt lat="45.55892" lon="4.83357">
        <ele>247.98222</ele>
        <time>2021-03-18T11:13:05Z</time>
      </trkpt>
      <trkpt lat="45.55893" lon="4.83349">
        <ele>248.2894</ele>
        <time>2021-03-18T11:13:08Z</time>
      </trkpt>
      <trkpt lat="45.55894" lon="4.83342">
        <ele>248.24844</ele>
        <time>2021-03-18T11:13:09Z</time>
      </trkpt>
      <trkpt lat="45.55895" lon="4.83334">
        <ele>246.42587</ele>
        <time>2021-03-18T11:13:11Z</time>
      </trkpt>
      <trkpt lat="45.55897" lon="4.83328">
        <ele>244.75179</ele>
        <time>2021-03-18T11:13:13Z</time>
      </trkpt>
      <trkpt lat="45.55899" lon="4.8332">
        <ele>244.04016</ele>
        <time>2021-03-18T11:13:15Z</time>
      </trkpt>
      <trkpt lat="45.55902" lon="4.83311">
        <ele>242.94456</ele>
        <time>2021-03-18T11:13:17Z</time>
      </trkpt>
      <trkpt lat="45.55904" lon="4.83303">
        <ele>242.13567</ele>
        <time>2021-03-18T11:13:19Z</time>
      </trkpt>
      <trkpt lat="45.55907" lon="4.83295">
        <ele>241.15271</ele>
        <time>2021-03-18T11:13:21Z</time>
      </trkpt>
      <trkpt lat="45.55909" lon="4.83289">
        <ele>240.0264</ele>
        <time>2021-03-18T11:13:23Z</time>
      </trkpt>
      <trkpt lat="45.55911" lon="4.83282">
        <ele>239.35574</ele>
        <time>2021-03-18T11:13:25Z</time>
      </trkpt>
      <trkpt lat="45.55915" lon="4.8328">
        <ele>239.13559</ele>
        <time>2021-03-18T11:13:27Z</time>
      </trkpt>
      <trkpt lat="45.5592" lon="4.83279">
        <ele>239.12024</ele>
        <time>2021-03-18T11:13:29Z</time>
      </trkpt>
      <trkpt lat="45.55924" lon="4.83276">
        <ele>237.34886</ele>
        <time>2021-03-18T11:13:31Z</time>
      </trkpt>
      <trkpt lat="45.55928" lon="4.83272">
        <ele>235.685</ele>
        <time>2021-03-18T11:13:33Z</time>
      </trkpt>
      <trkpt lat="45.55932" lon="4.83268">
        <ele>234.05696</ele>
        <time>2021-03-18T11:13:35Z</time>
      </trkpt>
      <trkpt lat="45.55938" lon="4.83265">
        <ele>233.23271</ele>
        <time>2021-03-18T11:13:37Z</time>
      </trkpt>
      <trkpt lat="45.55944" lon="4.83264">
        <ele>231.30264</ele>
        <time>2021-03-18T11:13:39Z</time>
      </trkpt>
      <trkpt lat="45.5595" lon="4.83266">
        <ele>231.59956</ele>
        <time>2021-03-18T11:13:41Z</time>
      </trkpt>
      <trkpt lat="45.55955" lon="4.83269">
        <ele>232.77196</ele>
        <time>2021-03-18T11:13:43Z</time>
      </trkpt>
      <trkpt lat="45.55959" lon="4.83271">
        <ele>233.24297</ele>
        <time>2021-03-18T11:13:45Z</time>
      </trkpt>
      <trkpt lat="45.55965" lon="4.83275">
        <ele>234.62524</ele>
        <time>2021-03-18T11:13:48Z</time>
      </trkpt>
      <trkpt lat="45.55971" lon="4.83279">
        <ele>235.96146</ele>
        <time>2021-03-18T11:13:51Z</time>
      </trkpt>
      <trkpt lat="45.55976" lon="4.83282">
        <ele>237.12871</ele>
        <time>2021-03-18T11:13:54Z</time>
      </trkpt>
      <trkpt lat="45.55981" lon="4.83287">
        <ele>238.3011</ele>
        <time>2021-03-18T11:13:57Z</time>
      </trkpt>
      <trkpt lat="45.55986" lon="4.83288">
        <ele>240.03665</ele>
        <time>2021-03-18T11:14:00Z</time>
      </trkpt>
      <trkpt lat="45.5599" lon="4.83285">
        <ele>241.12198</ele>
        <time>2021-03-18T11:14:02Z</time>
      </trkpt>
      <trkpt lat="45.55994" lon="4.83279">
        <ele>241.69026</ele>
        <time>2021-03-18T11:14:04Z</time>
      </trkpt>
      <trkpt lat="45.55996" lon="4.83272">
        <ele>242.89336</ele>
        <time>2021-03-18T11:14:06Z</time>
      </trkpt>
      <trkpt lat="45.55996" lon="4.83266">
        <ele>243.49236</ele>
        <time>2021-03-18T11:14:08Z</time>
      </trkpt>
      <trkpt lat="45.55998" lon="4.83257">
        <ele>245.08968</ele>
        <time>2021-03-18T11:14:11Z</time>
      </trkpt>
      <trkpt lat="45.56" lon="4.83249">
        <ele>245.85248</ele>
        <time>2021-03-18T11:14:14Z</time>
      </trkpt>
      <trkpt lat="45.56002" lon="4.8324">
        <ele>247.36276</ele>
        <time>2021-03-18T11:14:17Z</time>
      </trkpt>
      <trkpt lat="45.56004" lon="4.83234">
        <ele>247.16309</ele>
        <time>2021-03-18T11:14:19Z</time>
      </trkpt>
      <trkpt lat="45.56003" lon="4.83225">
        <ele>247.02486</ele>
        <time>2021-03-18T11:14:21Z</time>
      </trkpt>
      <trkpt lat="45.56" lon="4.83219">
        <ele>246.29788</ele>
        <time>2021-03-18T11:14:23Z</time>
      </trkpt>
      <trkpt lat="45.55997" lon="4.83213">
        <ele>245.46341</ele>
        <time>2021-03-18T11:14:25Z</time>
      </trkpt>
      <trkpt lat="45.55993" lon="4.83209">
        <ele>243.92754</ele>
        <time>2021-03-18T11:14:27Z</time>
      </trkpt>
      <trkpt lat="45.55991" lon="4.83203">
        <ele>242.50427</ele>
        <time>2021-03-18T11:14:29Z</time>
      </trkpt>
      <trkpt lat="45.55989" lon="4.83195">
        <ele>241.34726</ele>
        <time>2021-03-18T11:14:32Z</time>
      </trkpt>
      <trkpt lat="45.5599" lon="4.83189">
        <ele>239.77043</ele>
        <time>2021-03-18T11:14:36Z</time>
      </trkpt>
      <trkpt lat="45.55992" lon="4.83182">
        <ele>237.62532</ele>
        <time>2021-03-18T11:14:41Z</time>
      </trkpt>
      <trkpt lat="45.55991" lon="4.83175">
        <ele>234.91193</ele>
        <time>2021-03-18T11:14:46Z</time>
      </trkpt>
      <trkpt lat="45.5599" lon="4.83169">
        <ele>233.18153</ele>
        <time>2021-03-18T11:14:49Z</time>
      </trkpt>
      <trkpt lat="45.55987" lon="4.83162">
        <ele>231.62006</ele>
        <time>2021-03-18T11:14:53Z</time>
      </trkpt>
      <trkpt lat="45.55984" lon="4.83154">
        <ele>231.29753</ele>
        <time>2021-03-18T11:14:55Z</time>
      </trkpt>
      <trkpt lat="45.5598" lon="4.83148">
        <ele>230.12001</ele>
        <time>2021-03-18T11:14:57Z</time>
      </trkpt>
      <trkpt lat="45.55977" lon="4.83139">
        <ele>231.23608</ele>
        <time>2021-03-18T11:15:00Z</time>
      </trkpt>
      <trkpt lat="45.55977" lon="4.83132">
        <ele>232.33168</ele>
        <time>2021-03-18T11:15:03Z</time>
      </trkpt>
      <trkpt lat="45.55981" lon="4.83127">
        <ele>233.0433</ele>
        <time>2021-03-18T11:15:06Z</time>
      </trkpt>
      <trkpt lat="45.55985" lon="4.83121">
        <ele>233.545</ele>
        <time>2021-03-18T11:15:08Z</time>
      </trkpt>
      <trkpt lat="45.5599" lon="4.83115">
        <ele>233.41191</ele>
        <time>2021-03-18T11:15:10Z</time>
      </trkpt>
      <trkpt lat="45.55993" lon="4.8311">
        <ele>234.05185</ele>
        <time>2021-03-18T11:15:12Z</time>
      </trkpt>
      <trkpt lat="45.55996" lon="4.83103">
        <ele>234.23616</ele>
        <time>2021-03-18T11:15:14Z</time>
      </trkpt>
      <trkpt lat="45.55997" lon="4.83097">
        <ele>234.80954</ele>
        <time>2021-03-18T11:15:16Z</time>
      </trkpt>
      <trkpt lat="45.55997" lon="4.83089">
        <ele>236.03313</ele>
        <time>2021-03-18T11:15:18Z</time>
      </trkpt>
      <trkpt lat="45.55997" lon="4.83081">
        <ele>236.4939</ele>
        <time>2021-03-18T11:15:20Z</time>
      </trkpt>
      <trkpt lat="45.55998" lon="4.83074">
        <ele>237.14407</ele>
        <time>2021-03-18T11:15:22Z</time>
      </trkpt>
      <trkpt lat="45.55999" lon="4.83067">
        <ele>237.42053</ele>
        <time>2021-03-18T11:15:24Z</time>
      </trkpt>
      <trkpt lat="45.56001" lon="4.83059">
        <ele>237.58437</ele>
        <time>2021-03-18T11:15:26Z</time>
      </trkpt>
      <trkpt lat="45.56002" lon="4.83053">
        <ele>237.8557</ele>
        <time>2021-03-18T11:15:28Z</time>
      </trkpt>
      <trkpt lat="45.56005" lon="4.83046">
        <ele>237.69188</ele>
        <time>2021-03-18T11:15:30Z</time>
      </trkpt>
      <trkpt lat="45.56007" lon="4.8304">
        <ele>238.27039</ele>
        <time>2021-03-18T11:15:32Z</time>
      </trkpt>
      <trkpt lat="45.56012" lon="4.83033">
        <ele>238.45981</ele>
        <time>2021-03-18T11:15:35Z</time>
      </trkpt>
      <trkpt lat="45.56015" lon="4.83028">
        <ele>239.3762</ele>
        <time>2021-03-18T11:15:37Z</time>
      </trkpt>
      <trkpt lat="45.56019" lon="4.83023">
        <ele>240.3694</ele>
        <time>2021-03-18T11:15:39Z</time>
      </trkpt>
      <trkpt lat="45.56022" lon="4.83018">
        <ele>240.77898</ele>
        <time>2021-03-18T11:15:41Z</time>
      </trkpt>
      <trkpt lat="45.56025" lon="4.83012">
        <ele>241.20903</ele>
        <time>2021-03-18T11:15:43Z</time>
      </trkpt>
      <trkpt lat="45.56028" lon="4.83008">
        <ele>242.08447</ele>
        <time>2021-03-18T11:15:45Z</time>
      </trkpt>
      <trkpt lat="45.56032" lon="4.83003">
        <ele>242.38652</ele>
        <time>2021-03-18T11:15:47Z</time>
      </trkpt>
      <trkpt lat="45.56036" lon="4.82997">
        <ele>241.73122</ele>
        <time>2021-03-18T11:15:49Z</time>
      </trkpt>
      <trkpt lat="45.56041" lon="4.82991">
        <ele>241.79778</ele>
        <time>2021-03-18T11:15:51Z</time>
      </trkpt>
      <trkpt lat="45.56046" lon="4.82987">
        <ele>243.01112</ele>
        <time>2021-03-18T11:15:53Z</time>
      </trkpt>
      <trkpt lat="45.56051" lon="4.82985">
        <ele>241.80803</ele>
        <time>2021-03-18T11:15:55Z</time>
      </trkpt>
      <trkpt lat="45.56056" lon="4.82985">
        <ele>241.80803</ele>
        <time>2021-03-18T11:15:57Z</time>
      </trkpt>
      <trkpt lat="45.56062" lon="4.82984">
        <ele>242.31998</ele>
        <time>2021-03-18T11:16:00Z</time>
      </trkpt>
      <trkpt lat="45.56067" lon="4.82983">
        <ele>242.54523</ele>
        <time>2021-03-18T11:16:02Z</time>
      </trkpt>
      <trkpt lat="45.56072" lon="4.82983">
        <ele>242.76538</ele>
        <time>2021-03-18T11:16:04Z</time>
      </trkpt>
      <trkpt lat="45.56078" lon="4.82981">
        <ele>243.3746</ele>
        <time>2021-03-18T11:16:06Z</time>
      </trkpt>
      <trkpt lat="45.56084" lon="4.82976">
        <ele>243.44629</ele>
        <time>2021-03-18T11:16:08Z</time>
      </trkpt>
      <trkpt lat="45.56088" lon="4.8297">
        <ele>244.29613</ele>
        <time>2021-03-18T11:16:10Z</time>
      </trkpt>
      <trkpt lat="45.56092" lon="4.82966">
        <ele>244.11694</ele>
        <time>2021-03-18T11:16:12Z</time>
      </trkpt>
      <trkpt lat="45.56096" lon="4.82961">
        <ele>244.26543</ele>
        <time>2021-03-18T11:16:14Z</time>
      </trkpt>
      <trkpt lat="45.56099" lon="4.82955">
        <ele>242.65785</ele>
        <time>2021-03-18T11:16:16Z</time>
      </trkpt>
      <trkpt lat="45.56102" lon="4.82947">
        <ele>241.8336</ele>
        <time>2021-03-18T11:16:19Z</time>
      </trkpt>
      <trkpt lat="45.56104" lon="4.8294">
        <ele>240.45132</ele>
        <time>2021-03-18T11:16:21Z</time>
      </trkpt>
      <trkpt lat="45.56105" lon="4.82933">
        <ele>239.19704</ele>
        <time>2021-03-18T11:16:23Z</time>
      </trkpt>
      <trkpt lat="45.56106" lon="4.82925">
        <ele>239.70898</ele>
        <time>2021-03-18T11:16:25Z</time>
      </trkpt>
      <trkpt lat="45.56107" lon="4.82916">
        <ele>239.6885</ele>
        <time>2021-03-18T11:16:27Z</time>
      </trkpt>
      <trkpt lat="45.56106" lon="4.82908">
        <ele>239.96498</ele>
        <time>2021-03-18T11:16:29Z</time>
      </trkpt>
      <trkpt lat="45.56107" lon="4.82902">
        <ele>240.19534</ele>
        <time>2021-03-18T11:16:31Z</time>
      </trkpt>
      <trkpt lat="45.56112" lon="4.82901">
        <ele>241.7773</ele>
        <time>2021-03-18T11:16:34Z</time>
      </trkpt>
      <trkpt lat="45.56117" lon="4.82903">
        <ele>242.51451</ele>
        <time>2021-03-18T11:16:36Z</time>
      </trkpt>
      <trkpt lat="45.56122" lon="4.82902">
        <ele>242.08447</ele>
        <time>2021-03-18T11:16:38Z</time>
      </trkpt>
      <trkpt lat="45.56127" lon="4.82902">
        <ele>242.63739</ele>
        <time>2021-03-18T11:16:40Z</time>
      </trkpt>
      <trkpt lat="45.56133" lon="4.82901">
        <ele>242.25854</ele>
        <time>2021-03-18T11:16:42Z</time>
      </trkpt>
      <trkpt lat="45.56138" lon="4.829">
        <ele>242.80122</ele>
        <time>2021-03-18T11:16:44Z</time>
      </trkpt>
      <trkpt lat="45.56143" lon="4.82901">
        <ele>243.32341</ele>
        <time>2021-03-18T11:16:46Z</time>
      </trkpt>
      <trkpt lat="45.56148" lon="4.82901">
        <ele>243.25174</ele>
        <time>2021-03-18T11:16:48Z</time>
      </trkpt>
      <trkpt lat="45.56156" lon="4.82901">
        <ele>243.4514</ele>
        <time>2021-03-18T11:16:51Z</time>
      </trkpt>
      <trkpt lat="45.56161" lon="4.829">
        <ele>242.6937</ele>
        <time>2021-03-18T11:16:53Z</time>
      </trkpt>
      <trkpt lat="45.56167" lon="4.82899">
        <ele>243.86609</ele>
        <time>2021-03-18T11:16:55Z</time>
      </trkpt>
      <trkpt lat="45.56172" lon="4.82898">
        <ele>243.46675</ele>
        <time>2021-03-18T11:16:57Z</time>
      </trkpt>
      <trkpt lat="45.56178" lon="4.82898">
        <ele>243.62547</ele>
        <time>2021-03-18T11:16:59Z</time>
      </trkpt>
      <trkpt lat="45.56184" lon="4.82898">
        <ele>243.7893</ele>
        <time>2021-03-18T11:17:01Z</time>
      </trkpt>
      <trkpt lat="45.56189" lon="4.82898">
        <ele>243.15958</ele>
        <time>2021-03-18T11:17:03Z</time>
      </trkpt>
      <trkpt lat="45.56192" lon="4.82893">
        <ele>242.52477</ele>
        <time>2021-03-18T11:17:05Z</time>
      </trkpt>
      <trkpt lat="45.56191" lon="4.82883">
        <ele>242.09982</ele>
        <time>2021-03-18T11:17:07Z</time>
      </trkpt>
      <trkpt lat="45.5619" lon="4.82874">
        <ele>241.76193</ele>
        <time>2021-03-18T11:17:09Z</time>
      </trkpt>
      <trkpt lat="45.56188" lon="4.82866">
        <ele>240.74826</ele>
        <time>2021-03-18T11:17:11Z</time>
      </trkpt>
      <trkpt lat="45.56186" lon="4.82858">
        <ele>239.89328</ele>
        <time>2021-03-18T11:17:13Z</time>
      </trkpt>
      <trkpt lat="45.56183" lon="4.82849">
        <ele>239.70387</ele>
        <time>2021-03-18T11:17:15Z</time>
      </trkpt>
      <trkpt lat="45.56181" lon="4.82841">
        <ele>239.03831</ele>
        <time>2021-03-18T11:17:17Z</time>
      </trkpt>
      <trkpt lat="45.56179" lon="4.82834">
        <ele>238.28574</ele>
        <time>2021-03-18T11:17:19Z</time>
      </trkpt>
      <trkpt lat="45.56178" lon="4.82826">
        <ele>237.54852</ele>
        <time>2021-03-18T11:17:21Z</time>
      </trkpt>
      <trkpt lat="45.56177" lon="4.82818">
        <ele>236.0485</ele>
        <time>2021-03-18T11:17:23Z</time>
      </trkpt>
      <trkpt lat="45.56178" lon="4.8281">
        <ele>235.02458</ele>
        <time>2021-03-18T11:17:25Z</time>
      </trkpt>
      <trkpt lat="45.56177" lon="4.82801">
        <ele>235.66452</ele>
        <time>2021-03-18T11:17:27Z</time>
      </trkpt>
      <trkpt lat="45.56176" lon="4.82792">
        <ele>234.52797</ele>
        <time>2021-03-18T11:17:29Z</time>
      </trkpt>
      <trkpt lat="45.56176" lon="4.82782">
        <ele>234.51262</ele>
        <time>2021-03-18T11:17:31Z</time>
      </trkpt>
      <trkpt lat="45.56176" lon="4.82772">
        <ele>233.75493</ele>
        <time>2021-03-18T11:17:33Z</time>
      </trkpt>
      <trkpt lat="45.56176" lon="4.82763">
        <ele>233.673</ele>
        <time>2021-03-18T11:17:35Z</time>
      </trkpt>
      <trkpt lat="45.56175" lon="4.82755">
        <ele>233.36583</ele>
        <time>2021-03-18T11:17:37Z</time>
      </trkpt>
      <trkpt lat="45.56174" lon="4.82748">
        <ele>233.66788</ele>
        <time>2021-03-18T11:17:39Z</time>
      </trkpt>
      <trkpt lat="45.56174" lon="4.82741">
        <ele>234.11841</ele>
        <time>2021-03-18T11:17:41Z</time>
      </trkpt>
      <trkpt lat="45.56178" lon="4.82734">
        <ele>235.53653</ele>
        <time>2021-03-18T11:17:44Z</time>
      </trkpt>
      <trkpt lat="45.56184" lon="4.8273">
        <ele>235.03993</ele>
        <time>2021-03-18T11:17:46Z</time>
      </trkpt>
      <trkpt lat="45.56189" lon="4.82728">
        <ele>235.44438</ele>
        <time>2021-03-18T11:17:48Z</time>
      </trkpt>
      <trkpt lat="45.56195" lon="4.82728">
        <ele>236.14577</ele>
        <time>2021-03-18T11:17:50Z</time>
      </trkpt>
      <trkpt lat="45.56201" lon="4.82729">
        <ele>236.35056</ele>
        <time>2021-03-18T11:17:52Z</time>
      </trkpt>
      <trkpt lat="45.56207" lon="4.82732">
        <ele>235.85905</ele>
        <time>2021-03-18T11:17:54Z</time>
      </trkpt>
      <trkpt lat="45.56212" lon="4.82735">
        <ele>236.06384</ele>
        <time>2021-03-18T11:17:56Z</time>
      </trkpt>
      <trkpt lat="45.56217" lon="4.82737">
        <ele>236.47853</ele>
        <time>2021-03-18T11:17:58Z</time>
      </trkpt>
      <trkpt lat="45.56222" lon="4.82738">
        <ele>236.36078</ele>
        <time>2021-03-18T11:18:00Z</time>
      </trkpt>
      <trkpt lat="45.56227" lon="4.82741">
        <ele>235.96146</ele>
        <time>2021-03-18T11:18:02Z</time>
      </trkpt>
      <trkpt lat="45.56231" lon="4.82743">
        <ele>235.10648</ele>
        <time>2021-03-18T11:18:04Z</time>
      </trkpt>
      <trkpt lat="45.56237" lon="4.82745">
        <ele>235.41878</ele>
        <time>2021-03-18T11:18:06Z</time>
      </trkpt>
      <trkpt lat="45.56243" lon="4.82747">
        <ele>234.30272</ele>
        <time>2021-03-18T11:18:08Z</time>
      </trkpt>
      <trkpt lat="45.5625" lon="4.8275">
        <ele>233.68323</ele>
        <time>2021-03-18T11:18:10Z</time>
      </trkpt>
      <trkpt lat="45.56256" lon="4.82752">
        <ele>233.1252</ele>
        <time>2021-03-18T11:18:12Z</time>
      </trkpt>
      <trkpt lat="45.56262" lon="4.82755">
        <ele>232.48013</ele>
        <time>2021-03-18T11:18:14Z</time>
      </trkpt>
      <trkpt lat="45.56267" lon="4.82757">
        <ele>232.01427</ele>
        <time>2021-03-18T11:18:16Z</time>
      </trkpt>
      <trkpt lat="45.56272" lon="4.82759">
        <ele>231.24632</ele>
        <time>2021-03-18T11:18:18Z</time>
      </trkpt>
      <trkpt lat="45.56278" lon="4.8276">
        <ele>230.32991</ele>
        <time>2021-03-18T11:18:20Z</time>
      </trkpt>
      <trkpt lat="45.56283" lon="4.8276">
        <ele>230.08418</ele>
        <time>2021-03-18T11:18:22Z</time>
      </trkpt>
      <trkpt lat="45.56287" lon="4.82758">
        <ele>229.73605</ele>
        <time>2021-03-18T11:18:24Z</time>
      </trkpt>
      <trkpt lat="45.56294" lon="4.82754">
        <ele>229.21898</ele>
        <time>2021-03-18T11:18:26Z</time>
      </trkpt>
      <trkpt lat="45.563" lon="4.82749">
        <ele>229.21385</ele>
        <time>2021-03-18T11:18:28Z</time>
      </trkpt>
      <trkpt lat="45.56303" lon="4.82745">
        <ele>228.51758</ele>
        <time>2021-03-18T11:18:30Z</time>
      </trkpt>
      <trkpt lat="45.56307" lon="4.8274">
        <ele>229.306</ele>
        <time>2021-03-18T11:18:32Z</time>
      </trkpt>
      <trkpt lat="45.5631" lon="4.82732">
        <ele>229.4596</ele>
        <time>2021-03-18T11:18:34Z</time>
      </trkpt>
      <trkpt lat="45.56312" lon="4.82724">
        <ele>230.0125</ele>
        <time>2021-03-18T11:18:36Z</time>
      </trkpt>
      <trkpt lat="45.56311" lon="4.82717">
        <ele>230.8214</ele>
        <time>2021-03-18T11:18:38Z</time>
      </trkpt>
      <trkpt lat="45.56311" lon="4.82709">
        <ele>231.4767</ele>
        <time>2021-03-18T11:18:40Z</time>
      </trkpt>
      <trkpt lat="45.56311" lon="4.82702">
        <ele>231.41527</ele>
        <time>2021-03-18T11:18:42Z</time>
      </trkpt>
      <trkpt lat="45.56312" lon="4.82694">
        <ele>231.79922</ele>
        <time>2021-03-18T11:18:44Z</time>
      </trkpt>
      <trkpt lat="45.56312" lon="4.82687">
        <ele>232.21391</ele>
        <time>2021-03-18T11:18:46Z</time>
      </trkpt>
      <trkpt lat="45.56313" lon="4.82679">
        <ele>232.54669</ele>
        <time>2021-03-18T11:18:48Z</time>
      </trkpt>
      <trkpt lat="45.56314" lon="4.82671">
        <ele>232.87947</ele>
        <time>2021-03-18T11:18:50Z</time>
      </trkpt>
      <trkpt lat="45.56316" lon="4.82664">
        <ele>232.27536</ele>
        <time>2021-03-18T11:18:52Z</time>
      </trkpt>
      <trkpt lat="45.56319" lon="4.82658">
        <ele>232.56206</ele>
        <time>2021-03-18T11:18:55Z</time>
      </trkpt>
      <trkpt lat="45.56324" lon="4.82656">
        <ele>233.7242</ele>
        <time>2021-03-18T11:18:58Z</time>
      </trkpt>
      <trkpt lat="45.56328" lon="4.82654">
        <ele>233.62692</ele>
        <time>2021-03-18T11:19:00Z</time>
      </trkpt>
      <trkpt lat="45.56334" lon="4.82651">
        <ele>234.46141</ele>
        <time>2021-03-18T11:19:03Z</time>
      </trkpt>
      <trkpt lat="45.5634" lon="4.82649">
        <ele>235.71571</ele>
        <time>2021-03-18T11:19:05Z</time>
      </trkpt>
      <trkpt lat="45.56345" lon="4.82646">
        <ele>235.3727</ele>
        <time>2021-03-18T11:19:07Z</time>
      </trkpt>
      <trkpt lat="45.56352" lon="4.82644">
        <ele>236.26863</ele>
        <time>2021-03-18T11:19:10Z</time>
      </trkpt>
      <trkpt lat="45.56357" lon="4.82643">
        <ele>236.94952</ele>
        <time>2021-03-18T11:19:12Z</time>
      </trkpt>
      <trkpt lat="45.56361" lon="4.82643">
        <ele>236.65773</ele>
        <time>2021-03-18T11:19:14Z</time>
      </trkpt>
      <trkpt lat="45.56366" lon="4.82645">
        <ele>236.71404</ele>
        <time>2021-03-18T11:19:16Z</time>
      </trkpt>
      <trkpt lat="45.56369" lon="4.8265">
        <ele>237.35397</ele>
        <time>2021-03-18T11:19:18Z</time>
      </trkpt>
      <trkpt lat="45.56373" lon="4.82659">
        <ele>236.60141</ele>
        <time>2021-03-18T11:19:20Z</time>
      </trkpt>
      <trkpt lat="45.56374" lon="4.82668">
        <ele>236.19696</ele>
        <time>2021-03-18T11:19:22Z</time>
      </trkpt>
      <trkpt lat="45.56376" lon="4.82677">
        <ele>236.70891</ele>
        <time>2021-03-18T11:19:24Z</time>
      </trkpt>
      <trkpt lat="45.56377" lon="4.82684">
        <ele>235.91537</ele>
        <time>2021-03-18T11:19:26Z</time>
      </trkpt>
      <trkpt lat="45.56377" lon="4.82693">
        <ele>236.29424</ele>
        <time>2021-03-18T11:19:28Z</time>
      </trkpt>
      <trkpt lat="45.56379" lon="4.82701">
        <ele>235.92561</ele>
        <time>2021-03-18T11:19:30Z</time>
      </trkpt>
      <trkpt lat="45.56381" lon="4.82709">
        <ele>236.5502</ele>
        <time>2021-03-18T11:19:32Z</time>
      </trkpt>
      <trkpt lat="45.56384" lon="4.82717">
        <ele>237.32326</ele>
        <time>2021-03-18T11:19:34Z</time>
      </trkpt>
      <trkpt lat="45.56385" lon="4.82725">
        <ele>237.47173</ele>
        <time>2021-03-18T11:19:36Z</time>
      </trkpt>
      <trkpt lat="45.56387" lon="4.82732">
        <ele>237.10825</ele>
        <time>2021-03-18T11:19:38Z</time>
      </trkpt>
      <trkpt lat="45.56389" lon="4.82739">
        <ele>236.85738</ele>
        <time>2021-03-18T11:19:40Z</time>
      </trkpt>
      <trkpt lat="45.56391" lon="4.82746">
        <ele>236.91881</ele>
        <time>2021-03-18T11:19:42Z</time>
      </trkpt>
      <trkpt lat="45.56392" lon="4.82752">
        <ele>237.15431</ele>
        <time>2021-03-18T11:19:44Z</time>
      </trkpt>
      <trkpt lat="45.56394" lon="4.82759">
        <ele>237.18503</ele>
        <time>2021-03-18T11:19:46Z</time>
      </trkpt>
      <trkpt lat="45.56397" lon="4.82766">
        <ele>236.78058</ele>
        <time>2021-03-18T11:19:48Z</time>
      </trkpt>
      <trkpt lat="45.56399" lon="4.82773">
        <ele>236.69356</ele>
        <time>2021-03-18T11:19:50Z</time>
      </trkpt>
      <trkpt lat="45.56401" lon="4.8278">
        <ele>237.19527</ele>
        <time>2021-03-18T11:19:52Z</time>
      </trkpt>
      <trkpt lat="45.56404" lon="4.82787">
        <ele>237.60483</ele>
        <time>2021-03-18T11:19:54Z</time>
      </trkpt>
      <trkpt lat="45.56407" lon="4.82794">
        <ele>238.23456</ele>
        <time>2021-03-18T11:19:56Z</time>
      </trkpt>
      <trkpt lat="45.5641" lon="4.82801">
        <ele>237.91714</ele>
        <time>2021-03-18T11:19:58Z</time>
      </trkpt>
      <trkpt lat="45.56412" lon="4.82809">
        <ele>237.75331</ele>
        <time>2021-03-18T11:20:01Z</time>
      </trkpt>
      <trkpt lat="45.56414" lon="4.82818">
        <ele>237.73283</ele>
        <time>2021-03-18T11:20:04Z</time>
      </trkpt>
      <trkpt lat="45.56416" lon="4.82826">
        <ele>238.43933</ele>
        <time>2021-03-18T11:20:06Z</time>
      </trkpt>
      <trkpt lat="45.56418" lon="4.82832">
        <ele>239.33525</ele>
        <time>2021-03-18T11:20:08Z</time>
      </trkpt>
      <trkpt lat="45.56419" lon="4.82839">
        <ele>239.28918</ele>
        <time>2021-03-18T11:20:10Z</time>
      </trkpt>
      <trkpt lat="45.56421" lon="4.82846">
        <ele>238.511</ele>
        <time>2021-03-18T11:20:12Z</time>
      </trkpt>
      <trkpt lat="45.56423" lon="4.82853">
        <ele>239.57588</ele>
        <time>2021-03-18T11:20:14Z</time>
      </trkpt>
      <trkpt lat="45.56424" lon="4.8286">
        <ele>240.00081</ele>
        <time>2021-03-18T11:20:16Z</time>
      </trkpt>
      <trkpt lat="45.56426" lon="4.82868">
        <ele>240.01616</ele>
        <time>2021-03-18T11:20:18Z</time>
      </trkpt>
      <trkpt lat="45.56429" lon="4.82875">
        <ele>240.28238</ele>
        <time>2021-03-18T11:20:20Z</time>
      </trkpt>
      <trkpt lat="45.56432" lon="4.82883">
        <ele>241.20903</ele>
        <time>2021-03-18T11:20:22Z</time>
      </trkpt>
      <trkpt lat="45.56436" lon="4.82889">
        <ele>242.57083</ele>
        <time>2021-03-18T11:20:24Z</time>
      </trkpt>
      <trkpt lat="45.56439" lon="4.82895">
        <ele>242.34045</ele>
        <time>2021-03-18T11:20:26Z</time>
      </trkpt>
      <trkpt lat="45.56444" lon="4.82899">
        <ele>242.35068</ele>
        <time>2021-03-18T11:20:28Z</time>
      </trkpt>
      <trkpt lat="45.56449" lon="4.82903">
        <ele>242.80634</ele>
        <time>2021-03-18T11:20:30Z</time>
      </trkpt>
      <trkpt lat="45.56453" lon="4.82906">
        <ele>242.91385</ele>
        <time>2021-03-18T11:20:32Z</time>
      </trkpt>
      <trkpt lat="45.56459" lon="4.82909">
        <ele>242.46844</ele>
        <time>2021-03-18T11:20:34Z</time>
      </trkpt>
      <trkpt lat="45.56464" lon="4.82911">
        <ele>243.79953</ele>
        <time>2021-03-18T11:20:36Z</time>
      </trkpt>
      <trkpt lat="45.56469" lon="4.82913">
        <ele>243.47188</ele>
        <time>2021-03-18T11:20:38Z</time>
      </trkpt>
      <trkpt lat="45.56474" lon="4.82915">
        <ele>244.41388</ele>
        <time>2021-03-18T11:20:40Z</time>
      </trkpt>
      <trkpt lat="45.56479" lon="4.82916">
        <ele>243.12375</ele>
        <time>2021-03-18T11:20:42Z</time>
      </trkpt>
      <trkpt lat="45.56484" lon="4.82918">
        <ele>243.05208</ele>
        <time>2021-03-18T11:20:44Z</time>
      </trkpt>
      <trkpt lat="45.5649" lon="4.8292">
        <ele>244.05038</ele>
        <time>2021-03-18T11:20:46Z</time>
      </trkpt>
      <trkpt lat="45.56495" lon="4.82922">
        <ele>244.05551</ele>
        <time>2021-03-18T11:20:48Z</time>
      </trkpt>
      <trkpt lat="45.56501" lon="4.82923">
        <ele>243.7637</ele>
        <time>2021-03-18T11:20:50Z</time>
      </trkpt>
      <trkpt lat="45.56506" lon="4.82924">
        <ele>243.90704</ele>
        <time>2021-03-18T11:20:52Z</time>
      </trkpt>
      <trkpt lat="45.56511" lon="4.82925">
        <ele>244.36781</ele>
        <time>2021-03-18T11:20:54Z</time>
      </trkpt>
      <trkpt lat="45.56517" lon="4.82925">
        <ele>243.40532</ele>
        <time>2021-03-18T11:20:56Z</time>
      </trkpt>
      <trkpt lat="45.56522" lon="4.82925">
        <ele>242.92409</ele>
        <time>2021-03-18T11:20:58Z</time>
      </trkpt>
      <trkpt lat="45.56528" lon="4.82924">
        <ele>244.65962</ele>
        <time>2021-03-18T11:21:00Z</time>
      </trkpt>
      <trkpt lat="45.56534" lon="4.82924">
        <ele>244.33195</ele>
        <time>2021-03-18T11:21:02Z</time>
      </trkpt>
      <trkpt lat="45.5654" lon="4.82925">
        <ele>243.11351</ele>
        <time>2021-03-18T11:21:04Z</time>
      </trkpt>
      <trkpt lat="45.56546" lon="4.82928">
        <ele>243.7893</ele>
        <time>2021-03-18T11:21:06Z</time>
      </trkpt>
      <trkpt lat="45.56551" lon="4.8293">
        <ele>243.12886</ele>
        <time>2021-03-18T11:21:08Z</time>
      </trkpt>
      <trkpt lat="45.56557" lon="4.82934">
        <ele>243.38486</ele>
        <time>2021-03-18T11:21:10Z</time>
      </trkpt>
      <trkpt lat="45.56562" lon="4.82939">
        <ele>243.18518</ele>
        <time>2021-03-18T11:21:12Z</time>
      </trkpt>
      <trkpt lat="45.56568" lon="4.82943">
        <ele>243.4002</ele>
        <time>2021-03-18T11:21:14Z</time>
      </trkpt>
      <trkpt lat="45.56574" lon="4.82946">
        <ele>243.55891</ele>
        <time>2021-03-18T11:21:16Z</time>
      </trkpt>
      <trkpt lat="45.56578" lon="4.82951">
        <ele>243.12375</ele>
        <time>2021-03-18T11:21:18Z</time>
      </trkpt>
      <trkpt lat="45.56583" lon="4.82956">
        <ele>243.5282</ele>
        <time>2021-03-18T11:21:20Z</time>
      </trkpt>
      <trkpt lat="45.56587" lon="4.8296">
        <ele>245.018</ele>
        <time>2021-03-18T11:21:22Z</time>
      </trkpt>
      <trkpt lat="45.56591" lon="4.82964">
        <ele>244.05038</ele>
        <time>2021-03-18T11:21:24Z</time>
      </trkpt>
      <trkpt lat="45.56596" lon="4.82968">
        <ele>243.31319</ele>
        <time>2021-03-18T11:21:26Z</time>
      </trkpt>
      <trkpt lat="45.56601" lon="4.82973">
        <ele>243.03673</ele>
        <time>2021-03-18T11:21:28Z</time>
      </trkpt>
      <trkpt lat="45.56606" lon="4.82978">
        <ele>242.81145</ele>
        <time>2021-03-18T11:21:30Z</time>
      </trkpt>
      <trkpt lat="45.56611" lon="4.82983">
        <ele>243.0879</ele>
        <time>2021-03-18T11:21:32Z</time>
      </trkpt>
      <trkpt lat="45.56615" lon="4.82987">
        <ele>243.13399</ele>
        <time>2021-03-18T11:21:34Z</time>
      </trkpt>
      <trkpt lat="45.5662" lon="4.82991">
        <ele>242.72441</ele>
        <time>2021-03-18T11:21:36Z</time>
      </trkpt>
      <trkpt lat="45.56625" lon="4.82996">
        <ele>242.72441</ele>
        <time>2021-03-18T11:21:38Z</time>
      </trkpt>
      <trkpt lat="45.56629" lon="4.83001">
        <ele>242.38652</ele>
        <time>2021-03-18T11:21:40Z</time>
      </trkpt>
      <trkpt lat="45.56633" lon="4.83007">
        <ele>242.21245</ele>
        <time>2021-03-18T11:21:42Z</time>
      </trkpt>
      <trkpt lat="45.56638" lon="4.83013">
        <ele>242.02304</ele>
        <time>2021-03-18T11:21:44Z</time>
      </trkpt>
      <trkpt lat="45.56643" lon="4.83019">
        <ele>242.47356</ele>
        <time>2021-03-18T11:21:46Z</time>
      </trkpt>
      <trkpt lat="45.56647" lon="4.83024">
        <ele>242.20222</ele>
        <time>2021-03-18T11:21:48Z</time>
      </trkpt>
      <trkpt lat="45.56652" lon="4.8303">
        <ele>242.09982</ele>
        <time>2021-03-18T11:21:50Z</time>
      </trkpt>
      <trkpt lat="45.56656" lon="4.83037">
        <ele>241.04008</ele>
        <time>2021-03-18T11:21:52Z</time>
      </trkpt>
      <trkpt lat="45.56661" lon="4.83042">
        <ele>240.8865</ele>
        <time>2021-03-18T11:21:54Z</time>
      </trkpt>
      <trkpt lat="45.56665" lon="4.83048">
        <ele>241.4138</ele>
        <time>2021-03-18T11:21:56Z</time>
      </trkpt>
      <trkpt lat="45.56669" lon="4.83053">
        <ele>241.42915</ele>
        <time>2021-03-18T11:21:58Z</time>
      </trkpt>
      <trkpt lat="45.56673" lon="4.83058">
        <ele>241.42915</ele>
        <time>2021-03-18T11:22:00Z</time>
      </trkpt>
      <trkpt lat="45.56677" lon="4.83063">
        <ele>241.02473</ele>
        <time>2021-03-18T11:22:02Z</time>
      </trkpt>
      <trkpt lat="45.56682" lon="4.83068">
        <ele>240.90697</ele>
        <time>2021-03-18T11:22:04Z</time>
      </trkpt>
      <trkpt lat="45.56687" lon="4.83074">
        <ele>240.71242</ele>
        <time>2021-03-18T11:22:06Z</time>
      </trkpt>
      <trkpt lat="45.56691" lon="4.83079">
        <ele>241.13736</ele>
        <time>2021-03-18T11:22:08Z</time>
      </trkpt>
      <trkpt lat="45.56696" lon="4.83083">
        <ele>240.8148</ele>
        <time>2021-03-18T11:22:10Z</time>
      </trkpt>
      <trkpt lat="45.56701" lon="4.83088">
        <ele>240.67146</ele>
        <time>2021-03-18T11:22:12Z</time>
      </trkpt>
      <trkpt lat="45.56705" lon="4.83092">
        <ele>240.50763</ele>
        <time>2021-03-18T11:22:14Z</time>
      </trkpt>
      <trkpt lat="45.5671" lon="4.83096">
        <ele>240.46667</ele>
        <time>2021-03-18T11:22:16Z</time>
      </trkpt>
      <trkpt lat="45.56716" lon="4.831">
        <ele>240.19023</ele>
        <time>2021-03-18T11:22:18Z</time>
      </trkpt>
      <trkpt lat="45.56721" lon="4.83104">
        <ele>239.0076</ele>
        <time>2021-03-18T11:22:20Z</time>
      </trkpt>
      <trkpt lat="45.56725" lon="4.83107">
        <ele>239.32503</ele>
        <time>2021-03-18T11:22:22Z</time>
      </trkpt>
      <trkpt lat="45.5673" lon="4.83111">
        <ele>238.99736</ele>
        <time>2021-03-18T11:22:24Z</time>
      </trkpt>
      <trkpt lat="45.56735" lon="4.83114">
        <ele>238.92058</ele>
        <time>2021-03-18T11:22:26Z</time>
      </trkpt>
      <trkpt lat="45.56739" lon="4.83119">
        <ele>237.97345</ele>
        <time>2021-03-18T11:22:28Z</time>
      </trkpt>
      <trkpt lat="45.56743" lon="4.83124">
        <ele>237.68675</ele>
        <time>2021-03-18T11:22:30Z</time>
      </trkpt>
      <trkpt lat="45.56744" lon="4.83131">
        <ele>237.29254</ele>
        <time>2021-03-18T11:22:32Z</time>
      </trkpt>
      <trkpt lat="45.56745" lon="4.83138">
        <ele>236.94952</ele>
        <time>2021-03-18T11:22:34Z</time>
      </trkpt>
      <trkpt lat="45.56747" lon="4.83144">
        <ele>236.21233</ele>
        <time>2021-03-18T11:22:36Z</time>
      </trkpt>
      <trkpt lat="45.56749" lon="4.83152">
        <ele>235.4546</ele>
        <time>2021-03-18T11:22:38Z</time>
      </trkpt>
      <trkpt lat="45.56751" lon="4.83161">
        <ele>234.68668</ele>
        <time>2021-03-18T11:22:40Z</time>
      </trkpt>
      <trkpt lat="45.56752" lon="4.83169">
        <ele>234.50237</ele>
        <time>2021-03-18T11:22:42Z</time>
      </trkpt>
      <trkpt lat="45.56754" lon="4.83176">
        <ele>233.71909</ele>
        <time>2021-03-18T11:22:44Z</time>
      </trkpt>
      <trkpt lat="45.56757" lon="4.83184">
        <ele>234.14912</ele>
        <time>2021-03-18T11:22:46Z</time>
      </trkpt>
      <trkpt lat="45.56759" lon="4.8319">
        <ele>233.18665</ele>
        <time>2021-03-18T11:22:48Z</time>
      </trkpt>
      <trkpt lat="45.56762" lon="4.83198">
        <ele>233.02281</ele>
        <time>2021-03-18T11:22:50Z</time>
      </trkpt>
      <trkpt lat="45.56764" lon="4.83205">
        <ele>232.66446</ele>
        <time>2021-03-18T11:22:52Z</time>
      </trkpt>
      <trkpt lat="45.56767" lon="4.83211">
        <ele>232.42383</ele>
        <time>2021-03-18T11:22:54Z</time>
      </trkpt>
      <trkpt lat="45.56771" lon="4.83216">
        <ele>231.80435</ele>
        <time>2021-03-18T11:22:56Z</time>
      </trkpt>
      <trkpt lat="45.56775" lon="4.8322">
        <ele>231.27704</ele>
        <time>2021-03-18T11:22:58Z</time>
      </trkpt>
      <trkpt lat="45.5678" lon="4.83224">
        <ele>230.55518</ele>
        <time>2021-03-18T11:23:00Z</time>
      </trkpt>
      <trkpt lat="45.56786" lon="4.83228">
        <ele>230.00227</ele>
        <time>2021-03-18T11:23:02Z</time>
      </trkpt>
      <trkpt lat="45.56791" lon="4.83231">
        <ele>229.74628</ele>
        <time>2021-03-18T11:23:04Z</time>
      </trkpt>
      <trkpt lat="45.56797" lon="4.83232">
        <ele>229.23944</ele>
        <time>2021-03-18T11:23:06Z</time>
      </trkpt>
      <trkpt lat="45.56803" lon="4.83235">
        <ele>229.16266</ele>
        <time>2021-03-18T11:23:08Z</time>
      </trkpt>
      <trkpt lat="45.56808" lon="4.83237">
        <ele>229.39815</ele>
        <time>2021-03-18T11:23:10Z</time>
      </trkpt>
      <trkpt lat="45.56812" lon="4.83239">
        <ele>229.62343</ele>
        <time>2021-03-18T11:23:12Z</time>
      </trkpt>
      <trkpt lat="45.56817" lon="4.83239">
        <ele>228.41008</ele>
        <time>2021-03-18T11:23:14Z</time>
      </trkpt>
      <trkpt lat="45.56824" lon="4.83238">
        <ele>228.39984</ele>
        <time>2021-03-18T11:23:17Z</time>
      </trkpt>
      <trkpt lat="45.5683" lon="4.83238">
        <ele>228.73773</ele>
        <time>2021-03-18T11:23:19Z</time>
      </trkpt>
      <trkpt lat="45.56835" lon="4.83237">
        <ele>228.79404</ele>
        <time>2021-03-18T11:23:21Z</time>
      </trkpt>
      <trkpt lat="45.56843" lon="4.83239">
        <ele>228.26672</ele>
        <time>2021-03-18T11:23:24Z</time>
      </trkpt>
      <trkpt lat="45.56849" lon="4.83241">
        <ele>228.37935</ele>
        <time>2021-03-18T11:23:26Z</time>
      </trkpt>
      <trkpt lat="45.56856" lon="4.83243">
        <ele>229.23433</ele>
        <time>2021-03-18T11:23:29Z</time>
      </trkpt>
      <trkpt lat="45.56861" lon="4.83245">
        <ele>229.33672</ele>
        <time>2021-03-18T11:23:31Z</time>
      </trkpt>
      <trkpt lat="45.56866" lon="4.83247">
        <ele>229.14731</ele>
        <time>2021-03-18T11:23:33Z</time>
      </trkpt>
      <trkpt lat="45.56873" lon="4.8325">
        <ele>229.38278</ele>
        <time>2021-03-18T11:23:35Z</time>
      </trkpt>
      <trkpt lat="45.56879" lon="4.83253">
        <ele>229.8026</ele>
        <time>2021-03-18T11:23:37Z</time>
      </trkpt>
      <trkpt lat="45.56886" lon="4.83256">
        <ele>228.9118</ele>
        <time>2021-03-18T11:23:39Z</time>
      </trkpt>
      <trkpt lat="45.5689" lon="4.83258">
        <ele>229.23944</ele>
        <time>2021-03-18T11:23:41Z</time>
      </trkpt>
      <trkpt lat="45.56894" lon="4.83263">
        <ele>228.78893</ele>
        <time>2021-03-18T11:23:44Z</time>
      </trkpt>
      <trkpt lat="45.56893" lon="4.83269">
        <ele>227.77013</ele>
        <time>2021-03-18T11:23:46Z</time>
      </trkpt>
      <trkpt lat="45.56889" lon="4.83277">
        <ele>227.02266</ele>
        <time>2021-03-18T11:23:49Z</time>
      </trkpt>
      <trkpt lat="45.56885" lon="4.83284">
        <ele>226.43391</ele>
        <time>2021-03-18T11:23:52Z</time>
      </trkpt>
      <trkpt lat="45.56881" lon="4.83289">
        <ele>225.82468</ele>
        <time>2021-03-18T11:23:54Z</time>
      </trkpt>
      <trkpt lat="45.56877" lon="4.83293">
        <ele>225.25128</ele>
        <time>2021-03-18T11:23:56Z</time>
      </trkpt>
      <trkpt lat="45.56873" lon="4.83297">
        <ele>225.00555</ele>
        <time>2021-03-18T11:23:58Z</time>
      </trkpt>
      <trkpt lat="45.56869" lon="4.83302">
        <ele>223.97652</ele>
        <time>2021-03-18T11:24:00Z</time>
      </trkpt>
      <trkpt lat="45.56864" lon="4.83305">
        <ele>223.57207</ele>
        <time>2021-03-18T11:24:02Z</time>
      </trkpt>
      <trkpt lat="45.56858" lon="4.83309">
        <ele>222.28706</ele>
        <time>2021-03-18T11:24:05Z</time>
      </trkpt>
      <trkpt lat="45.56853" lon="4.83313">
        <ele>221.3604</ele>
        <time>2021-03-18T11:24:08Z</time>
      </trkpt>
      <trkpt lat="45.56849" lon="4.83317">
        <ele>220.98668</ele>
        <time>2021-03-18T11:24:10Z</time>
      </trkpt>
      <trkpt lat="45.56845" lon="4.83323">
        <ele>220.44913</ele>
        <time>2021-03-18T11:24:12Z</time>
      </trkpt>
      <trkpt lat="45.5684" lon="4.83326">
        <ele>219.54808</ele>
        <time>2021-03-18T11:24:14Z</time>
      </trkpt>
      <trkpt lat="45.56834" lon="4.83333">
        <ele>219.14363</ele>
        <time>2021-03-18T11:24:17Z</time>
      </trkpt>
      <trkpt lat="45.56828" lon="4.83337">
        <ele>218.45248</ele>
        <time>2021-03-18T11:24:20Z</time>
      </trkpt>
      <trkpt lat="45.56821" lon="4.83343">
        <ele>218.02757</ele>
        <time>2021-03-18T11:24:22Z</time>
      </trkpt>
      <trkpt lat="45.56816" lon="4.8335">
        <ele>217.5924</ele>
        <time>2021-03-18T11:24:24Z</time>
      </trkpt>
      <trkpt lat="45.56812" lon="4.83355">
        <ele>217.82278</ele>
        <time>2021-03-18T11:24:25Z</time>
      </trkpt>
      <trkpt lat="45.5681" lon="4.83362">
        <ele>217.44905</ele>
        <time>2021-03-18T11:24:27Z</time>
      </trkpt>
      <trkpt lat="45.56812" lon="4.83372">
        <ele>218.06853</ele>
        <time>2021-03-18T11:24:30Z</time>
      </trkpt>
      <trkpt lat="45.56815" lon="4.83378">
        <ele>217.99686</ele>
        <time>2021-03-18T11:24:32Z</time>
      </trkpt>
      <trkpt lat="45.56818" lon="4.83383">
        <ele>218.0378</ele>
        <time>2021-03-18T11:24:34Z</time>
      </trkpt>
      <trkpt lat="45.56822" lon="4.83388">
        <ele>218.46785</ele>
        <time>2021-03-18T11:24:36Z</time>
      </trkpt>
      <trkpt lat="45.56828" lon="4.83393">
        <ele>218.54976</ele>
        <time>2021-03-18T11:24:38Z</time>
      </trkpt>
      <trkpt lat="45.56833" lon="4.83398">
        <ele>218.93884</ele>
        <time>2021-03-18T11:24:40Z</time>
      </trkpt>
      <trkpt lat="45.56839" lon="4.83404">
        <ele>219.32283</ele>
        <time>2021-03-18T11:24:42Z</time>
      </trkpt>
      <trkpt lat="45.56843" lon="4.83409">
        <ele>218.60097</ele>
        <time>2021-03-18T11:24:44Z</time>
      </trkpt>
      <trkpt lat="45.56846" lon="4.83416">
        <ele>218.17603</ele>
        <time>2021-03-18T11:24:46Z</time>
      </trkpt>
      <trkpt lat="45.56848" lon="4.83423">
        <ele>217.78183</ele>
        <time>2021-03-18T11:24:48Z</time>
      </trkpt>
      <trkpt lat="45.56851" lon="4.8343">
        <ele>217.5924</ele>
        <time>2021-03-18T11:24:50Z</time>
      </trkpt>
      <trkpt lat="45.56852" lon="4.83438">
        <ele>217.60263</ele>
        <time>2021-03-18T11:24:52Z</time>
      </trkpt>
      <trkpt lat="45.56852" lon="4.83446">
        <ele>217.66408</ele>
        <time>2021-03-18T11:24:54Z</time>
      </trkpt>
      <trkpt lat="45.56851" lon="4.83453">
        <ele>217.8535</ele>
        <time>2021-03-18T11:24:56Z</time>
      </trkpt>
      <trkpt lat="45.5685" lon="4.83461">
        <ele>217.6436</ele>
        <time>2021-03-18T11:24:58Z</time>
      </trkpt>
      <trkpt lat="45.56849" lon="4.83469">
        <ele>217.53096</ele>
        <time>2021-03-18T11:25:00Z</time>
      </trkpt>
      <trkpt lat="45.56849" lon="4.83478">
        <ele>217.4849</ele>
        <time>2021-03-18T11:25:02Z</time>
      </trkpt>
      <trkpt lat="45.56849" lon="4.83487">
        <ele>216.9371</ele>
        <time>2021-03-18T11:25:04Z</time>
      </trkpt>
      <trkpt lat="45.56847" lon="4.83496">
        <ele>216.16403</ele>
        <time>2021-03-18T11:25:06Z</time>
      </trkpt>
      <trkpt lat="45.56846" lon="4.83502">
        <ele>215.64185</ele>
        <time>2021-03-18T11:25:08Z</time>
      </trkpt>
      <trkpt lat="45.56845" lon="4.83509">
        <ele>215.24762</ele>
        <time>2021-03-18T11:25:10Z</time>
      </trkpt>
      <trkpt lat="45.56843" lon="4.83517">
        <ele>215.19644</ele>
        <time>2021-03-18T11:25:12Z</time>
      </trkpt>
      <trkpt lat="45.56841" lon="4.83523">
        <ele>215.14012</ele>
        <time>2021-03-18T11:25:14Z</time>
      </trkpt>
      <trkpt lat="45.56839" lon="4.8353">
        <ele>214.94044</ele>
        <time>2021-03-18T11:25:16Z</time>
      </trkpt>
      <trkpt lat="45.56837" lon="4.83536">
        <ele>214.64865</ele>
        <time>2021-03-18T11:25:18Z</time>
      </trkpt>
      <trkpt lat="45.56834" lon="4.83542">
        <ele>214.48993</ele>
        <time>2021-03-18T11:25:20Z</time>
      </trkpt>
      <trkpt lat="45.56831" lon="4.8355">
        <ele>214.12132</ele>
        <time>2021-03-18T11:25:23Z</time>
      </trkpt>
      <trkpt lat="45.56828" lon="4.83557">
        <ele>213.9063</ele>
        <time>2021-03-18T11:25:25Z</time>
      </trkpt>
      <trkpt lat="45.56824" lon="4.83563">
        <ele>213.50185</ele>
        <time>2021-03-18T11:25:27Z</time>
      </trkpt>
      <trkpt lat="45.56821" lon="4.83568">
        <ele>213.15373</ele>
        <time>2021-03-18T11:25:29Z</time>
      </trkpt>
      <trkpt lat="45.56817" lon="4.83575">
        <ele>212.89774</ele>
        <time>2021-03-18T11:25:31Z</time>
      </trkpt>
      <trkpt lat="45.56813" lon="4.83583">
        <ele>213.16908</ele>
        <time>2021-03-18T11:25:33Z</time>
      </trkpt>
      <trkpt lat="45.56812" lon="4.83589">
        <ele>212.58545</ele>
        <time>2021-03-18T11:25:35Z</time>
      </trkpt>
      <trkpt lat="45.56811" lon="4.83597">
        <ele>212.85678</ele>
        <time>2021-03-18T11:25:37Z</time>
      </trkpt>
      <trkpt lat="45.56809" lon="4.83605">
        <ele>212.87215</ele>
        <time>2021-03-18T11:25:39Z</time>
      </trkpt>
      <trkpt lat="45.56808" lon="4.83613">
        <ele>212.49843</ele>
        <time>2021-03-18T11:25:41Z</time>
      </trkpt>
      <trkpt lat="45.56809" lon="4.83622">
        <ele>212.99501</ele>
        <time>2021-03-18T11:25:43Z</time>
      </trkpt>
      <trkpt lat="45.5681" lon="4.83629">
        <ele>212.43698</ele>
        <time>2021-03-18T11:25:45Z</time>
      </trkpt>
      <trkpt lat="45.56812" lon="4.83636">
        <ele>212.65712</ele>
        <time>2021-03-18T11:25:47Z</time>
      </trkpt>
      <trkpt lat="45.56812" lon="4.83642">
        <ele>213.38411</ele>
        <time>2021-03-18T11:25:49Z</time>
      </trkpt>
      <trkpt lat="45.56814" lon="4.83649">
        <ele>213.50697</ele>
        <time>2021-03-18T11:25:51Z</time>
      </trkpt>
      <trkpt lat="45.56817" lon="4.83656">
        <ele>213.58377</ele>
        <time>2021-03-18T11:25:53Z</time>
      </trkpt>
      <trkpt lat="45.56819" lon="4.83664">
        <ele>215.12988</ele>
        <time>2021-03-18T11:25:56Z</time>
      </trkpt>
      <trkpt lat="45.56821" lon="4.8367">
        <ele>216.56337</ele>
        <time>2021-03-18T11:25:59Z</time>
      </trkpt>
      <trkpt lat="45.56824" lon="4.83679">
        <ele>217.63335</ele>
        <time>2021-03-18T11:26:02Z</time>
      </trkpt>
      <trkpt lat="45.56827" lon="4.83683">
        <ele>217.98148</ele>
        <time>2021-03-18T11:26:04Z</time>
      </trkpt>
      <trkpt lat="45.5683" lon="4.8369">
        <ele>219.18971</ele>
        <time>2021-03-18T11:26:07Z</time>
      </trkpt>
      <trkpt lat="45.56833" lon="4.83695">
        <ele>220.47984</ele>
        <time>2021-03-18T11:26:10Z</time>
      </trkpt>
      <trkpt lat="45.56837" lon="4.83701">
        <ele>221.46793</ele>
        <time>2021-03-18T11:26:13Z</time>
      </trkpt>
      <trkpt lat="45.56841" lon="4.83707">
        <ele>222.82973</ele>
        <time>2021-03-18T11:26:17Z</time>
      </trkpt>
      <trkpt lat="45.56845" lon="4.83712">
        <ele>224.13011</ele>
        <time>2021-03-18T11:26:20Z</time>
      </trkpt>
      <trkpt lat="45.56849" lon="4.83716">
        <ele>225.15915</ele>
        <time>2021-03-18T11:26:23Z</time>
      </trkpt>
      <trkpt lat="45.56854" lon="4.8372">
        <ele>225.89124</ele>
        <time>2021-03-18T11:26:25Z</time>
      </trkpt>
      <trkpt lat="45.56858" lon="4.83722">
        <ele>226.60797</ele>
        <time>2021-03-18T11:26:27Z</time>
      </trkpt>
      <trkpt lat="45.56864" lon="4.83724">
        <ele>227.0022</ele>
        <time>2021-03-18T11:26:30Z</time>
      </trkpt>
      <trkpt lat="45.56869" lon="4.83726">
        <ele>227.56023</ele>
        <time>2021-03-18T11:26:33Z</time>
      </trkpt>
      <trkpt lat="45.56869" lon="4.83734">
        <ele>228.17458</ele>
        <time>2021-03-18T11:26:37Z</time>
      </trkpt>
      <trkpt lat="45.56867" lon="4.83742">
        <ele>228.41008</ele>
        <time>2021-03-18T11:26:39Z</time>
      </trkpt>
      <trkpt lat="45.56866" lon="4.83749">
        <ele>228.82988</ele>
        <time>2021-03-18T11:26:41Z</time>
      </trkpt>
      <trkpt lat="45.56866" lon="4.83756">
        <ele>229.40327</ele>
        <time>2021-03-18T11:26:43Z</time>
      </trkpt>
      <trkpt lat="45.56867" lon="4.83765">
        <ele>229.62854</ele>
        <time>2021-03-18T11:26:46Z</time>
      </trkpt>
      <trkpt lat="45.56868" lon="4.83774">
        <ele>230.15585</ele>
        <time>2021-03-18T11:26:49Z</time>
      </trkpt>
      <trkpt lat="45.56867" lon="4.83783">
        <ele>231.18488</ele>
        <time>2021-03-18T11:26:52Z</time>
      </trkpt>
      <trkpt lat="45.56868" lon="4.8379">
        <ele>232.35214</ele>
        <time>2021-03-18T11:26:54Z</time>
      </trkpt>
      <trkpt lat="45.56868" lon="4.83798">
        <ele>231.94258</ele>
        <time>2021-03-18T11:26:56Z</time>
      </trkpt>
      <trkpt lat="45.56869" lon="4.83805">
        <ele>232.76685</ele>
        <time>2021-03-18T11:26:58Z</time>
      </trkpt>
      <trkpt lat="45.5687" lon="4.83813">
        <ele>233.21736</ele>
        <time>2021-03-18T11:27:00Z</time>
      </trkpt>
      <trkpt lat="45.56871" lon="4.83819">
        <ele>233.1508</ele>
        <time>2021-03-18T11:27:02Z</time>
      </trkpt>
      <trkpt lat="45.56872" lon="4.83826">
        <ele>233.76515</ele>
        <time>2021-03-18T11:27:04Z</time>
      </trkpt>
      <trkpt lat="45.56873" lon="4.83835">
        <ele>234.19519</ele>
        <time>2021-03-18T11:27:07Z</time>
      </trkpt>
      <trkpt lat="45.56875" lon="4.83842">
        <ele>234.67645</ele>
        <time>2021-03-18T11:27:09Z</time>
      </trkpt>
      <trkpt lat="45.56876" lon="4.83849">
        <ele>234.98874</ele>
        <time>2021-03-18T11:27:11Z</time>
      </trkpt>
      <trkpt lat="45.56877" lon="4.83858">
        <ele>235.6338</ele>
        <time>2021-03-18T11:27:14Z</time>
      </trkpt>
      <trkpt lat="45.56878" lon="4.83865">
        <ele>235.90515</ele>
        <time>2021-03-18T11:27:16Z</time>
      </trkpt>
      <trkpt lat="45.56879" lon="4.83873">
        <ele>235.87444</ele>
        <time>2021-03-18T11:27:18Z</time>
      </trkpt>
      <trkpt lat="45.5688" lon="4.83881">
        <ele>236.09969</ele>
        <time>2021-03-18T11:27:20Z</time>
      </trkpt>
      <trkpt lat="45.56881" lon="4.83891">
        <ele>236.81131</ele>
        <time>2021-03-18T11:27:23Z</time>
      </trkpt>
      <trkpt lat="45.56881" lon="4.83898">
        <ele>236.94441</ele>
        <time>2021-03-18T11:27:25Z</time>
      </trkpt>
      <trkpt lat="45.56881" lon="4.83905">
        <ele>237.3079</ele>
        <time>2021-03-18T11:27:27Z</time>
      </trkpt>
      <trkpt lat="45.56881" lon="4.83912">
        <ele>238.12193</ele>
        <time>2021-03-18T11:27:29Z</time>
      </trkpt>
      <trkpt lat="45.56882" lon="4.83919">
        <ele>238.19872</ele>
        <time>2021-03-18T11:27:31Z</time>
      </trkpt>
      <trkpt lat="45.56882" lon="4.83925">
        <ele>238.85913</ele>
        <time>2021-03-18T11:27:33Z</time>
      </trkpt>
      <trkpt lat="45.56881" lon="4.83933">
        <ele>238.66458</ele>
        <time>2021-03-18T11:27:35Z</time>
      </trkpt>
      <trkpt lat="45.56881" lon="4.83941">
        <ele>238.9308</ele>
        <time>2021-03-18T11:27:37Z</time>
      </trkpt>
      <trkpt lat="45.5688" lon="4.83949">
        <ele>239.61684</ele>
        <time>2021-03-18T11:27:39Z</time>
      </trkpt>
      <trkpt lat="45.56879" lon="4.83956">
        <ele>240.06737</ele>
        <time>2021-03-18T11:27:41Z</time>
      </trkpt>
      <trkpt lat="45.56878" lon="4.83963">
        <ele>240.09807</ele>
        <time>2021-03-18T11:27:43Z</time>
      </trkpt>
      <trkpt lat="45.56877" lon="4.83971">
        <ele>240.2875</ele>
        <time>2021-03-18T11:27:45Z</time>
      </trkpt>
      <trkpt lat="45.56875" lon="4.83978">
        <ele>240.57933</ele>
        <time>2021-03-18T11:27:47Z</time>
      </trkpt>
      <trkpt lat="45.56873" lon="4.83984">
        <ele>240.43085</ele>
        <time>2021-03-18T11:27:49Z</time>
      </trkpt>
      <trkpt lat="45.56871" lon="4.8399">
        <ele>240.37965</ele>
        <time>2021-03-18T11:27:51Z</time>
      </trkpt>
      <trkpt lat="45.56868" lon="4.83998">
        <ele>240.38478</ele>
        <time>2021-03-18T11:27:54Z</time>
      </trkpt>
      <trkpt lat="45.56865" lon="4.84004">
        <ele>241.2551</ele>
        <time>2021-03-18T11:27:56Z</time>
      </trkpt>
      <trkpt lat="45.56862" lon="4.8401">
        <ele>241.36774</ele>
        <time>2021-03-18T11:27:58Z</time>
      </trkpt>
      <trkpt lat="45.56859" lon="4.84017">
        <ele>241.12712</ele>
        <time>2021-03-18T11:28:00Z</time>
      </trkpt>
      <trkpt lat="45.56856" lon="4.84024">
        <ele>241.4394</ele>
        <time>2021-03-18T11:28:02Z</time>
      </trkpt>
      <trkpt lat="45.56853" lon="4.84031">
        <ele>241.39845</ele>
        <time>2021-03-18T11:28:04Z</time>
      </trkpt>
      <trkpt lat="45.5685" lon="4.84036">
        <ele>241.26535</ele>
        <time>2021-03-18T11:28:06Z</time>
      </trkpt>
      <trkpt lat="45.56846" lon="4.84041">
        <ele>241.93088</ele>
        <time>2021-03-18T11:28:08Z</time>
      </trkpt>
      <trkpt lat="45.56842" lon="4.84046">
        <ele>241.93088</ele>
        <time>2021-03-18T11:28:10Z</time>
      </trkpt>
      <trkpt lat="45.56838" lon="4.8405">
        <ele>241.34726</ele>
        <time>2021-03-18T11:28:12Z</time>
      </trkpt>
      <trkpt lat="45.56834" lon="4.84056">
        <ele>241.90527</ele>
        <time>2021-03-18T11:28:14Z</time>
      </trkpt>
      <trkpt lat="45.5683" lon="4.84063">
        <ele>241.8797</ele>
        <time>2021-03-18T11:28:17Z</time>
      </trkpt>
      <trkpt lat="45.56826" lon="4.84068">
        <ele>241.79778</ele>
        <time>2021-03-18T11:28:19Z</time>
      </trkpt>
      <trkpt lat="45.56823" lon="4.84075">
        <ele>241.78242</ele>
        <time>2021-03-18T11:28:21Z</time>
      </trkpt>
      <trkpt lat="45.56819" lon="4.84082">
        <ele>242.16638</ele>
        <time>2021-03-18T11:28:23Z</time>
      </trkpt>
      <trkpt lat="45.56816" lon="4.84088">
        <ele>242.39165</ele>
        <time>2021-03-18T11:28:25Z</time>
      </trkpt>
      <trkpt lat="45.56812" lon="4.84096">
        <ele>242.39677</ele>
        <time>2021-03-18T11:28:27Z</time>
      </trkpt>
      <trkpt lat="45.56809" lon="4.84103">
        <ele>242.59644</ele>
        <time>2021-03-18T11:28:29Z</time>
      </trkpt>
      <trkpt lat="45.56806" lon="4.84108">
        <ele>242.50427</ele>
        <time>2021-03-18T11:28:31Z</time>
      </trkpt>
      <trkpt lat="45.56802" lon="4.84114">
        <ele>242.98552</ele>
        <time>2021-03-18T11:28:33Z</time>
      </trkpt>
      <trkpt lat="45.56799" lon="4.84122">
        <ele>243.24663</ele>
        <time>2021-03-18T11:28:35Z</time>
      </trkpt>
      <trkpt lat="45.56797" lon="4.84128">
        <ele>243.2722</ele>
        <time>2021-03-18T11:28:37Z</time>
      </trkpt>
      <trkpt lat="45.56794" lon="4.84135">
        <ele>243.38486</ele>
        <time>2021-03-18T11:28:39Z</time>
      </trkpt>
      <trkpt lat="45.56792" lon="4.84143">
        <ele>243.21591</ele>
        <time>2021-03-18T11:28:41Z</time>
      </trkpt>
      <trkpt lat="45.5679" lon="4.8415">
        <ele>242.86264</ele>
        <time>2021-03-18T11:28:43Z</time>
      </trkpt>
      <trkpt lat="45.56788" lon="4.84158">
        <ele>243.59476</ele>
        <time>2021-03-18T11:28:45Z</time>
      </trkpt>
      <trkpt lat="45.56786" lon="4.84165">
        <ele>243.8968</ele>
        <time>2021-03-18T11:28:47Z</time>
      </trkpt>
      <trkpt lat="45.56784" lon="4.84171">
        <ele>243.9736</ele>
        <time>2021-03-18T11:28:49Z</time>
      </trkpt>
      <trkpt lat="45.56782" lon="4.84179">
        <ele>243.948</ele>
        <time>2021-03-18T11:28:51Z</time>
      </trkpt>
      <trkpt lat="45.5678" lon="4.84186">
        <ele>244.01967</ele>
        <time>2021-03-18T11:28:53Z</time>
      </trkpt>
      <trkpt lat="45.56778" lon="4.84194">
        <ele>244.27565</ele>
        <time>2021-03-18T11:28:55Z</time>
      </trkpt>
      <trkpt lat="45.56776" lon="4.842">
        <ele>244.41388</ele>
        <time>2021-03-18T11:28:57Z</time>
      </trkpt>
      <trkpt lat="45.56774" lon="4.84207">
        <ele>244.9924</ele>
        <time>2021-03-18T11:28:59Z</time>
      </trkpt>
      <trkpt lat="45.56772" lon="4.84215">
        <ele>244.93095</ele>
        <time>2021-03-18T11:29:01Z</time>
      </trkpt>
      <trkpt lat="45.56769" lon="4.8422">
        <ele>245.37125</ele>
        <time>2021-03-18T11:29:03Z</time>
      </trkpt>
      <trkpt lat="45.56765" lon="4.84226">
        <ele>244.99751</ele>
        <time>2021-03-18T11:29:05Z</time>
      </trkpt>
      <trkpt lat="45.56761" lon="4.84232">
        <ele>245.32004</ele>
        <time>2021-03-18T11:29:07Z</time>
      </trkpt>
      <trkpt lat="45.56759" lon="4.84238">
        <ele>245.78593</ele>
        <time>2021-03-18T11:29:09Z</time>
      </trkpt>
      <trkpt lat="45.56755" lon="4.84244">
        <ele>246.10847</ele>
        <time>2021-03-18T11:29:11Z</time>
      </trkpt>
      <trkpt lat="45.56752" lon="4.8425">
        <ele>246.63066</ele>
        <time>2021-03-18T11:29:13Z</time>
      </trkpt>
      <trkpt lat="45.56749" lon="4.84255">
        <ele>246.77913</ele>
        <time>2021-03-18T11:29:15Z</time>
      </trkpt>
      <trkpt lat="45.56745" lon="4.84261">
        <ele>247.10678</ele>
        <time>2021-03-18T11:29:17Z</time>
      </trkpt>
      <trkpt lat="45.56741" lon="4.84269">
        <ele>247.70576</ele>
        <time>2021-03-18T11:29:20Z</time>
      </trkpt>
      <trkpt lat="45.56738" lon="4.84274">
        <ele>248.06926</ele>
        <time>2021-03-18T11:29:22Z</time>
      </trkpt>
      <trkpt lat="45.56735" lon="4.84279">
        <ele>248.57098</ele>
        <time>2021-03-18T11:29:24Z</time>
      </trkpt>
      <trkpt lat="45.56731" lon="4.84284">
        <ele>248.6017</ele>
        <time>2021-03-18T11:29:26Z</time>
      </trkpt>
      <trkpt lat="45.56728" lon="4.8429">
        <ele>249.34915</ele>
        <time>2021-03-18T11:29:28Z</time>
      </trkpt>
      <trkpt lat="45.56724" lon="4.84296">
        <ele>249.73825</ele>
        <time>2021-03-18T11:29:30Z</time>
      </trkpt>
      <trkpt lat="45.56721" lon="4.84302">
        <ele>249.60513</ele>
        <time>2021-03-18T11:29:32Z</time>
      </trkpt>
      <trkpt lat="45.56718" lon="4.84307">
        <ele>249.65633</ele>
        <time>2021-03-18T11:29:34Z</time>
      </trkpt>
      <trkpt lat="45.56714" lon="4.84314">
        <ele>250.14781</ele>
        <time>2021-03-18T11:29:36Z</time>
      </trkpt>
      <trkpt lat="45.56711" lon="4.8432">
        <ele>250.68538</ele>
        <time>2021-03-18T11:29:38Z</time>
      </trkpt>
      <trkpt lat="45.56707" lon="4.84326">
        <ele>250.1171</ele>
        <time>2021-03-18T11:29:40Z</time>
      </trkpt>
      <trkpt lat="45.56703" lon="4.84332">
        <ele>250.34236</ele>
        <time>2021-03-18T11:29:42Z</time>
      </trkpt>
      <trkpt lat="45.567" lon="4.84338">
        <ele>250.83896</ele>
        <time>2021-03-18T11:29:44Z</time>
      </trkpt>
      <trkpt lat="45.56696" lon="4.84344">
        <ele>251.41235</ele>
        <time>2021-03-18T11:29:46Z</time>
      </trkpt>
      <trkpt lat="45.56693" lon="4.8435">
        <ele>251.80655</ele>
        <time>2021-03-18T11:29:48Z</time>
      </trkpt>
      <trkpt lat="45.56689" lon="4.84356">
        <ele>252.01646</ele>
        <time>2021-03-18T11:29:50Z</time>
      </trkpt>
      <trkpt lat="45.56685" lon="4.84362">
        <ele>251.76048</ele>
        <time>2021-03-18T11:29:52Z</time>
      </trkpt>
      <trkpt lat="45.56682" lon="4.84368">
        <ele>252.46698</ele>
        <time>2021-03-18T11:29:54Z</time>
      </trkpt>
      <trkpt lat="45.56678" lon="4.84374">
        <ele>252.11885</ele>
        <time>2021-03-18T11:29:56Z</time>
      </trkpt>
      <trkpt lat="45.56675" lon="4.8438">
        <ele>252.41579</ele>
        <time>2021-03-18T11:29:58Z</time>
      </trkpt>
      <trkpt lat="45.56672" lon="4.84385">
        <ele>252.60521</ele>
        <time>2021-03-18T11:30:00Z</time>
      </trkpt>
      <trkpt lat="45.56668" lon="4.84391">
        <ele>252.83046</ele>
        <time>2021-03-18T11:30:02Z</time>
      </trkpt>
      <trkpt lat="45.56665" lon="4.84397">
        <ele>253.0455</ele>
        <time>2021-03-18T11:30:04Z</time>
      </trkpt>
      <trkpt lat="45.56661" lon="4.84403">
        <ele>252.81</ele>
        <time>2021-03-18T11:30:06Z</time>
      </trkpt>
      <trkpt lat="45.56657" lon="4.84409">
        <ele>252.58473</ele>
        <time>2021-03-18T11:30:08Z</time>
      </trkpt>
      <trkpt lat="45.56653" lon="4.84414">
        <ele>252.4721</ele>
        <time>2021-03-18T11:30:10Z</time>
      </trkpt>
      <trkpt lat="45.56649" lon="4.8442">
        <ele>252.9943</ele>
        <time>2021-03-18T11:30:12Z</time>
      </trkpt>
      <trkpt lat="45.56645" lon="4.84425">
        <ele>253.1786</ele>
        <time>2021-03-18T11:30:14Z</time>
      </trkpt>
      <trkpt lat="45.56643" lon="4.8443">
        <ele>252.55913</ele>
        <time>2021-03-18T11:30:16Z</time>
      </trkpt>
      <trkpt lat="45.5664" lon="4.84436">
        <ele>253.09668</ele>
        <time>2021-03-18T11:30:18Z</time>
      </trkpt>
      <trkpt lat="45.56635" lon="4.84442">
        <ele>253.58304</ele>
        <time>2021-03-18T11:30:20Z</time>
      </trkpt>
      <trkpt lat="45.56632" lon="4.84447">
        <ele>253.1018</ele>
        <time>2021-03-18T11:30:22Z</time>
      </trkpt>
      <trkpt lat="45.56629" lon="4.84453">
        <ele>253.52673</ele>
        <time>2021-03-18T11:30:24Z</time>
      </trkpt>
      <trkpt lat="45.56626" lon="4.84459">
        <ele>253.86462</ele>
        <time>2021-03-18T11:30:26Z</time>
      </trkpt>
      <trkpt lat="45.56623" lon="4.84465">
        <ele>253.32707</ele>
        <time>2021-03-18T11:30:28Z</time>
      </trkpt>
      <trkpt lat="45.56619" lon="4.84471">
        <ele>253.51137</ele>
        <time>2021-03-18T11:30:30Z</time>
      </trkpt>
      <trkpt lat="45.56615" lon="4.84478">
        <ele>253.9107</ele>
        <time>2021-03-18T11:30:32Z</time>
      </trkpt>
      <trkpt lat="45.56612" lon="4.84484">
        <ele>254.19739</ele>
        <time>2021-03-18T11:30:34Z</time>
      </trkpt>
      <trkpt lat="45.56608" lon="4.84491">
        <ele>254.54553</ele>
        <time>2021-03-18T11:30:36Z</time>
      </trkpt>
      <trkpt lat="45.56605" lon="4.84498">
        <ele>254.0643</ele>
        <time>2021-03-18T11:30:38Z</time>
      </trkpt>
      <trkpt lat="45.56603" lon="4.84505">
        <ele>254.44826</ele>
        <time>2021-03-18T11:30:40Z</time>
      </trkpt>
      <trkpt lat="45.56601" lon="4.84512">
        <ele>254.71448</ele>
        <time>2021-03-18T11:30:42Z</time>
      </trkpt>
      <trkpt lat="45.56599" lon="4.84519">
        <ele>254.93462</ele>
        <time>2021-03-18T11:30:44Z</time>
      </trkpt>
      <trkpt lat="45.56597" lon="4.84526">
        <ele>254.38683</ele>
        <time>2021-03-18T11:30:46Z</time>
      </trkpt>
      <trkpt lat="45.56595" lon="4.84533">
        <ele>254.43289</ele>
        <time>2021-03-18T11:30:48Z</time>
      </trkpt>
      <trkpt lat="45.56593" lon="4.8454">
        <ele>255.00629</ele>
        <time>2021-03-18T11:30:50Z</time>
      </trkpt>
      <trkpt lat="45.5659" lon="4.84546">
        <ele>255.14963</ele>
        <time>2021-03-18T11:30:52Z</time>
      </trkpt>
      <trkpt lat="45.56588" lon="4.84553">
        <ele>255.15477</ele>
        <time>2021-03-18T11:30:54Z</time>
      </trkpt>
      <trkpt lat="45.56585" lon="4.8456">
        <ele>255.2725</ele>
        <time>2021-03-18T11:30:56Z</time>
      </trkpt>
      <trkpt lat="45.56583" lon="4.84567">
        <ele>255.76398</ele>
        <time>2021-03-18T11:30:58Z</time>
      </trkpt>
      <trkpt lat="45.56581" lon="4.84574">
        <ele>255.7384</ele>
        <time>2021-03-18T11:31:00Z</time>
      </trkpt>
      <trkpt lat="45.56579" lon="4.84581">
        <ele>256.37833</ele>
        <time>2021-03-18T11:31:02Z</time>
      </trkpt>
      <trkpt lat="45.56576" lon="4.84587">
        <ele>256.42953</ele>
        <time>2021-03-18T11:31:04Z</time>
      </trkpt>
      <trkpt lat="45.56573" lon="4.84593">
        <ele>256.235</ele>
        <time>2021-03-18T11:31:06Z</time>
      </trkpt>
      <trkpt lat="45.5657" lon="4.84599">
        <ele>256.40393</ele>
        <time>2021-03-18T11:31:08Z</time>
      </trkpt>
      <trkpt lat="45.56567" lon="4.84606">
        <ele>257.16162</ele>
        <time>2021-03-18T11:31:10Z</time>
      </trkpt>
      <trkpt lat="45.56566" lon="4.84613">
        <ele>257.61728</ele>
        <time>2021-03-18T11:31:12Z</time>
      </trkpt>
      <trkpt lat="45.56564" lon="4.8462">
        <ele>257.75552</ele>
        <time>2021-03-18T11:31:14Z</time>
      </trkpt>
      <trkpt lat="45.56562" lon="4.84627">
        <ele>257.71457</ele>
        <time>2021-03-18T11:31:16Z</time>
      </trkpt>
      <trkpt lat="45.56559" lon="4.84634">
        <ele>257.7043</ele>
        <time>2021-03-18T11:31:18Z</time>
      </trkpt>
      <trkpt lat="45.56557" lon="4.84641">
        <ele>258.19067</ele>
        <time>2021-03-18T11:31:20Z</time>
      </trkpt>
      <trkpt lat="45.56555" lon="4.84649">
        <ele>257.77597</ele>
        <time>2021-03-18T11:31:22Z</time>
      </trkpt>
      <trkpt lat="45.56553" lon="4.84656">
        <ele>258.27258</ele>
        <time>2021-03-18T11:31:24Z</time>
      </trkpt>
      <trkpt lat="45.5655" lon="4.84664">
        <ele>258.41083</ele>
        <time>2021-03-18T11:31:26Z</time>
      </trkpt>
      <trkpt lat="45.56548" lon="4.84672">
        <ele>258.89206</ele>
        <time>2021-03-18T11:31:28Z</time>
      </trkpt>
      <trkpt lat="45.56546" lon="4.8468">
        <ele>259.28113</ele>
        <time>2021-03-18T11:31:30Z</time>
      </trkpt>
      <trkpt lat="45.56543" lon="4.84687">
        <ele>259.7061</ele>
        <time>2021-03-18T11:31:32Z</time>
      </trkpt>
      <trkpt lat="45.56541" lon="4.84695">
        <ele>260.37674</ele>
        <time>2021-03-18T11:31:34Z</time>
      </trkpt>
      <trkpt lat="45.56541" lon="4.84704">
        <ele>260.43304</ele>
        <time>2021-03-18T11:31:36Z</time>
      </trkpt>
      <trkpt lat="45.56538" lon="4.84712">
        <ele>261.66174</ele>
        <time>2021-03-18T11:31:38Z</time>
      </trkpt>
      <trkpt lat="45.56535" lon="4.84719">
        <ele>261.57983</ele>
        <time>2021-03-18T11:31:40Z</time>
      </trkpt>
      <trkpt lat="45.56533" lon="4.84726">
        <ele>262.24536</ele>
        <time>2021-03-18T11:31:42Z</time>
      </trkpt>
      <trkpt lat="45.56531" lon="4.84733">
        <ele>262.18393</ele>
        <time>2021-03-18T11:31:44Z</time>
      </trkpt>
      <trkpt lat="45.56529" lon="4.84739">
        <ele>263.2488</ele>
        <time>2021-03-18T11:31:46Z</time>
      </trkpt>
      <trkpt lat="45.56527" lon="4.84745">
        <ele>262.94165</ele>
        <time>2021-03-18T11:31:48Z</time>
      </trkpt>
      <trkpt lat="45.56525" lon="4.84753">
        <ele>263.41776</ele>
        <time>2021-03-18T11:31:50Z</time>
      </trkpt>
      <trkpt lat="45.56522" lon="4.84761">
        <ele>262.7727</ele>
        <time>2021-03-18T11:31:52Z</time>
      </trkpt>
      <trkpt lat="45.5652" lon="4.8477">
        <ele>263.1925</ele>
        <time>2021-03-18T11:31:54Z</time>
      </trkpt>
      <trkpt lat="45.56517" lon="4.84777">
        <ele>263.4587</ele>
        <time>2021-03-18T11:31:56Z</time>
      </trkpt>
      <trkpt lat="45.56514" lon="4.84785">
        <ele>263.76077</ele>
        <time>2021-03-18T11:31:58Z</time>
      </trkpt>
      <trkpt lat="45.56512" lon="4.84792">
        <ele>263.7659</ele>
        <time>2021-03-18T11:32:00Z</time>
      </trkpt>
      <trkpt lat="45.5651" lon="4.84799">
        <ele>263.88364</ele>
        <time>2021-03-18T11:32:02Z</time>
      </trkpt>
      <trkpt lat="45.56508" lon="4.84806">
        <ele>264.24203</ele>
        <time>2021-03-18T11:32:04Z</time>
      </trkpt>
      <trkpt lat="45.56505" lon="4.84813">
        <ele>264.77957</ele>
        <time>2021-03-18T11:32:06Z</time>
      </trkpt>
      <trkpt lat="45.56503" lon="4.84821">
        <ele>263.5048</ele>
        <time>2021-03-18T11:32:08Z</time>
      </trkpt>
      <trkpt lat="45.56501" lon="4.84828">
        <ele>263.9041</ele>
        <time>2021-03-18T11:32:10Z</time>
      </trkpt>
      <trkpt lat="45.56498" lon="4.84836">
        <ele>264.56967</ele>
        <time>2021-03-18T11:32:12Z</time>
      </trkpt>
      <trkpt lat="45.56496" lon="4.84844">
        <ele>264.8973</ele>
        <time>2021-03-18T11:32:14Z</time>
      </trkpt>
      <trkpt lat="45.56495" lon="4.84852">
        <ele>265.11234</ele>
        <time>2021-03-18T11:32:16Z</time>
      </trkpt>
      <trkpt lat="45.56494" lon="4.84861">
        <ele>264.97922</ele>
        <time>2021-03-18T11:32:18Z</time>
      </trkpt>
      <trkpt lat="45.56493" lon="4.8487">
        <ele>264.61063</ele>
        <time>2021-03-18T11:32:20Z</time>
      </trkpt>
      <trkpt lat="45.56493" lon="4.84878">
        <ele>264.82565</ele>
        <time>2021-03-18T11:32:22Z</time>
      </trkpt>
      <trkpt lat="45.56492" lon="4.84888">
        <ele>264.91266</ele>
        <time>2021-03-18T11:32:24Z</time>
      </trkpt>
      <trkpt lat="45.56492" lon="4.84896">
        <ele>264.69254</ele>
        <time>2021-03-18T11:32:26Z</time>
      </trkpt>
      <trkpt lat="45.56493" lon="4.84904">
        <ele>264.2369</ele>
        <time>2021-03-18T11:32:28Z</time>
      </trkpt>
      <trkpt lat="45.56493" lon="4.84912">
        <ele>264.02188</ele>
        <time>2021-03-18T11:32:30Z</time>
      </trkpt>
      <trkpt lat="45.56493" lon="4.8492">
        <ele>264.14474</ele>
        <time>2021-03-18T11:32:32Z</time>
      </trkpt>
      <trkpt lat="45.56494" lon="4.84929">
        <ele>264.03723</ele>
        <time>2021-03-18T11:32:34Z</time>
      </trkpt>
      <trkpt lat="45.56495" lon="4.84937">
        <ele>263.95532</ele>
        <time>2021-03-18T11:32:36Z</time>
      </trkpt>
      <trkpt lat="45.56496" lon="4.84945">
        <ele>263.2232</ele>
        <time>2021-03-18T11:32:38Z</time>
      </trkpt>
      <trkpt lat="45.56496" lon="4.84954">
        <ele>263.4792</ele>
        <time>2021-03-18T11:32:40Z</time>
      </trkpt>
      <trkpt lat="45.56496" lon="4.84963">
        <ele>263.49966</ele>
        <time>2021-03-18T11:32:42Z</time>
      </trkpt>
      <trkpt lat="45.56496" lon="4.84971">
        <ele>262.81876</ele>
        <time>2021-03-18T11:32:44Z</time>
      </trkpt>
      <trkpt lat="45.56497" lon="4.8498">
        <ele>262.486</ele>
        <time>2021-03-18T11:32:46Z</time>
      </trkpt>
      <trkpt lat="45.56497" lon="4.84989">
        <ele>262.35287</ele>
        <time>2021-03-18T11:32:48Z</time>
      </trkpt>
      <trkpt lat="45.56497" lon="4.84996">
        <ele>262.63446</ele>
        <time>2021-03-18T11:32:50Z</time>
      </trkpt>
      <trkpt lat="45.56498" lon="4.85003">
        <ele>262.73688</ele>
        <time>2021-03-18T11:32:52Z</time>
      </trkpt>
      <trkpt lat="45.56499" lon="4.85012">
        <ele>262.53207</ele>
        <time>2021-03-18T11:32:54Z</time>
      </trkpt>
      <trkpt lat="45.56499" lon="4.85019">
        <ele>262.29657</ele>
        <time>2021-03-18T11:32:56Z</time>
      </trkpt>
      <trkpt lat="45.565" lon="4.85027">
        <ele>263.32562</ele>
        <time>2021-03-18T11:32:58Z</time>
      </trkpt>
      <trkpt lat="45.565" lon="4.85035">
        <ele>262.90582</ele>
        <time>2021-03-18T11:33:00Z</time>
      </trkpt>
      <trkpt lat="45.56501" lon="4.85043">
        <ele>263.38193</ele>
        <time>2021-03-18T11:33:02Z</time>
      </trkpt>
      <trkpt lat="45.56501" lon="4.85049">
        <ele>263.34097</ele>
        <time>2021-03-18T11:33:04Z</time>
      </trkpt>
      <trkpt lat="45.56502" lon="4.85056">
        <ele>262.486</ele>
        <time>2021-03-18T11:33:06Z</time>
      </trkpt>
      <trkpt lat="45.56503" lon="4.85064">
        <ele>263.13107</ele>
        <time>2021-03-18T11:33:08Z</time>
      </trkpt>
      <trkpt lat="45.56503" lon="4.85072">
        <ele>263.14133</ele>
        <time>2021-03-18T11:33:10Z</time>
      </trkpt>
      <trkpt lat="45.56503" lon="4.85079">
        <ele>263.25906</ele>
        <time>2021-03-18T11:33:12Z</time>
      </trkpt>
      <trkpt lat="45.56504" lon="4.85088">
        <ele>263.15668</ele>
        <time>2021-03-18T11:33:14Z</time>
      </trkpt>
      <trkpt lat="45.56504" lon="4.85096">
        <ele>263.00308</ele>
        <time>2021-03-18T11:33:16Z</time>
      </trkpt>
      <trkpt lat="45.56504" lon="4.85104">
        <ele>263.46384</ele>
        <time>2021-03-18T11:33:18Z</time>
      </trkpt>
      <trkpt lat="45.56505" lon="4.85112">
        <ele>263.8376</ele>
        <time>2021-03-18T11:33:20Z</time>
      </trkpt>
      <trkpt lat="45.56506" lon="4.85122">
        <ele>263.1669</ele>
        <time>2021-03-18T11:33:22Z</time>
      </trkpt>
      <trkpt lat="45.56506" lon="4.8513">
        <ele>263.75568</ele>
        <time>2021-03-18T11:33:24Z</time>
      </trkpt>
      <trkpt lat="45.56507" lon="4.85137">
        <ele>263.81198</ele>
        <time>2021-03-18T11:33:26Z</time>
      </trkpt>
      <trkpt lat="45.56507" lon="4.85145">
        <ele>263.8683</ele>
        <time>2021-03-18T11:33:28Z</time>
      </trkpt>
      <trkpt lat="45.56508" lon="4.85153">
        <ele>264.3239</ele>
        <time>2021-03-18T11:33:30Z</time>
      </trkpt>
      <trkpt lat="45.56508" lon="4.85161">
        <ele>264.17035</ele>
        <time>2021-03-18T11:33:32Z</time>
      </trkpt>
      <trkpt lat="45.56508" lon="4.8517">
        <ele>263.85294</ele>
        <time>2021-03-18T11:33:34Z</time>
      </trkpt>
      <trkpt lat="45.56508" lon="4.85179">
        <ele>264.19592</ele>
        <time>2021-03-18T11:33:36Z</time>
      </trkpt>
      <trkpt lat="45.56508" lon="4.85188">
        <ele>263.85806</ele>
        <time>2021-03-18T11:33:38Z</time>
      </trkpt>
      <trkpt lat="45.56508" lon="4.85195">
        <ele>263.80685</ele>
        <time>2021-03-18T11:33:40Z</time>
      </trkpt>
      <trkpt lat="45.56508" lon="4.85202">
        <ele>263.9246</ele>
        <time>2021-03-18T11:33:42Z</time>
      </trkpt>
      <trkpt lat="45.56507" lon="4.8521">
        <ele>264.09866</ele>
        <time>2021-03-18T11:33:44Z</time>
      </trkpt>
      <trkpt lat="45.56507" lon="4.85217">
        <ele>264.0475</ele>
        <time>2021-03-18T11:33:46Z</time>
      </trkpt>
      <trkpt lat="45.56506" lon="4.85225">
        <ele>263.78125</ele>
        <time>2021-03-18T11:33:48Z</time>
      </trkpt>
      <trkpt lat="45.56504" lon="4.85232">
        <ele>263.8683</ele>
        <time>2021-03-18T11:33:50Z</time>
      </trkpt>
      <trkpt lat="45.56502" lon="4.85239">
        <ele>264.02698</ele>
        <time>2021-03-18T11:33:52Z</time>
      </trkpt>
      <trkpt lat="45.565" lon="4.85247">
        <ele>263.89902</ele>
        <time>2021-03-18T11:33:54Z</time>
      </trkpt>
      <trkpt lat="45.56498" lon="4.85254">
        <ele>263.10034</ele>
        <time>2021-03-18T11:33:56Z</time>
      </trkpt>
      <trkpt lat="45.56496" lon="4.85262">
        <ele>264.11914</ele>
        <time>2021-03-18T11:33:58Z</time>
      </trkpt>
      <trkpt lat="45.56494" lon="4.85269">
        <ele>263.4792</ele>
        <time>2021-03-18T11:34:00Z</time>
      </trkpt>
      <trkpt lat="45.56491" lon="4.85276">
        <ele>263.78125</ele>
        <time>2021-03-18T11:34:02Z</time>
      </trkpt>
      <trkpt lat="45.56488" lon="4.85283">
        <ele>263.61743</ele>
        <time>2021-03-18T11:34:04Z</time>
      </trkpt>
      <trkpt lat="45.56484" lon="4.8529">
        <ele>263.6123</ele>
        <time>2021-03-18T11:34:06Z</time>
      </trkpt>
      <trkpt lat="45.5648" lon="4.85296">
        <ele>263.62256</ele>
        <time>2021-03-18T11:34:08Z</time>
      </trkpt>
      <trkpt lat="45.56476" lon="4.85303">
        <ele>263.7915</ele>
        <time>2021-03-18T11:34:10Z</time>
      </trkpt>
      <trkpt lat="45.56473" lon="4.85309">
        <ele>263.77103</ele>
        <time>2021-03-18T11:34:12Z</time>
      </trkpt>
      <trkpt lat="45.56469" lon="4.85314">
        <ele>263.59695</ele>
        <time>2021-03-18T11:34:14Z</time>
      </trkpt>
      <trkpt lat="45.56464" lon="4.8532">
        <ele>263.81198</ele>
        <time>2021-03-18T11:34:16Z</time>
      </trkpt>
      <trkpt lat="45.56459" lon="4.85325">
        <ele>263.4843</ele>
        <time>2021-03-18T11:34:18Z</time>
      </trkpt>
      <trkpt lat="45.56455" lon="4.85331">
        <ele>263.33585</ele>
        <time>2021-03-18T11:34:20Z</time>
      </trkpt>
      <trkpt lat="45.56451" lon="4.85335">
        <ele>263.4024</ele>
        <time>2021-03-18T11:34:22Z</time>
      </trkpt>
      <trkpt lat="45.56447" lon="4.8534">
        <ele>263.88876</ele>
        <time>2021-03-18T11:34:24Z</time>
      </trkpt>
      <trkpt lat="45.56442" lon="4.85345">
        <ele>263.94507</ele>
        <time>2021-03-18T11:34:26Z</time>
      </trkpt>
      <trkpt lat="45.56437" lon="4.8535">
        <ele>263.73517</ele>
        <time>2021-03-18T11:34:28Z</time>
      </trkpt>
      <trkpt lat="45.56432" lon="4.85355">
        <ele>263.70956</ele>
        <time>2021-03-18T11:34:30Z</time>
      </trkpt>
      <trkpt lat="45.56427" lon="4.8536">
        <ele>263.91437</ele>
        <time>2021-03-18T11:34:32Z</time>
      </trkpt>
      <trkpt lat="45.56422" lon="4.85365">
        <ele>263.93484</ele>
        <time>2021-03-18T11:34:34Z</time>
      </trkpt>
      <trkpt lat="45.56418" lon="4.8537">
        <ele>263.73517</ele>
        <time>2021-03-18T11:34:36Z</time>
      </trkpt>
      <trkpt lat="45.56414" lon="4.85374">
        <ele>263.8734</ele>
        <time>2021-03-18T11:34:38Z</time>
      </trkpt>
      <trkpt lat="45.5641" lon="4.85379">
        <ele>263.92972</ele>
        <time>2021-03-18T11:34:40Z</time>
      </trkpt>
      <trkpt lat="45.56405" lon="4.85383">
        <ele>264.33417</ele>
        <time>2021-03-18T11:34:42Z</time>
      </trkpt>
      <trkpt lat="45.56401" lon="4.85388">
        <ele>264.12427</ele>
        <time>2021-03-18T11:34:44Z</time>
      </trkpt>
      <trkpt lat="45.56396" lon="4.85392">
        <ele>264.2983</ele>
        <time>2021-03-18T11:34:46Z</time>
      </trkpt>
      <trkpt lat="45.56392" lon="4.85396">
        <ele>264.62088</ele>
        <time>2021-03-18T11:34:48Z</time>
      </trkpt>
      <trkpt lat="45.56387" lon="4.854">
        <ele>264.8666</ele>
        <time>2021-03-18T11:34:50Z</time>
      </trkpt>
      <trkpt lat="45.56382" lon="4.85404">
        <ele>264.498</ele>
        <time>2021-03-18T11:34:52Z</time>
      </trkpt>
      <trkpt lat="45.56378" lon="4.85409">
        <ele>264.4724</ele>
        <time>2021-03-18T11:34:54Z</time>
      </trkpt>
      <trkpt lat="45.56374" lon="4.85413">
        <ele>264.38538</ele>
        <time>2021-03-18T11:34:56Z</time>
      </trkpt>
      <trkpt lat="45.5637" lon="4.85417">
        <ele>264.93317</ele>
        <time>2021-03-18T11:34:58Z</time>
      </trkpt>
      <trkpt lat="45.56366" lon="4.85421">
        <ele>265.08163</ele>
        <time>2021-03-18T11:35:00Z</time>
      </trkpt>
      <trkpt lat="45.56362" lon="4.85425">
        <ele>265.1533</ele>
        <time>2021-03-18T11:35:02Z</time>
      </trkpt>
      <trkpt lat="45.56357" lon="4.8543">
        <ele>265.63455</ele>
        <time>2021-03-18T11:35:04Z</time>
      </trkpt>
      <trkpt lat="45.56353" lon="4.85435">
        <ele>265.50143</ele>
        <time>2021-03-18T11:35:06Z</time>
      </trkpt>
      <trkpt lat="45.56348" lon="4.85439">
        <ele>265.78812</ele>
        <time>2021-03-18T11:35:08Z</time>
      </trkpt>
      <trkpt lat="45.56342" lon="4.85443">
        <ele>266.09018</ele>
        <time>2021-03-18T11:35:10Z</time>
      </trkpt>
      <trkpt lat="45.56338" lon="4.85447">
        <ele>266.31546</ele>
        <time>2021-03-18T11:35:12Z</time>
      </trkpt>
      <trkpt lat="45.56334" lon="4.85449">
        <ele>266.5663</ele>
        <time>2021-03-18T11:35:14Z</time>
      </trkpt>
      <trkpt lat="45.56329" lon="4.85453">
        <ele>267.30865</ele>
        <time>2021-03-18T11:35:16Z</time>
      </trkpt>
      <trkpt lat="45.56324" lon="4.85457">
        <ele>266.18747</ele>
        <time>2021-03-18T11:35:18Z</time>
      </trkpt>
      <trkpt lat="45.56319" lon="4.85462">
        <ele>266.85812</ele>
        <time>2021-03-18T11:35:20Z</time>
      </trkpt>
      <trkpt lat="45.56315" lon="4.85467">
        <ele>266.85812</ele>
        <time>2021-03-18T11:35:22Z</time>
      </trkpt>
      <trkpt lat="45.56311" lon="4.85471">
        <ele>266.95538</ele>
        <time>2021-03-18T11:35:24Z</time>
      </trkpt>
      <trkpt lat="45.56307" lon="4.85475">
        <ele>267.49808</ele>
        <time>2021-03-18T11:35:26Z</time>
      </trkpt>
      <trkpt lat="45.56302" lon="4.8548">
        <ele>267.452</ele>
        <time>2021-03-18T11:35:28Z</time>
      </trkpt>
      <trkpt lat="45.56298" lon="4.85484">
        <ele>267.4776</ele>
        <time>2021-03-18T11:35:30Z</time>
      </trkpt>
      <trkpt lat="45.56294" lon="4.85487">
        <ele>268.20456</ele>
        <time>2021-03-18T11:35:32Z</time>
      </trkpt>
      <trkpt lat="45.56289" lon="4.8549">
        <ele>268.25577</ele>
        <time>2021-03-18T11:35:34Z</time>
      </trkpt>
      <trkpt lat="45.56284" lon="4.85495">
        <ele>268.23016</ele>
        <time>2021-03-18T11:35:37Z</time>
      </trkpt>
      <trkpt lat="45.56279" lon="4.85498">
        <ele>268.64996</ele>
        <time>2021-03-18T11:35:39Z</time>
      </trkpt>
      <trkpt lat="45.56274" lon="4.85501">
        <ele>267.96396</ele>
        <time>2021-03-18T11:35:41Z</time>
      </trkpt>
      <trkpt lat="45.5627" lon="4.85505">
        <ele>268.3684</ele>
        <time>2021-03-18T11:35:43Z</time>
      </trkpt>
      <trkpt lat="45.56265" lon="4.85509">
        <ele>268.66022</ele>
        <time>2021-03-18T11:35:45Z</time>
      </trkpt>
      <trkpt lat="45.5626" lon="4.85513">
        <ele>269.11588</ele>
        <time>2021-03-18T11:35:47Z</time>
      </trkpt>
      <trkpt lat="45.56256" lon="4.85517">
        <ele>269.0749</ele>
        <time>2021-03-18T11:35:49Z</time>
      </trkpt>
      <trkpt lat="45.56251" lon="4.85521">
        <ele>268.90082</ele>
        <time>2021-03-18T11:35:51Z</time>
      </trkpt>
      <trkpt lat="45.56246" lon="4.85524">
        <ele>269.25922</ele>
        <time>2021-03-18T11:35:53Z</time>
      </trkpt>
      <trkpt lat="45.5624" lon="4.85527">
        <ele>269.55103</ele>
        <time>2021-03-18T11:35:55Z</time>
      </trkpt>
      <trkpt lat="45.56234" lon="4.8553">
        <ele>268.90594</ele>
        <time>2021-03-18T11:35:57Z</time>
      </trkpt>
      <trkpt lat="45.56229" lon="4.85532">
        <ele>269.89917</ele>
        <time>2021-03-18T11:35:59Z</time>
      </trkpt>
      <trkpt lat="45.56223" lon="4.85533">
        <ele>269.66876</ele>
        <time>2021-03-18T11:36:01Z</time>
      </trkpt>
      <trkpt lat="45.56218" lon="4.85535">
        <ele>269.807</ele>
        <time>2021-03-18T11:36:03Z</time>
      </trkpt>
      <trkpt lat="45.56213" lon="4.85537">
        <ele>269.48447</ele>
        <time>2021-03-18T11:36:05Z</time>
      </trkpt>
      <trkpt lat="45.56208" lon="4.85539">
        <ele>270.03226</ele>
        <time>2021-03-18T11:36:07Z</time>
      </trkpt>
      <trkpt lat="45.56203" lon="4.8554">
        <ele>270.06296</ele>
        <time>2021-03-18T11:36:09Z</time>
      </trkpt>
      <trkpt lat="45.56197" lon="4.85541">
        <ele>270.49814</ele>
        <time>2021-03-18T11:36:11Z</time>
      </trkpt>
      <trkpt lat="45.56192" lon="4.85542">
        <ele>270.5391</ele>
        <time>2021-03-18T11:36:13Z</time>
      </trkpt>
      <trkpt lat="45.56186" lon="4.85543">
        <ele>270.6466</ele>
        <time>2021-03-18T11:36:15Z</time>
      </trkpt>
      <trkpt lat="45.56181" lon="4.85544">
        <ele>270.4879</ele>
        <time>2021-03-18T11:36:17Z</time>
      </trkpt>
      <trkpt lat="45.56175" lon="4.85544">
        <ele>270.51862</ele>
        <time>2021-03-18T11:36:19Z</time>
      </trkpt>
      <trkpt lat="45.5617" lon="4.85546">
        <ele>270.749</ele>
        <time>2021-03-18T11:36:21Z</time>
      </trkpt>
      <trkpt lat="45.56164" lon="4.85547">
        <ele>271.03058</ele>
        <time>2021-03-18T11:36:23Z</time>
      </trkpt>
      <trkpt lat="45.56158" lon="4.85548">
        <ele>270.8002</ele>
        <time>2021-03-18T11:36:25Z</time>
      </trkpt>
      <trkpt lat="45.56152" lon="4.85549">
        <ele>270.47253</ele>
        <time>2021-03-18T11:36:27Z</time>
      </trkpt>
      <trkpt lat="45.56146" lon="4.8555">
        <ele>270.95892</ele>
        <time>2021-03-18T11:36:29Z</time>
      </trkpt>
      <trkpt lat="45.5614" lon="4.85552">
        <ele>270.99475</ele>
        <time>2021-03-18T11:36:31Z</time>
      </trkpt>
      <trkpt lat="45.56134" lon="4.85553">
        <ele>271.19952</ele>
        <time>2021-03-18T11:36:33Z</time>
      </trkpt>
      <trkpt lat="45.56129" lon="4.85555">
        <ele>271.43503</ele>
        <time>2021-03-18T11:36:35Z</time>
      </trkpt>
      <trkpt lat="45.56123" lon="4.85558">
        <ele>271.67566</ele>
        <time>2021-03-18T11:36:37Z</time>
      </trkpt>
      <trkpt lat="45.56117" lon="4.8556">
        <ele>271.6808</ele>
        <time>2021-03-18T11:36:39Z</time>
      </trkpt>
      <trkpt lat="45.56112" lon="4.85563">
        <ele>271.67566</ele>
        <time>2021-03-18T11:36:41Z</time>
      </trkpt>
      <trkpt lat="45.56106" lon="4.85565">
        <ele>271.54767</ele>
        <time>2021-03-18T11:36:43Z</time>
      </trkpt>
      <trkpt lat="45.561" lon="4.85566">
        <ele>272.20297</ele>
        <time>2021-03-18T11:36:45Z</time>
      </trkpt>
      <trkpt lat="45.56094" lon="4.85568">
        <ele>271.84973</ele>
        <time>2021-03-18T11:36:47Z</time>
      </trkpt>
      <trkpt lat="45.56088" lon="4.85569">
        <ele>271.61932</ele>
        <time>2021-03-18T11:36:49Z</time>
      </trkpt>
      <trkpt lat="45.56083" lon="4.85571">
        <ele>271.88043</ele>
        <time>2021-03-18T11:36:51Z</time>
      </trkpt>
      <trkpt lat="45.56077" lon="4.85572">
        <ele>271.96234</ele>
        <time>2021-03-18T11:36:53Z</time>
      </trkpt>
      <trkpt lat="45.56071" lon="4.85574">
        <ele>271.94186</ele>
        <time>2021-03-18T11:36:55Z</time>
      </trkpt>
      <trkpt lat="45.56065" lon="4.85575">
        <ele>272.21832</ele>
        <time>2021-03-18T11:36:57Z</time>
      </trkpt>
      <trkpt lat="45.56059" lon="4.85576">
        <ele>272.1569</ele>
        <time>2021-03-18T11:36:59Z</time>
      </trkpt>
      <trkpt lat="45.56053" lon="4.85577">
        <ele>272.20807</ele>
        <time>2021-03-18T11:37:01Z</time>
      </trkpt>
      <trkpt lat="45.56047" lon="4.85578">
        <ele>272.18762</ele>
        <time>2021-03-18T11:37:03Z</time>
      </trkpt>
      <trkpt lat="45.56042" lon="4.85578">
        <ele>272.3105</ele>
        <time>2021-03-18T11:37:05Z</time>
      </trkpt>
      <trkpt lat="45.56037" lon="4.85579">
        <ele>272.377</ele>
        <time>2021-03-18T11:37:07Z</time>
      </trkpt>
      <trkpt lat="45.56031" lon="4.85581">
        <ele>272.47943</ele>
        <time>2021-03-18T11:37:09Z</time>
      </trkpt>
      <trkpt lat="45.56026" lon="4.85583">
        <ele>272.38727</ele>
        <time>2021-03-18T11:37:11Z</time>
      </trkpt>
      <trkpt lat="45.5602" lon="4.85585">
        <ele>272.7098</ele>
        <time>2021-03-18T11:37:13Z</time>
      </trkpt>
      <trkpt lat="45.56015" lon="4.85586">
        <ele>272.85828</ele>
        <time>2021-03-18T11:37:15Z</time>
      </trkpt>
      <trkpt lat="45.56009" lon="4.85588">
        <ele>272.87875</ele>
        <time>2021-03-18T11:37:17Z</time>
      </trkpt>
      <trkpt lat="45.56004" lon="4.8559">
        <ele>272.96066</ele>
        <time>2021-03-18T11:37:19Z</time>
      </trkpt>
      <trkpt lat="45.55999" lon="4.85591">
        <ele>273.5187</ele>
        <time>2021-03-18T11:37:21Z</time>
      </trkpt>
      <trkpt lat="45.55993" lon="4.85593">
        <ele>273.2832</ele>
        <time>2021-03-18T11:37:23Z</time>
      </trkpt>
      <trkpt lat="45.55989" lon="4.85595">
        <ele>272.96066</ele>
        <time>2021-03-18T11:37:25Z</time>
      </trkpt>
      <trkpt lat="45.55984" lon="4.85598">
        <ele>273.19617</ele>
        <time>2021-03-18T11:37:27Z</time>
      </trkpt>
      <trkpt lat="45.55979" lon="4.856">
        <ele>273.58527</ele>
        <time>2021-03-18T11:37:29Z</time>
      </trkpt>
      <trkpt lat="45.55973" lon="4.85602">
        <ele>273.59036</ele>
        <time>2021-03-18T11:37:31Z</time>
      </trkpt>
      <trkpt lat="45.55968" lon="4.85604">
        <ele>273.64667</ele>
        <time>2021-03-18T11:37:33Z</time>
      </trkpt>
      <trkpt lat="45.55962" lon="4.85607">
        <ele>274.20984</ele>
        <time>2021-03-18T11:37:35Z</time>
      </trkpt>
      <trkpt lat="45.55957" lon="4.85609">
        <ele>274.16376</ele>
        <time>2021-03-18T11:37:37Z</time>
      </trkpt>
      <trkpt lat="45.55953" lon="4.85613">
        <ele>274.1945</ele>
        <time>2021-03-18T11:37:39Z</time>
      </trkpt>
      <trkpt lat="45.55949" lon="4.85616">
        <ele>274.30713</ele>
        <time>2021-03-18T11:37:41Z</time>
      </trkpt>
      <trkpt lat="45.55943" lon="4.85619">
        <ele>274.54773</ele>
        <time>2021-03-18T11:37:43Z</time>
      </trkpt>
      <trkpt lat="45.55938" lon="4.85623">
        <ele>274.7781</ele>
        <time>2021-03-18T11:37:45Z</time>
      </trkpt>
      <trkpt lat="45.55933" lon="4.85627">
        <ele>275.18256</ele>
        <time>2021-03-18T11:37:47Z</time>
      </trkpt>
      <trkpt lat="45.55928" lon="4.8563">
        <ele>274.36853</ele>
        <time>2021-03-18T11:37:49Z</time>
      </trkpt>
      <trkpt lat="45.55923" lon="4.85633">
        <ele>275.17233</ele>
        <time>2021-03-18T11:37:51Z</time>
      </trkpt>
      <trkpt lat="45.55919" lon="4.85637">
        <ele>274.9573</ele>
        <time>2021-03-18T11:37:53Z</time>
      </trkpt>
      <trkpt lat="45.55915" lon="4.85641">
        <ele>274.7935</ele>
        <time>2021-03-18T11:37:55Z</time>
      </trkpt>
      <trkpt lat="45.55911" lon="4.85644">
        <ele>274.88562</ele>
        <time>2021-03-18T11:37:57Z</time>
      </trkpt>
      <trkpt lat="45.55906" lon="4.85648">
        <ele>275.2952</ele>
        <time>2021-03-18T11:37:59Z</time>
      </trkpt>
      <trkpt lat="45.55901" lon="4.85653">
        <ele>275.1672</ele>
        <time>2021-03-18T11:38:01Z</time>
      </trkpt>
      <trkpt lat="45.55896" lon="4.85657">
        <ele>275.04944</ele>
        <time>2021-03-18T11:38:03Z</time>
      </trkpt>
      <trkpt lat="45.55892" lon="4.85661">
        <ele>275.01874</ele>
        <time>2021-03-18T11:38:05Z</time>
      </trkpt>
      <trkpt lat="45.55888" lon="4.85665">
        <ele>274.99313</ele>
        <time>2021-03-18T11:38:07Z</time>
      </trkpt>
      <trkpt lat="45.55882" lon="4.85671">
        <ele>275.10065</ele>
        <time>2021-03-18T11:38:09Z</time>
      </trkpt>
      <trkpt lat="45.55877" lon="4.85676">
        <ele>275.2133</ele>
        <time>2021-03-18T11:38:11Z</time>
      </trkpt>
      <trkpt lat="45.55873" lon="4.85681">
        <ele>275.0443</ele>
        <time>2021-03-18T11:38:13Z</time>
      </trkpt>
      <trkpt lat="45.55869" lon="4.85685">
        <ele>275.04944</ele>
        <time>2021-03-18T11:38:15Z</time>
      </trkpt>
      <trkpt lat="45.55863" lon="4.85689">
        <ele>274.97778</ele>
        <time>2021-03-18T11:38:17Z</time>
      </trkpt>
      <trkpt lat="45.55858" lon="4.85694">
        <ele>274.81906</ele>
        <time>2021-03-18T11:38:19Z</time>
      </trkpt>
      <trkpt lat="45.55852" lon="4.85699">
        <ele>274.55798</ele>
        <time>2021-03-18T11:38:21Z</time>
      </trkpt>
      <trkpt lat="45.55848" lon="4.85704">
        <ele>274.52213</ele>
        <time>2021-03-18T11:38:23Z</time>
      </trkpt>
      <trkpt lat="45.55843" lon="4.85709">
        <ele>274.26614</ele>
        <time>2021-03-18T11:38:25Z</time>
      </trkpt>
      <trkpt lat="45.55839" lon="4.85713">
        <ele>274.45047</ele>
        <time>2021-03-18T11:38:27Z</time>
      </trkpt>
      <trkpt lat="45.55835" lon="4.85718">
        <ele>274.34808</ele>
        <time>2021-03-18T11:38:29Z</time>
      </trkpt>
      <trkpt lat="45.5583" lon="4.85724">
        <ele>273.63132</ele>
        <time>2021-03-18T11:38:31Z</time>
      </trkpt>
      <trkpt lat="45.55826" lon="4.85729">
        <ele>273.88217</ele>
        <time>2021-03-18T11:38:33Z</time>
      </trkpt>
      <trkpt lat="45.55822" lon="4.85734">
        <ele>274.01016</ele>
        <time>2021-03-18T11:38:35Z</time>
      </trkpt>
      <trkpt lat="45.55817" lon="4.85738">
        <ele>273.03232</ele>
        <time>2021-03-18T11:38:37Z</time>
      </trkpt>
      <trkpt lat="45.55811" lon="4.85744">
        <ele>273.69278</ele>
        <time>2021-03-18T11:38:39Z</time>
      </trkpt>
      <trkpt lat="45.55807" lon="4.85749">
        <ele>273.60062</ele>
        <time>2021-03-18T11:38:41Z</time>
      </trkpt>
      <trkpt lat="45.55801" lon="4.85752">
        <ele>273.55966</ele>
        <time>2021-03-18T11:38:43Z</time>
      </trkpt>
      <trkpt lat="45.55795" lon="4.85756">
        <ele>273.6211</ele>
        <time>2021-03-18T11:38:45Z</time>
      </trkpt>
      <trkpt lat="45.55788" lon="4.85761">
        <ele>273.3651</ele>
        <time>2021-03-18T11:38:47Z</time>
      </trkpt>
      <trkpt lat="45.55781" lon="4.85765">
        <ele>273.54428</ele>
        <time>2021-03-18T11:38:49Z</time>
      </trkpt>
      <trkpt lat="45.55776" lon="4.85768">
        <ele>273.48288</ele>
        <time>2021-03-18T11:38:51Z</time>
      </trkpt>
      <trkpt lat="45.55769" lon="4.8577">
        <ele>273.30878</ele>
        <time>2021-03-18T11:38:53Z</time>
      </trkpt>
      <trkpt lat="45.55763" lon="4.85771">
        <ele>273.2576</ele>
        <time>2021-03-18T11:38:55Z</time>
      </trkpt>
      <trkpt lat="45.55756" lon="4.85772">
        <ele>273.06818</ele>
        <time>2021-03-18T11:38:57Z</time>
      </trkpt>
      <trkpt lat="45.5575" lon="4.85772">
        <ele>273.2064</ele>
        <time>2021-03-18T11:38:59Z</time>
      </trkpt>
      <trkpt lat="45.55744" lon="4.85773">
        <ele>273.30878</ele>
        <time>2021-03-18T11:39:01Z</time>
      </trkpt>
      <trkpt lat="45.55737" lon="4.85773">
        <ele>273.1501</ele>
        <time>2021-03-18T11:39:03Z</time>
      </trkpt>
      <trkpt lat="45.5573" lon="4.85773">
        <ele>272.88388</ele>
        <time>2021-03-18T11:39:05Z</time>
      </trkpt>
      <trkpt lat="45.55724" lon="4.85773">
        <ele>273.104</ele>
        <time>2021-03-18T11:39:07Z</time>
      </trkpt>
      <trkpt lat="45.55719" lon="4.85773">
        <ele>272.96066</ele>
        <time>2021-03-18T11:39:09Z</time>
      </trkpt>
      <trkpt lat="45.55714" lon="4.85773">
        <ele>273.36</ele>
        <time>2021-03-18T11:39:11Z</time>
      </trkpt>
      <trkpt lat="45.55708" lon="4.85773">
        <ele>273.6211</ele>
        <time>2021-03-18T11:39:13Z</time>
      </trkpt>
      <trkpt lat="45.55702" lon="4.85773">
        <ele>273.3958</ele>
        <time>2021-03-18T11:39:15Z</time>
      </trkpt>
      <trkpt lat="45.55696" lon="4.85774">
        <ele>273.22687</ele>
        <time>2021-03-18T11:39:17Z</time>
      </trkpt>
      <trkpt lat="45.5569" lon="4.85773">
        <ele>273.06818</ele>
        <time>2021-03-18T11:39:19Z</time>
      </trkpt>
      <trkpt lat="45.55684" lon="4.85774">
        <ele>273.23712</ele>
        <time>2021-03-18T11:39:21Z</time>
      </trkpt>
      <trkpt lat="45.55679" lon="4.85777">
        <ele>272.9402</ele>
        <time>2021-03-18T11:39:23Z</time>
      </trkpt>
      <trkpt lat="45.55673" lon="4.85779">
        <ele>272.761</ele>
        <time>2021-03-18T11:39:25Z</time>
      </trkpt>
      <trkpt lat="45.55668" lon="4.85783">
        <ele>272.63812</ele>
        <time>2021-03-18T11:39:27Z</time>
      </trkpt>
      <trkpt lat="45.55663" lon="4.85786">
        <ele>272.90436</ele>
        <time>2021-03-18T11:39:29Z</time>
      </trkpt>
      <trkpt lat="45.55657" lon="4.85787">
        <ele>272.80707</ele>
        <time>2021-03-18T11:39:31Z</time>
      </trkpt>
      <trkpt lat="45.55652" lon="4.85789">
        <ele>272.84802</ele>
        <time>2021-03-18T11:39:33Z</time>
      </trkpt>
      <trkpt lat="45.55647" lon="4.85793">
        <ele>273.0733</ele>
        <time>2021-03-18T11:39:35Z</time>
      </trkpt>
      <trkpt lat="45.55642" lon="4.85795">
        <ele>272.5204</ele>
        <time>2021-03-18T11:39:37Z</time>
      </trkpt>
      <trkpt lat="45.55637" lon="4.85797">
        <ele>273.07843</ele>
        <time>2021-03-18T11:39:39Z</time>
      </trkpt>
      <trkpt lat="45.55632" lon="4.85801">
        <ele>272.5511</ele>
        <time>2021-03-18T11:39:41Z</time>
      </trkpt>
      <trkpt lat="45.55628" lon="4.85805">
        <ele>272.04938</ele>
        <time>2021-03-18T11:39:43Z</time>
      </trkpt>
      <trkpt lat="45.55623" lon="4.85809">
        <ele>271.93674</ele>
        <time>2021-03-18T11:39:45Z</time>
      </trkpt>
      <trkpt lat="45.55618" lon="4.85813">
        <ele>271.85995</ele>
        <time>2021-03-18T11:39:47Z</time>
      </trkpt>
      <trkpt lat="45.55613" lon="4.85817">
        <ele>271.38895</ele>
        <time>2021-03-18T11:39:49Z</time>
      </trkpt>
      <trkpt lat="45.55608" lon="4.85821">
        <ele>271.0613</ele>
        <time>2021-03-18T11:39:51Z</time>
      </trkpt>
      <trkpt lat="45.55603" lon="4.85824">
        <ele>270.5391</ele>
        <time>2021-03-18T11:39:53Z</time>
      </trkpt>
      <trkpt lat="45.55599" lon="4.85829">
        <ele>270.0937</ele>
        <time>2021-03-18T11:39:55Z</time>
      </trkpt>
      <trkpt lat="45.55594" lon="4.85834">
        <ele>269.47934</ele>
        <time>2021-03-18T11:39:57Z</time>
      </trkpt>
      <trkpt lat="45.5559" lon="4.85839">
        <ele>269.70972</ele>
        <time>2021-03-18T11:39:59Z</time>
      </trkpt>
      <trkpt lat="45.55586" lon="4.85845">
        <ele>269.6483</ele>
        <time>2021-03-18T11:40:01Z</time>
      </trkpt>
      <trkpt lat="45.55581" lon="4.85849">
        <ele>269.58685</ele>
        <time>2021-03-18T11:40:03Z</time>
      </trkpt>
      <trkpt lat="45.55576" lon="4.85852">
        <ele>269.16705</ele>
        <time>2021-03-18T11:40:05Z</time>
      </trkpt>
      <trkpt lat="45.55571" lon="4.85856">
        <ele>269.10562</ele>
        <time>2021-03-18T11:40:07Z</time>
      </trkpt>
      <trkpt lat="45.55566" lon="4.85861">
        <ele>268.51175</ele>
        <time>2021-03-18T11:40:10Z</time>
      </trkpt>
      <trkpt lat="45.55561" lon="4.85865">
        <ele>268.8445</ele>
        <time>2021-03-18T11:40:12Z</time>
      </trkpt>
      <trkpt lat="45.55556" lon="4.85869">
        <ele>268.8189</ele>
        <time>2021-03-18T11:40:14Z</time>
      </trkpt>
      <trkpt lat="45.55552" lon="4.85874">
        <ele>268.74213</ele>
        <time>2021-03-18T11:40:16Z</time>
      </trkpt>
      <trkpt lat="45.55548" lon="4.85879">
        <ele>268.75748</ele>
        <time>2021-03-18T11:40:18Z</time>
      </trkpt>
      <trkpt lat="45.55544" lon="4.85884">
        <ele>268.10217</ele>
        <time>2021-03-18T11:40:20Z</time>
      </trkpt>
      <trkpt lat="45.55539" lon="4.85888">
        <ele>267.8462</ele>
        <time>2021-03-18T11:40:22Z</time>
      </trkpt>
      <trkpt lat="45.55535" lon="4.85893">
        <ele>266.83765</ele>
        <time>2021-03-18T11:40:24Z</time>
      </trkpt>
      <trkpt lat="45.55531" lon="4.85898">
        <ele>266.32056</ele>
        <time>2021-03-18T11:40:26Z</time>
      </trkpt>
      <trkpt lat="45.55527" lon="4.85903">
        <ele>266.0134</ele>
        <time>2021-03-18T11:40:28Z</time>
      </trkpt>
      <trkpt lat="45.55523" lon="4.85908">
        <ele>265.36832</ele>
        <time>2021-03-18T11:40:30Z</time>
      </trkpt>
      <trkpt lat="45.55518" lon="4.85913">
        <ele>264.87683</ele>
        <time>2021-03-18T11:40:32Z</time>
      </trkpt>
      <trkpt lat="45.55515" lon="4.85918">
        <ele>264.44168</ele>
        <time>2021-03-18T11:40:34Z</time>
      </trkpt>
      <trkpt lat="45.5551" lon="4.85923">
        <ele>263.7915</ele>
        <time>2021-03-18T11:40:36Z</time>
      </trkpt>
      <trkpt lat="45.55505" lon="4.85928">
        <ele>263.4024</ele>
        <time>2021-03-18T11:40:38Z</time>
      </trkpt>
      <trkpt lat="45.555" lon="4.85932">
        <ele>262.89557</ele>
        <time>2021-03-18T11:40:40Z</time>
      </trkpt>
      <trkpt lat="45.55495" lon="4.85937">
        <ele>262.81876</ele>
        <time>2021-03-18T11:40:42Z</time>
      </trkpt>
      <trkpt lat="45.5549" lon="4.85942">
        <ele>262.68567</ele>
        <time>2021-03-18T11:40:44Z</time>
      </trkpt>
      <trkpt lat="45.55485" lon="4.85946">
        <ele>262.60376</ele>
        <time>2021-03-18T11:40:46Z</time>
      </trkpt>
      <trkpt lat="45.5548" lon="4.85952">
        <ele>262.52182</ele>
        <time>2021-03-18T11:40:48Z</time>
      </trkpt>
      <trkpt lat="45.55474" lon="4.85959">
        <ele>262.4348</ele>
        <time>2021-03-18T11:40:50Z</time>
      </trkpt>
      <trkpt lat="45.55468" lon="4.85963">
        <ele>262.10715</ele>
        <time>2021-03-18T11:40:53Z</time>
      </trkpt>
      <trkpt lat="45.55464" lon="4.85967">
        <ele>262.15323</ele>
        <time>2021-03-18T11:40:55Z</time>
      </trkpt>
      <trkpt lat="45.55459" lon="4.85971">
        <ele>261.86142</ele>
        <time>2021-03-18T11:40:57Z</time>
      </trkpt>
      <trkpt lat="45.55454" lon="4.85976">
        <ele>261.5184</ele>
        <time>2021-03-18T11:40:59Z</time>
      </trkpt>
      <trkpt lat="45.55449" lon="4.8598">
        <ele>261.01157</ele>
        <time>2021-03-18T11:41:01Z</time>
      </trkpt>
      <trkpt lat="45.55444" lon="4.85984">
        <ele>260.51498</ele>
        <time>2021-03-18T11:41:03Z</time>
      </trkpt>
      <trkpt lat="45.55439" lon="4.85989">
        <ele>260.14124</ele>
        <time>2021-03-18T11:41:05Z</time>
      </trkpt>
      <trkpt lat="45.55434" lon="4.85993">
        <ele>259.747</ele>
        <time>2021-03-18T11:41:07Z</time>
      </trkpt>
      <trkpt lat="45.5543" lon="4.85996">
        <ele>259.40912</ele>
        <time>2021-03-18T11:41:09Z</time>
      </trkpt>
      <trkpt lat="45.55424" lon="4.85999">
        <ele>259.28625</ele>
        <time>2021-03-18T11:41:11Z</time>
      </trkpt>
      <trkpt lat="45.55419" lon="4.86001">
        <ele>258.6412</ele>
        <time>2021-03-18T11:41:13Z</time>
      </trkpt>
      <trkpt lat="45.55414" lon="4.86">
        <ele>258.2828</ele>
        <time>2021-03-18T11:41:15Z</time>
      </trkpt>
      <trkpt lat="45.55409" lon="4.85995">
        <ele>257.86813</ele>
        <time>2021-03-18T11:41:17Z</time>
      </trkpt>
      <trkpt lat="45.55405" lon="4.85989">
        <ele>257.60193</ele>
        <time>2021-03-18T11:41:19Z</time>
      </trkpt>
      <trkpt lat="45.55402" lon="4.85982">
        <ele>257.21796</ele>
        <time>2021-03-18T11:41:21Z</time>
      </trkpt>
      <trkpt lat="45.55399" lon="4.85974">
        <ele>256.76743</ele>
        <time>2021-03-18T11:41:23Z</time>
      </trkpt>
      <trkpt lat="45.55396" lon="4.85966">
        <ele>256.8391</ele>
        <time>2021-03-18T11:41:25Z</time>
      </trkpt>
      <trkpt lat="45.55393" lon="4.85958">
        <ele>256.98758</ele>
        <time>2021-03-18T11:41:27Z</time>
      </trkpt>
      <trkpt lat="45.55391" lon="4.8595">
        <ele>257.31012</ele>
        <time>2021-03-18T11:41:29Z</time>
      </trkpt>
      <trkpt lat="45.55389" lon="4.85941">
        <ele>257.24356</ele>
        <time>2021-03-18T11:41:31Z</time>
      </trkpt>
      <trkpt lat="45.55386" lon="4.85932">
        <ele>257.7094</ele>
        <time>2021-03-18T11:41:33Z</time>
      </trkpt>
      <trkpt lat="45.55384" lon="4.85925">
        <ele>257.52002</ele>
        <time>2021-03-18T11:41:35Z</time>
      </trkpt>
      <trkpt lat="45.55381" lon="4.85917">
        <ele>257.63263</ele>
        <time>2021-03-18T11:41:37Z</time>
      </trkpt>
      <trkpt lat="45.5538" lon="4.8591">
        <ele>257.90396</ele>
        <time>2021-03-18T11:41:39Z</time>
      </trkpt>
      <trkpt lat="45.55378" lon="4.85904">
        <ele>258.34937</ele>
        <time>2021-03-18T11:41:41Z</time>
      </trkpt>
      <trkpt lat="45.55376" lon="4.85897">
        <ele>258.25723</ele>
        <time>2021-03-18T11:41:43Z</time>
      </trkpt>
      <trkpt lat="45.55374" lon="4.85889">
        <ele>258.84088</ele>
        <time>2021-03-18T11:41:45Z</time>
      </trkpt>
      <trkpt lat="45.55372" lon="4.85882">
        <ele>259.25555</ele>
        <time>2021-03-18T11:41:47Z</time>
      </trkpt>
      <trkpt lat="45.55369" lon="4.85875">
        <ele>259.61392</ele>
        <time>2021-03-18T11:41:49Z</time>
      </trkpt>
      <trkpt lat="45.55367" lon="4.85868">
        <ele>259.75726</ele>
        <time>2021-03-18T11:41:51Z</time>
      </trkpt>
      <trkpt lat="45.55365" lon="4.8586">
        <ele>259.43472</ele>
        <time>2021-03-18T11:41:53Z</time>
      </trkpt>
      <trkpt lat="45.55363" lon="4.85853">
        <ele>260.3665</ele>
        <time>2021-03-18T11:41:55Z</time>
      </trkpt>
      <trkpt lat="45.55361" lon="4.85846">
        <ele>260.59686</ele>
        <time>2021-03-18T11:41:57Z</time>
      </trkpt>
      <trkpt lat="45.55358" lon="4.85839">
        <ele>261.0218</ele>
        <time>2021-03-18T11:41:59Z</time>
      </trkpt>
      <trkpt lat="45.55355" lon="4.85832">
        <ele>261.34946</ele>
        <time>2021-03-18T11:42:01Z</time>
      </trkpt>
      <trkpt lat="45.55352" lon="4.85825">
        <ele>263.6584</ele>
        <time>2021-03-18T11:42:03Z</time>
      </trkpt>
      <trkpt lat="45.5535" lon="4.85818">
        <ele>263.54062</ele>
        <time>2021-03-18T11:42:05Z</time>
      </trkpt>
      <trkpt lat="45.55348" lon="4.85809">
        <ele>263.64304</ele>
        <time>2021-03-18T11:42:07Z</time>
      </trkpt>
      <trkpt lat="45.55346" lon="4.85802">
        <ele>263.69934</ele>
        <time>2021-03-18T11:42:09Z</time>
      </trkpt>
      <trkpt lat="45.55344" lon="4.85795">
        <ele>264.34442</ele>
        <time>2021-03-18T11:42:12Z</time>
      </trkpt>
      <trkpt lat="45.55341" lon="4.85789">
        <ele>264.42633</ele>
        <time>2021-03-18T11:42:14Z</time>
      </trkpt>
      <trkpt lat="45.55335" lon="4.85783">
        <ele>264.45703</ele>
        <time>2021-03-18T11:42:16Z</time>
      </trkpt>
      <trkpt lat="45.5533" lon="4.85779">
        <ele>265.0765</ele>
        <time>2021-03-18T11:42:18Z</time>
      </trkpt>
      <trkpt lat="45.55325" lon="4.85777">
        <ele>265.45535</ele>
        <time>2021-03-18T11:42:20Z</time>
      </trkpt>
      <trkpt lat="45.5532" lon="4.85776">
        <ele>266.31546</ele>
        <time>2021-03-18T11:42:22Z</time>
      </trkpt>
      <trkpt lat="45.55315" lon="4.85775">
        <ele>266.23865</ele>
        <time>2021-03-18T11:42:24Z</time>
      </trkpt>
      <trkpt lat="45.5531" lon="4.85774">
        <ele>266.82227</ele>
        <time>2021-03-18T11:42:26Z</time>
      </trkpt>
      <trkpt lat="45.55306" lon="4.85773">
        <ele>267.1602</ele>
        <time>2021-03-18T11:42:28Z</time>
      </trkpt>
      <trkpt lat="45.55299" lon="4.85772">
        <ele>267.97418</ele>
        <time>2021-03-18T11:42:31Z</time>
      </trkpt>
      <trkpt lat="45.55292" lon="4.8577">
        <ele>268.31207</ele>
        <time>2021-03-18T11:42:34Z</time>
      </trkpt>
      <trkpt lat="45.55288" lon="4.85769">
        <ele>268.3991</ele>
        <time>2021-03-18T11:42:36Z</time>
      </trkpt>
      <trkpt lat="45.55283" lon="4.85767">
        <ele>268.0049</ele>
        <time>2021-03-18T11:42:38Z</time>
      </trkpt>
      <trkpt lat="45.55278" lon="4.85766">
        <ele>269.208</ele>
        <time>2021-03-18T11:42:40Z</time>
      </trkpt>
      <trkpt lat="45.55272" lon="4.85765">
        <ele>269.45374</ele>
        <time>2021-03-18T11:42:42Z</time>
      </trkpt>
      <trkpt lat="45.55267" lon="4.85764">
        <ele>269.96057</ele>
        <time>2021-03-18T11:42:44Z</time>
      </trkpt>
      <trkpt lat="45.55262" lon="4.85763">
        <ele>269.61246</ele>
        <time>2021-03-18T11:42:46Z</time>
      </trkpt>
      <trkpt lat="45.55257" lon="4.85761">
        <ele>269.66367</ele>
        <time>2021-03-18T11:42:48Z</time>
      </trkpt>
      <trkpt lat="45.55252" lon="4.85761">
        <ele>270.3548</ele>
        <time>2021-03-18T11:42:50Z</time>
      </trkpt>
      <trkpt lat="45.55247" lon="4.8576">
        <ele>270.7183</ele>
        <time>2021-03-18T11:42:52Z</time>
      </trkpt>
      <trkpt lat="45.55241" lon="4.85759">
        <ele>271.14322</ele>
        <time>2021-03-18T11:42:54Z</time>
      </trkpt>
      <trkpt lat="45.55236" lon="4.85758">
        <ele>271.62445</ele>
        <time>2021-03-18T11:42:56Z</time>
      </trkpt>
      <trkpt lat="45.5523" lon="4.85758">
        <ele>271.48624</ele>
        <time>2021-03-18T11:42:58Z</time>
      </trkpt>
      <trkpt lat="45.55223" lon="4.85757">
        <ele>271.68588</ele>
        <time>2021-03-18T11:43:00Z</time>
      </trkpt>
      <trkpt lat="45.55217" lon="4.85755">
        <ele>271.8907</ele>
        <time>2021-03-18T11:43:02Z</time>
      </trkpt>
      <trkpt lat="45.55211" lon="4.85754">
        <ele>272.25418</ele>
        <time>2021-03-18T11:43:04Z</time>
      </trkpt>
      <trkpt lat="45.55205" lon="4.85752">
        <ele>272.33606</ele>
        <time>2021-03-18T11:43:06Z</time>
      </trkpt>
      <trkpt lat="45.55199" lon="4.85752">
        <ele>272.41797</ele>
        <time>2021-03-18T11:43:08Z</time>
      </trkpt>
      <trkpt lat="45.55194" lon="4.8575">
        <ele>272.59717</ele>
        <time>2021-03-18T11:43:10Z</time>
      </trkpt>
      <trkpt lat="45.55188" lon="4.85749">
        <ele>272.63812</ele>
        <time>2021-03-18T11:43:12Z</time>
      </trkpt>
      <trkpt lat="45.55182" lon="4.85749">
        <ele>272.5767</ele>
        <time>2021-03-18T11:43:14Z</time>
      </trkpt>
      <trkpt lat="45.55176" lon="4.85749">
        <ele>272.88898</ele>
        <time>2021-03-18T11:43:16Z</time>
      </trkpt>
      <trkpt lat="45.5517" lon="4.85747">
        <ele>272.44357</ele>
        <time>2021-03-18T11:43:18Z</time>
      </trkpt>
      <trkpt lat="45.55164" lon="4.85746">
        <ele>272.36166</ele>
        <time>2021-03-18T11:43:20Z</time>
      </trkpt>
      <trkpt lat="45.55156" lon="4.85743">
        <ele>272.0033</ele>
        <time>2021-03-18T11:43:22Z</time>
      </trkpt>
      <trkpt lat="45.5515" lon="4.85741">
        <ele>272.05963</ele>
        <time>2021-03-18T11:43:24Z</time>
      </trkpt>
      <trkpt lat="45.55142" lon="4.8574">
        <ele>272.25418</ele>
        <time>2021-03-18T11:43:26Z</time>
      </trkpt>
      <trkpt lat="45.55137" lon="4.85739">
        <ele>271.87018</ele>
        <time>2021-03-18T11:43:28Z</time>
      </trkpt>
      <trkpt lat="45.55132" lon="4.85738">
        <ele>272.21832</ele>
        <time>2021-03-18T11:43:30Z</time>
      </trkpt>
      <trkpt lat="45.55126" lon="4.85737">
        <ele>272.79172</ele>
        <time>2021-03-18T11:43:32Z</time>
      </trkpt>
      <trkpt lat="45.55121" lon="4.85734">
        <ele>273.21664</ele>
        <time>2021-03-18T11:43:34Z</time>
      </trkpt>
      <trkpt lat="45.55117" lon="4.85726">
        <ele>273.16544</ele>
        <time>2021-03-18T11:43:36Z</time>
      </trkpt>
      <trkpt lat="45.55114" lon="4.85717">
        <ele>273.37534</ele>
        <time>2021-03-18T11:43:38Z</time>
      </trkpt>
      <trkpt lat="45.55113" lon="4.85707">
        <ele>273.40607</ele>
        <time>2021-03-18T11:43:40Z</time>
      </trkpt>
      <trkpt lat="45.55114" lon="4.85696">
        <ele>273.45215</ele>
        <time>2021-03-18T11:43:42Z</time>
      </trkpt>
      <trkpt lat="45.55114" lon="4.85685">
        <ele>274.67572</ele>
        <time>2021-03-18T11:43:44Z</time>
      </trkpt>
      <trkpt lat="45.55114" lon="4.85676">
        <ele>274.40952</ele>
        <time>2021-03-18T11:43:46Z</time>
      </trkpt>
      <trkpt lat="45.55114" lon="4.85666">
        <ele>274.7781</ele>
        <time>2021-03-18T11:43:48Z</time>
      </trkpt>
      <trkpt lat="45.55113" lon="4.85657">
        <ele>274.6706</ele>
        <time>2021-03-18T11:43:50Z</time>
      </trkpt>
      <trkpt lat="45.55113" lon="4.85649">
        <ele>275.1672</ele>
        <time>2021-03-18T11:43:52Z</time>
      </trkpt>
      <trkpt lat="45.55113" lon="4.85641">
        <ele>275.39246</ele>
        <time>2021-03-18T11:43:54Z</time>
      </trkpt>
      <trkpt lat="45.55113" lon="4.85632">
        <ele>275.32077</ele>
        <time>2021-03-18T11:43:56Z</time>
      </trkpt>
      <trkpt lat="45.55113" lon="4.85624">
        <ele>275.59723</ele>
        <time>2021-03-18T11:43:58Z</time>
      </trkpt>
      <trkpt lat="45.55113" lon="4.85615">
        <ele>276.0785</ele>
        <time>2021-03-18T11:44:00Z</time>
      </trkpt>
      <trkpt lat="45.55114" lon="4.85606">
        <ele>275.843</ele>
        <time>2021-03-18T11:44:02Z</time>
      </trkpt>
      <trkpt lat="45.55116" lon="4.85598">
        <ele>275.6126</ele>
        <time>2021-03-18T11:44:04Z</time>
      </trkpt>
      <trkpt lat="45.55119" lon="4.85591">
        <ele>276.0324</ele>
        <time>2021-03-18T11:44:06Z</time>
      </trkpt>
      <trkpt lat="45.55121" lon="4.85583">
        <ele>275.99658</ele>
        <time>2021-03-18T11:44:08Z</time>
      </trkpt>
      <trkpt lat="45.55124" lon="4.85576">
        <ele>276.36008</ele>
        <time>2021-03-18T11:44:10Z</time>
      </trkpt>
      <trkpt lat="45.55126" lon="4.85568">
        <ele>276.0887</ele>
        <time>2021-03-18T11:44:12Z</time>
      </trkpt>
      <trkpt lat="45.55129" lon="4.8556">
        <ele>276.7184</ele>
        <time>2021-03-18T11:44:14Z</time>
      </trkpt>
      <trkpt lat="45.55131" lon="4.85552">
        <ele>277.1792</ele>
        <time>2021-03-18T11:44:16Z</time>
      </trkpt>
      <trkpt lat="45.55133" lon="4.85545">
        <ele>276.97952</ele>
        <time>2021-03-18T11:44:18Z</time>
      </trkpt>
      <trkpt lat="45.55134" lon="4.85538">
        <ele>278.07513</ele>
        <time>2021-03-18T11:44:20Z</time>
      </trkpt>
      <trkpt lat="45.55136" lon="4.85531">
        <ele>278.88913</ele>
        <time>2021-03-18T11:44:22Z</time>
      </trkpt>
      <trkpt lat="45.55138" lon="4.85524">
        <ele>278.19287</ele>
        <time>2021-03-18T11:44:24Z</time>
      </trkpt>
      <trkpt lat="45.55141" lon="4.85517">
        <ele>278.9813</ele>
        <time>2021-03-18T11:44:26Z</time>
      </trkpt>
      <trkpt lat="45.55143" lon="4.8551">
        <ele>279.42157</ele>
        <time>2021-03-18T11:44:28Z</time>
      </trkpt>
      <trkpt lat="45.55145" lon="4.85503">
        <ele>280.6298</ele>
        <time>2021-03-18T11:44:30Z</time>
      </trkpt>
      <trkpt lat="45.55146" lon="4.85499">
        <ele>281.32092</ele>
        <time>2021-03-18T11:44:31Z</time>
      </trkpt>
      <trkpt lat="45.55147" lon="4.85496">
        <ele>281.2083</ele>
        <time>2021-03-18T11:44:32Z</time>
      </trkpt>
      <trkpt lat="45.55149" lon="4.85488">
        <ele>280.5837</ele>
        <time>2021-03-18T11:44:34Z</time>
      </trkpt>
      <trkpt lat="45.5515" lon="4.85481">
        <ele>281.12128</ele>
        <time>2021-03-18T11:44:36Z</time>
      </trkpt>
      <trkpt lat="45.55152" lon="4.85474">
        <ele>281.58203</ele>
        <time>2021-03-18T11:44:38Z</time>
      </trkpt>
      <trkpt lat="45.55153" lon="4.85471">
        <ele>281.40796</ele>
        <time>2021-03-18T11:44:39Z</time>
      </trkpt>
      <trkpt lat="45.55155" lon="4.85464">
        <ele>282.28342</ele>
        <time>2021-03-18T11:44:42Z</time>
      </trkpt>
      <trkpt lat="45.55156" lon="4.85461">
        <ele>282.0428</ele>
        <time>2021-03-18T11:44:43Z</time>
      </trkpt>
      <trkpt lat="45.55157" lon="4.85454">
        <ele>282.73907</ele>
        <time>2021-03-18T11:44:45Z</time>
      </trkpt>
      <trkpt lat="45.55158" lon="4.85451">
        <ele>282.54453</ele>
        <time>2021-03-18T11:44:46Z</time>
      </trkpt>
      <trkpt lat="45.55159" lon="4.85443">
        <ele>283.4763</ele>
        <time>2021-03-18T11:44:48Z</time>
      </trkpt>
      <trkpt lat="45.55161" lon="4.8544">
        <ele>283.59915</ele>
        <time>2021-03-18T11:44:49Z</time>
      </trkpt>
      <trkpt lat="45.55161" lon="4.85436">
        <ele>283.93704</ele>
        <time>2021-03-18T11:44:50Z</time>
      </trkpt>
      <trkpt lat="45.55162" lon="4.85433">
        <ele>284.54626</ele>
        <time>2021-03-18T11:44:51Z</time>
      </trkpt>
      <trkpt lat="45.55163" lon="4.85429">
        <ele>285.24252</ele>
        <time>2021-03-18T11:44:52Z</time>
      </trkpt>
      <trkpt lat="45.55163" lon="4.85426">
        <ele>285.03775</ele>
        <time>2021-03-18T11:44:53Z</time>
      </trkpt>
      <trkpt lat="45.55164" lon="4.85419">
        <ele>286.5583</ele>
        <time>2021-03-18T11:44:55Z</time>
      </trkpt>
      <trkpt lat="45.55165" lon="4.85415">
        <ele>286.5685</ele>
        <time>2021-03-18T11:44:56Z</time>
      </trkpt>
      <trkpt lat="45.55165" lon="4.85412">
        <ele>285.48315</ele>
        <time>2021-03-18T11:44:57Z</time>
      </trkpt>
      <trkpt lat="45.55167" lon="4.85406">
        <ele>285.68283</ele>
        <time>2021-03-18T11:44:59Z</time>
      </trkpt>
      <trkpt lat="45.5517" lon="4.85398">
        <ele>287.29547</ele>
        <time>2021-03-18T11:45:02Z</time>
      </trkpt>
      <trkpt lat="45.55172" lon="4.85396">
        <ele>286.53268</ele>
        <time>2021-03-18T11:45:03Z</time>
      </trkpt>
      <trkpt lat="45.55174" lon="4.85388">
        <ele>287.59244</ele>
        <time>2021-03-18T11:45:05Z</time>
      </trkpt>
      <trkpt lat="45.55174" lon="4.85384">
        <ele>287.46442</ele>
        <time>2021-03-18T11:45:06Z</time>
      </trkpt>
      <trkpt lat="45.55172" lon="4.85375">
        <ele>287.96103</ele>
        <time>2021-03-18T11:45:09Z</time>
      </trkpt>
      <trkpt lat="45.5517" lon="4.85372">
        <ele>287.9815</ele>
        <time>2021-03-18T11:45:10Z</time>
      </trkpt>
      <trkpt lat="45.55168" lon="4.85366">
        <ele>288.63168</ele>
        <time>2021-03-18T11:45:12Z</time>
      </trkpt>
      <trkpt lat="45.55166" lon="4.85363">
        <ele>288.9184</ele>
        <time>2021-03-18T11:45:13Z</time>
      </trkpt>
      <trkpt lat="45.55165" lon="4.85359">
        <ele>289.1027</ele>
        <time>2021-03-18T11:45:14Z</time>
      </trkpt>
      <trkpt lat="45.55164" lon="4.85355">
        <ele>289.39453</ele>
        <time>2021-03-18T11:45:15Z</time>
      </trkpt>
      <trkpt lat="45.55163" lon="4.85351">
        <ele>289.96793</ele>
        <time>2021-03-18T11:45:16Z</time>
      </trkpt>
      <trkpt lat="45.55162" lon="4.85348">
        <ele>290.42355</ele>
        <time>2021-03-18T11:45:17Z</time>
      </trkpt>
      <trkpt lat="45.55161" lon="4.85344">
        <ele>290.4901</ele>
        <time>2021-03-18T11:45:18Z</time>
      </trkpt>
      <trkpt lat="45.55161" lon="4.85341">
        <ele>290.7512</ele>
        <time>2021-03-18T11:45:19Z</time>
      </trkpt>
      <trkpt lat="45.5516" lon="4.85337">
        <ele>290.92526</ele>
        <time>2021-03-18T11:45:20Z</time>
      </trkpt>
      <trkpt lat="45.55159" lon="4.85333">
        <ele>291.5294</ele>
        <time>2021-03-18T11:45:21Z</time>
      </trkpt>
      <trkpt lat="45.55159" lon="4.8533">
        <ele>291.71368</ele>
        <time>2021-03-18T11:45:22Z</time>
      </trkpt>
      <trkpt lat="45.55159" lon="4.85326">
        <ele>291.5703</ele>
        <time>2021-03-18T11:45:23Z</time>
      </trkpt>
      <trkpt lat="45.55159" lon="4.8532">
        <ele>292.3792</ele>
        <time>2021-03-18T11:45:25Z</time>
      </trkpt>
      <trkpt lat="45.55159" lon="4.85317">
        <ele>293.02942</ele>
        <time>2021-03-18T11:45:26Z</time>
      </trkpt>
      <trkpt lat="45.5516" lon="4.85314">
        <ele>293.04477</ele>
        <time>2021-03-18T11:45:27Z</time>
      </trkpt>
      <trkpt lat="45.5516" lon="4.85311">
        <ele>293.34683</ele>
        <time>2021-03-18T11:45:28Z</time>
      </trkpt>
      <trkpt lat="45.55161" lon="4.85308">
        <ele>293.58746</ele>
        <time>2021-03-18T11:45:29Z</time>
      </trkpt>
      <trkpt lat="45.55162" lon="4.85304">
        <ele>294.08405</ele>
        <time>2021-03-18T11:45:30Z</time>
      </trkpt>
      <trkpt lat="45.55163" lon="4.85301">
        <ele>294.0175</ele>
        <time>2021-03-18T11:45:31Z</time>
      </trkpt>
      <trkpt lat="45.55165" lon="4.85294">
        <ele>294.52432</ele>
        <time>2021-03-18T11:45:33Z</time>
      </trkpt>
      <trkpt lat="45.55166" lon="4.85291">
        <ele>294.852</ele>
        <time>2021-03-18T11:45:34Z</time>
      </trkpt>
      <trkpt lat="45.55167" lon="4.85287">
        <ele>294.81616</ele>
        <time>2021-03-18T11:45:35Z</time>
      </trkpt>
      <trkpt lat="45.5517" lon="4.85281">
        <ele>295.53802</ele>
        <time>2021-03-18T11:45:37Z</time>
      </trkpt>
      <trkpt lat="45.55171" lon="4.85277">
        <ele>295.70697</ele>
        <time>2021-03-18T11:45:38Z</time>
      </trkpt>
      <trkpt lat="45.55171" lon="4.85274">
        <ele>296.0807</ele>
        <time>2021-03-18T11:45:39Z</time>
      </trkpt>
      <trkpt lat="45.55171" lon="4.85271">
        <ele>296.2701</ele>
        <time>2021-03-18T11:45:40Z</time>
      </trkpt>
      <trkpt lat="45.55171" lon="4.85268">
        <ele>296.2906</ele>
        <time>2021-03-18T11:45:41Z</time>
      </trkpt>
      <trkpt lat="45.55171" lon="4.85265">
        <ele>296.28546</ele>
        <time>2021-03-18T11:45:42Z</time>
      </trkpt>
      <trkpt lat="45.55171" lon="4.85255">
        <ele>297.41177</ele>
        <time>2021-03-18T11:45:45Z</time>
      </trkpt>
      <trkpt lat="45.55171" lon="4.85251">
        <ele>297.63702</ele>
        <time>2021-03-18T11:45:46Z</time>
      </trkpt>
      <trkpt lat="45.55171" lon="4.85247">
        <ele>297.86743</ele>
        <time>2021-03-18T11:45:47Z</time>
      </trkpt>
      <trkpt lat="45.55172" lon="4.85244">
        <ele>298.16946</ele>
        <time>2021-03-18T11:45:48Z</time>
      </trkpt>
      <trkpt lat="45.55172" lon="4.8524">
        <ele>298.50226</ele>
        <time>2021-03-18T11:45:49Z</time>
      </trkpt>
      <trkpt lat="45.55172" lon="4.85236">
        <ele>299.18314</ele>
        <time>2021-03-18T11:45:50Z</time>
      </trkpt>
      <trkpt lat="45.55172" lon="4.85233">
        <ele>299.39307</ele>
        <time>2021-03-18T11:45:51Z</time>
      </trkpt>
      <trkpt lat="45.55172" lon="4.8523">
        <ele>299.75143</ele>
        <time>2021-03-18T11:45:52Z</time>
      </trkpt>
      <trkpt lat="45.55172" lon="4.85226">
        <ele>300.24292</ele>
        <time>2021-03-18T11:45:53Z</time>
      </trkpt>
      <trkpt lat="45.55173" lon="4.85223">
        <ele>300.6013</ele>
        <time>2021-03-18T11:45:54Z</time>
      </trkpt>
      <trkpt lat="45.55173" lon="4.85219">
        <ele>300.5296</ele>
        <time>2021-03-18T11:45:55Z</time>
      </trkpt>
      <trkpt lat="45.55172" lon="4.85211">
        <ele>301.34363</ele>
        <time>2021-03-18T11:45:57Z</time>
      </trkpt>
      <trkpt lat="45.55172" lon="4.85208">
        <ele>301.82486</ele>
        <time>2021-03-18T11:45:58Z</time>
      </trkpt>
      <trkpt lat="45.55172" lon="4.85206">
        <ele>302.26004</ele>
        <time>2021-03-18T11:45:59Z</time>
      </trkpt>
      <trkpt lat="45.55172" lon="4.85203">
        <ele>302.58768</ele>
        <time>2021-03-18T11:46:00Z</time>
      </trkpt>
      <trkpt lat="45.55172" lon="4.85201">
        <ele>303.09964</ele>
        <time>2021-03-18T11:46:01Z</time>
      </trkpt>
      <trkpt lat="45.55172" lon="4.85198">
        <ele>303.43753</ele>
        <time>2021-03-18T11:46:02Z</time>
      </trkpt>
      <trkpt lat="45.55171" lon="4.85196">
        <ele>303.64743</ele>
        <time>2021-03-18T11:46:03Z</time>
      </trkpt>
      <trkpt lat="45.55171" lon="4.85193">
        <ele>304.32834</ele>
        <time>2021-03-18T11:46:04Z</time>
      </trkpt>
      <trkpt lat="45.5517" lon="4.85191">
        <ele>304.2157</ele>
        <time>2021-03-18T11:46:05Z</time>
      </trkpt>
      <trkpt lat="45.55169" lon="4.85183">
        <ele>305.5417</ele>
        <time>2021-03-18T11:46:08Z</time>
      </trkpt>
      <trkpt lat="45.55169" lon="4.8518">
        <ele>305.68503</ele>
        <time>2021-03-18T11:46:09Z</time>
      </trkpt>
      <trkpt lat="45.55169" lon="4.85177">
        <ele>306.00754</ele>
        <time>2021-03-18T11:46:10Z</time>
      </trkpt>
      <trkpt lat="45.55169" lon="4.85174">
        <ele>306.46832</ele>
        <time>2021-03-18T11:46:11Z</time>
      </trkpt>
      <trkpt lat="45.5517" lon="4.85171">
        <ele>306.81134</ele>
        <time>2021-03-18T11:46:12Z</time>
      </trkpt>
      <trkpt lat="45.55171" lon="4.85167">
        <ele>306.7806</ele>
        <time>2021-03-18T11:46:13Z</time>
      </trkpt>
      <trkpt lat="45.55172" lon="4.8516">
        <ele>306.84204</ele>
        <time>2021-03-18T11:46:15Z</time>
      </trkpt>
      <trkpt lat="45.55173" lon="4.85157">
        <ele>307.25162</ele>
        <time>2021-03-18T11:46:16Z</time>
      </trkpt>
      <trkpt lat="45.55174" lon="4.85153">
        <ele>307.72772</ele>
        <time>2021-03-18T11:46:17Z</time>
      </trkpt>
      <trkpt lat="45.55175" lon="4.8515">
        <ele>308.02466</ele>
        <time>2021-03-18T11:46:18Z</time>
      </trkpt>
      <trkpt lat="45.55176" lon="4.85146">
        <ele>308.07587</ele>
        <time>2021-03-18T11:46:19Z</time>
      </trkpt>
      <trkpt lat="45.55178" lon="4.85142">
        <ele>307.89667</ele>
        <time>2021-03-18T11:46:20Z</time>
      </trkpt>
      <trkpt lat="45.5518" lon="4.85135">
        <ele>307.92737</ele>
        <time>2021-03-18T11:46:22Z</time>
      </trkpt>
      <trkpt lat="45.55182" lon="4.85129">
        <ele>307.75333</ele>
        <time>2021-03-18T11:46:24Z</time>
      </trkpt>
      <trkpt lat="45.55183" lon="4.85122">
        <ele>307.91205</ele>
        <time>2021-03-18T11:46:26Z</time>
      </trkpt>
      <trkpt lat="45.55185" lon="4.85115">
        <ele>307.68164</ele>
        <time>2021-03-18T11:46:28Z</time>
      </trkpt>
      <trkpt lat="45.55187" lon="4.85107">
        <ele>307.26697</ele>
        <time>2021-03-18T11:46:30Z</time>
      </trkpt>
      <trkpt lat="45.55189" lon="4.85099">
        <ele>307.47174</ele>
        <time>2021-03-18T11:46:32Z</time>
      </trkpt>
      <trkpt lat="45.5519" lon="4.85091">
        <ele>307.42056</ele>
        <time>2021-03-18T11:46:34Z</time>
      </trkpt>
      <trkpt lat="45.55193" lon="4.85083">
        <ele>307.27722</ele>
        <time>2021-03-18T11:46:36Z</time>
      </trkpt>
      <trkpt lat="45.55196" lon="4.85074">
        <ele>307.7431</ele>
        <time>2021-03-18T11:46:38Z</time>
      </trkpt>
      <trkpt lat="45.552" lon="4.85066">
        <ele>307.31305</ele>
        <time>2021-03-18T11:46:40Z</time>
      </trkpt>
      <trkpt lat="45.55204" lon="4.85059">
        <ele>307.47174</ele>
        <time>2021-03-18T11:46:42Z</time>
      </trkpt>
      <trkpt lat="45.55206" lon="4.85053">
        <ele>307.90692</ele>
        <time>2021-03-18T11:46:44Z</time>
      </trkpt>
      <trkpt lat="45.55206" lon="4.85046">
        <ele>307.6663</ele>
        <time>2021-03-18T11:46:46Z</time>
      </trkpt>
      <trkpt lat="45.55201" lon="4.85038">
        <ele>308.6544</ele>
        <time>2021-03-18T11:46:49Z</time>
      </trkpt>
      <trkpt lat="45.55199" lon="4.85035">
        <ele>308.80795</ele>
        <time>2021-03-18T11:46:50Z</time>
      </trkpt>
      <trkpt lat="45.55198" lon="4.85032">
        <ele>308.51102</ele>
        <time>2021-03-18T11:46:51Z</time>
      </trkpt>
      <trkpt lat="45.55195" lon="4.85024">
        <ele>308.51614</ele>
        <time>2021-03-18T11:46:53Z</time>
      </trkpt>
      <trkpt lat="45.55191" lon="4.85018">
        <ele>309.25848</ele>
        <time>2021-03-18T11:46:55Z</time>
      </trkpt>
      <trkpt lat="45.5519" lon="4.85015">
        <ele>309.17145</ele>
        <time>2021-03-18T11:46:56Z</time>
      </trkpt>
      <trkpt lat="45.55187" lon="4.85008">
        <ele>308.33185</ele>
        <time>2021-03-18T11:46:58Z</time>
      </trkpt>
      <trkpt lat="45.55185" lon="4.85">
        <ele>308.02466</ele>
        <time>2021-03-18T11:47:00Z</time>
      </trkpt>
      <trkpt lat="45.55185" lon="4.8499">
        <ele>306.73453</ele>
        <time>2021-03-18T11:47:02Z</time>
      </trkpt>
      <trkpt lat="45.55187" lon="4.84982">
        <ele>306.68332</ele>
        <time>2021-03-18T11:47:04Z</time>
      </trkpt>
      <trkpt lat="45.5519" lon="4.84972">
        <ele>305.0246</ele>
        <time>2021-03-18T11:47:06Z</time>
      </trkpt>
      <trkpt lat="45.55193" lon="4.84966">
        <ele>305.11163</ele>
        <time>2021-03-18T11:47:08Z</time>
      </trkpt>
      <trkpt lat="45.55193" lon="4.84957">
        <ele>304.6867</ele>
        <time>2021-03-18T11:47:10Z</time>
      </trkpt>
      <trkpt lat="45.55191" lon="4.84951">
        <ele>304.33344</ele>
        <time>2021-03-18T11:47:12Z</time>
      </trkpt>
      <trkpt lat="45.55187" lon="4.84944">
        <ele>304.3386</ele>
        <time>2021-03-18T11:47:14Z</time>
      </trkpt>
      <trkpt lat="45.55182" lon="4.84937">
        <ele>304.99387</ele>
        <time>2021-03-18T11:47:16Z</time>
      </trkpt>
      <trkpt lat="45.55177" lon="4.84931">
        <ele>304.82492</ele>
        <time>2021-03-18T11:47:18Z</time>
      </trkpt>
      <trkpt lat="45.55172" lon="4.84925">
        <ele>303.1252</ele>
        <time>2021-03-18T11:47:20Z</time>
      </trkpt>
      <trkpt lat="45.55166" lon="4.84923">
        <ele>302.50064</ele>
        <time>2021-03-18T11:47:23Z</time>
      </trkpt>
      <trkpt lat="45.5516" lon="4.84922">
        <ele>302.34705</ele>
        <time>2021-03-18T11:47:26Z</time>
      </trkpt>
      <trkpt lat="45.55156" lon="4.84924">
        <ele>302.3163</ele>
        <time>2021-03-18T11:47:27Z</time>
      </trkpt>
      <trkpt lat="45.55151" lon="4.84927">
        <ele>301.87604</ele>
        <time>2021-03-18T11:47:29Z</time>
      </trkpt>
      <trkpt lat="45.55148" lon="4.8493">
        <ele>301.4204</ele>
        <time>2021-03-18T11:47:31Z</time>
      </trkpt>
      <trkpt lat="45.55142" lon="4.84932">
        <ele>300.66272</ele>
        <time>2021-03-18T11:47:33Z</time>
      </trkpt>
      <trkpt lat="45.55135" lon="4.84937">
        <ele>300.18658</ele>
        <time>2021-03-18T11:47:35Z</time>
      </trkpt>
      <trkpt lat="45.55129" lon="4.8494">
        <ele>299.08588</ele>
        <time>2021-03-18T11:47:37Z</time>
      </trkpt>
      <trkpt lat="45.55122" lon="4.84943">
        <ele>298.58926</ele>
        <time>2021-03-18T11:47:39Z</time>
      </trkpt>
      <trkpt lat="45.55117" lon="4.84945">
        <ele>297.70358</ele>
        <time>2021-03-18T11:47:41Z</time>
      </trkpt>
      <trkpt lat="45.55111" lon="4.84947">
        <ele>296.37762</ele>
        <time>2021-03-18T11:47:44Z</time>
      </trkpt>
      <trkpt lat="45.55104" lon="4.84951">
        <ele>295.37418</ele>
        <time>2021-03-18T11:47:46Z</time>
      </trkpt>
      <trkpt lat="45.55099" lon="4.84952">
        <ele>295.0363</ele>
        <time>2021-03-18T11:47:48Z</time>
      </trkpt>
      <trkpt lat="45.55092" lon="4.84955">
        <ele>293.75128</ele>
        <time>2021-03-18T11:47:50Z</time>
      </trkpt>
      <trkpt lat="45.55087" lon="4.84957">
        <ele>293.16763</ele>
        <time>2021-03-18T11:47:51Z</time>
      </trkpt>
      <trkpt lat="45.55081" lon="4.84961">
        <ele>293.45947</ele>
        <time>2021-03-18T11:47:53Z</time>
      </trkpt>
      <trkpt lat="45.55077" lon="4.84964">
        <ele>292.98846</ele>
        <time>2021-03-18T11:47:55Z</time>
      </trkpt>
      <trkpt lat="45.55072" lon="4.84967">
        <ele>292.6608</ele>
        <time>2021-03-18T11:47:57Z</time>
      </trkpt>
      <trkpt lat="45.55067" lon="4.84971">
        <ele>292.03622</ele>
        <time>2021-03-18T11:47:59Z</time>
      </trkpt>
      <trkpt lat="45.55064" lon="4.84975">
        <ele>291.1198</ele>
        <time>2021-03-18T11:48:01Z</time>
      </trkpt>
      <trkpt lat="45.55059" lon="4.8498">
        <ele>290.83823</ele>
        <time>2021-03-18T11:48:03Z</time>
      </trkpt>
      <trkpt lat="45.55056" lon="4.84984">
        <ele>290.32626</ele>
        <time>2021-03-18T11:48:05Z</time>
      </trkpt>
      <trkpt lat="45.55049" lon="4.84989">
        <ele>289.79382</ele>
        <time>2021-03-18T11:48:07Z</time>
      </trkpt>
      <trkpt lat="45.55043" lon="4.84993">
        <ele>289.81943</ele>
        <time>2021-03-18T11:48:09Z</time>
      </trkpt>
      <trkpt lat="45.55037" lon="4.84997">
        <ele>288.72897</ele>
        <time>2021-03-18T11:48:11Z</time>
      </trkpt>
      <trkpt lat="45.55032" lon="4.85001">
        <ele>289.1539</ele>
        <time>2021-03-18T11:48:13Z</time>
      </trkpt>
      <trkpt lat="45.55027" lon="4.85005">
        <ele>288.89792</ele>
        <time>2021-03-18T11:48:15Z</time>
      </trkpt>
      <trkpt lat="45.55023" lon="4.8501">
        <ele>287.73578</ele>
        <time>2021-03-18T11:48:18Z</time>
      </trkpt>
      <trkpt lat="45.55018" lon="4.85015">
        <ele>287.59753</ele>
        <time>2021-03-18T11:48:21Z</time>
      </trkpt>
      <trkpt lat="45.55011" lon="4.8502">
        <ele>287.62827</ele>
        <time>2021-03-18T11:48:24Z</time>
      </trkpt>
      <trkpt lat="45.55006" lon="4.85024">
        <ele>287.01392</ele>
        <time>2021-03-18T11:48:26Z</time>
      </trkpt>
      <trkpt lat="45.55001" lon="4.85028">
        <ele>286.333</ele>
        <time>2021-03-18T11:48:28Z</time>
      </trkpt>
      <trkpt lat="45.54997" lon="4.85031">
        <ele>286.20502</ele>
        <time>2021-03-18T11:48:30Z</time>
      </trkpt>
      <trkpt lat="45.54992" lon="4.85034">
        <ele>286.45074</ele>
        <time>2021-03-18T11:48:33Z</time>
      </trkpt>
      <trkpt lat="45.54984" lon="4.85037">
        <ele>285.91833</ele>
        <time>2021-03-18T11:48:36Z</time>
      </trkpt>
      <trkpt lat="45.54977" lon="4.85039">
        <ele>285.3449</ele>
        <time>2021-03-18T11:48:38Z</time>
      </trkpt>
      <trkpt lat="45.54969" lon="4.8504">
        <ele>285.5702</ele>
        <time>2021-03-18T11:48:40Z</time>
      </trkpt>
      <trkpt lat="45.54962" lon="4.8504">
        <ele>285.32956</ele>
        <time>2021-03-18T11:48:42Z</time>
      </trkpt>
      <trkpt lat="45.54956" lon="4.85041">
        <ele>285.38586</ele>
        <time>2021-03-18T11:48:44Z</time>
      </trkpt>
      <trkpt lat="45.54952" lon="4.85041">
        <ele>285.44733</ele>
        <time>2021-03-18T11:48:46Z</time>
      </trkpt>
      <trkpt lat="45.54945" lon="4.85041">
        <ele>285.08383</ele>
        <time>2021-03-18T11:48:48Z</time>
      </trkpt>
      <trkpt lat="45.54938" lon="4.8504">
        <ele>285.1606</ele>
        <time>2021-03-18T11:48:50Z</time>
      </trkpt>
      <trkpt lat="45.54931" lon="4.85039">
        <ele>284.7869</ele>
        <time>2021-03-18T11:48:52Z</time>
      </trkpt>
      <trkpt lat="45.54925" lon="4.85037">
        <ele>285.32443</ele>
        <time>2021-03-18T11:48:54Z</time>
      </trkpt>
      <trkpt lat="45.5492" lon="4.85036">
        <ele>284.85345</ele>
        <time>2021-03-18T11:48:56Z</time>
      </trkpt>
      <trkpt lat="45.54914" lon="4.85036">
        <ele>285.60092</ele>
        <time>2021-03-18T11:48:58Z</time>
      </trkpt>
      <trkpt lat="45.54908" lon="4.85035">
        <ele>285.5446</ele>
        <time>2021-03-18T11:49:00Z</time>
      </trkpt>
      <trkpt lat="45.54902" lon="4.85035">
        <ele>285.74426</ele>
        <time>2021-03-18T11:49:02Z</time>
      </trkpt>
      <trkpt lat="45.54896" lon="4.85034">
        <ele>285.92343</ele>
        <time>2021-03-18T11:49:04Z</time>
      </trkpt>
      <trkpt lat="45.54891" lon="4.85033">
        <ele>285.0787</ele>
        <time>2021-03-18T11:49:06Z</time>
      </trkpt>
      <trkpt lat="45.54885" lon="4.85031">
        <ele>285.21182</ele>
        <time>2021-03-18T11:49:08Z</time>
      </trkpt>
      <trkpt lat="45.54879" lon="4.85029">
        <ele>285.3142</ele>
        <time>2021-03-18T11:49:10Z</time>
      </trkpt>
      <trkpt lat="45.54874" lon="4.85027">
        <ele>285.81082</ele>
        <time>2021-03-18T11:49:12Z</time>
      </trkpt>
      <trkpt lat="45.5487" lon="4.85025">
        <ele>285.80057</ele>
        <time>2021-03-18T11:49:14Z</time>
      </trkpt>
      <trkpt lat="45.54864" lon="4.85023">
        <ele>285.9644</ele>
        <time>2021-03-18T11:49:16Z</time>
      </trkpt>
      <trkpt lat="45.54859" lon="4.85021">
        <ele>286.05655</ele>
        <time>2021-03-18T11:49:18Z</time>
      </trkpt>
      <trkpt lat="45.54854" lon="4.85019">
        <ele>285.7033</ele>
        <time>2021-03-18T11:49:20Z</time>
      </trkpt>
      <trkpt lat="45.54847" lon="4.85016">
        <ele>286.07703</ele>
        <time>2021-03-18T11:49:23Z</time>
      </trkpt>
      <trkpt lat="45.54842" lon="4.85013">
        <ele>286.65042</ele>
        <time>2021-03-18T11:49:25Z</time>
      </trkpt>
      <trkpt lat="45.54837" lon="4.85009">
        <ele>287.46442</ele>
        <time>2021-03-18T11:49:27Z</time>
      </trkpt>
      <trkpt lat="45.54833" lon="4.85004">
        <ele>287.68457</ele>
        <time>2021-03-18T11:49:29Z</time>
      </trkpt>
      <trkpt lat="45.54828" lon="4.85001">
        <ele>288.27332</ele>
        <time>2021-03-18T11:49:31Z</time>
      </trkpt>
      <trkpt lat="45.54822" lon="4.84994">
        <ele>288.64706</ele>
        <time>2021-03-18T11:49:33Z</time>
      </trkpt>
      <trkpt lat="45.54817" lon="4.84988">
        <ele>288.85184</ele>
        <time>2021-03-18T11:49:35Z</time>
      </trkpt>
      <trkpt lat="45.54814" lon="4.84981">
        <ele>289.04126</ele>
        <time>2021-03-18T11:49:37Z</time>
      </trkpt>
      <trkpt lat="45.5481" lon="4.84974">
        <ele>289.3126</ele>
        <time>2021-03-18T11:49:39Z</time>
      </trkpt>
      <trkpt lat="45.54808" lon="4.84968">
        <ele>289.63004</ele>
        <time>2021-03-18T11:49:41Z</time>
      </trkpt>
      <trkpt lat="45.54805" lon="4.84961">
        <ele>289.9218</ele>
        <time>2021-03-18T11:49:43Z</time>
      </trkpt>
      <trkpt lat="45.54803" lon="4.84955">
        <ele>289.72726</ele>
        <time>2021-03-18T11:49:45Z</time>
      </trkpt>
      <trkpt lat="45.548" lon="4.84946">
        <ele>288.93887</ele>
        <time>2021-03-18T11:49:47Z</time>
      </trkpt>
      <trkpt lat="45.54799" lon="4.84937">
        <ele>288.32965</ele>
        <time>2021-03-18T11:49:50Z</time>
      </trkpt>
      <trkpt lat="45.54799" lon="4.84925">
        <ele>287.62314</ele>
        <time>2021-03-18T11:49:53Z</time>
      </trkpt>
      <trkpt lat="45.54799" lon="4.84915">
        <ele>287.08557</ele>
        <time>2021-03-18T11:49:55Z</time>
      </trkpt>
      <trkpt lat="45.548" lon="4.84908">
        <ele>286.81937</ele>
        <time>2021-03-18T11:49:57Z</time>
      </trkpt>
      <trkpt lat="45.54801" lon="4.84901">
        <ele>286.02072</ele>
        <time>2021-03-18T11:49:59Z</time>
      </trkpt>
      <trkpt lat="45.54802" lon="4.84894">
        <ele>285.95416</ele>
        <time>2021-03-18T11:50:01Z</time>
      </trkpt>
      <trkpt lat="45.54803" lon="4.84885">
        <ele>285.59576</ele>
        <time>2021-03-18T11:50:03Z</time>
      </trkpt>
      <trkpt lat="45.54804" lon="4.84878">
        <ele>284.73056</ele>
        <time>2021-03-18T11:50:05Z</time>
      </trkpt>
      <trkpt lat="45.54805" lon="4.8487">
        <ele>284.536</ele>
        <time>2021-03-18T11:50:07Z</time>
      </trkpt>
      <trkpt lat="45.54805" lon="4.84863">
        <ele>284.74594</ele>
        <time>2021-03-18T11:50:09Z</time>
      </trkpt>
      <trkpt lat="45.54805" lon="4.84855">
        <ele>284.6077</ele>
        <time>2021-03-18T11:50:11Z</time>
      </trkpt>
      <trkpt lat="45.54803" lon="4.84847">
        <ele>284.82272</ele>
        <time>2021-03-18T11:50:13Z</time>
      </trkpt>
      <trkpt lat="45.548" lon="4.84841">
        <ele>284.69473</ele>
        <time>2021-03-18T11:50:15Z</time>
      </trkpt>
      <trkpt lat="45.54797" lon="4.84834">
        <ele>284.69473</ele>
        <time>2021-03-18T11:50:17Z</time>
      </trkpt>
      <trkpt lat="45.54794" lon="4.84828">
        <ele>285.391</ele>
        <time>2021-03-18T11:50:19Z</time>
      </trkpt>
      <trkpt lat="45.54791" lon="4.84822">
        <ele>285.09918</ele>
        <time>2021-03-18T11:50:21Z</time>
      </trkpt>
      <trkpt lat="45.54789" lon="4.84815">
        <ele>285.89783</ele>
        <time>2021-03-18T11:50:23Z</time>
      </trkpt>
      <trkpt lat="45.54786" lon="4.84808">
        <ele>286.2255</ele>
        <time>2021-03-18T11:50:25Z</time>
      </trkpt>
      <trkpt lat="45.54784" lon="4.84801">
        <ele>285.97464</ele>
        <time>2021-03-18T11:50:27Z</time>
      </trkpt>
      <trkpt lat="45.54783" lon="4.84793">
        <ele>286.39957</ele>
        <time>2021-03-18T11:50:29Z</time>
      </trkpt>
      <trkpt lat="45.5478" lon="4.84785">
        <ele>286.8091</ele>
        <time>2021-03-18T11:50:31Z</time>
      </trkpt>
      <trkpt lat="45.5478" lon="4.84778">
        <ele>287.0344</ele>
        <time>2021-03-18T11:50:33Z</time>
      </trkpt>
      <trkpt lat="45.54781" lon="4.84771">
        <ele>287.88937</ele>
        <time>2021-03-18T11:50:35Z</time>
      </trkpt>
      <trkpt lat="45.54781" lon="4.84764">
        <ele>287.76138</ele>
        <time>2021-03-18T11:50:37Z</time>
      </trkpt>
      <trkpt lat="45.54784" lon="4.84757">
        <ele>286.9627</ele>
        <time>2021-03-18T11:50:39Z</time>
      </trkpt>
      <trkpt lat="45.54786" lon="4.84748">
        <ele>286.23062</ele>
        <time>2021-03-18T11:50:41Z</time>
      </trkpt>
      <trkpt lat="45.54787" lon="4.8474">
        <ele>285.15552</ele>
        <time>2021-03-18T11:50:43Z</time>
      </trkpt>
      <trkpt lat="45.54789" lon="4.84732">
        <ele>284.7613</ele>
        <time>2021-03-18T11:50:45Z</time>
      </trkpt>
      <trkpt lat="45.54791" lon="4.84724">
        <ele>283.75272</ele>
        <time>2021-03-18T11:50:47Z</time>
      </trkpt>
      <trkpt lat="45.54792" lon="4.84717">
        <ele>283.4302</ele>
        <time>2021-03-18T11:50:49Z</time>
      </trkpt>
      <trkpt lat="45.54794" lon="4.84711">
        <ele>282.72882</ele>
        <time>2021-03-18T11:50:51Z</time>
      </trkpt>
      <trkpt lat="45.54796" lon="4.84704">
        <ele>282.3295</ele>
        <time>2021-03-18T11:50:53Z</time>
      </trkpt>
      <trkpt lat="45.54797" lon="4.84697">
        <ele>282.00183</ele>
        <time>2021-03-18T11:50:55Z</time>
      </trkpt>
      <trkpt lat="45.54798" lon="4.84691">
        <ele>281.64346</ele>
        <time>2021-03-18T11:50:57Z</time>
      </trkpt>
      <trkpt lat="45.54798" lon="4.84684">
        <ele>281.29532</ele>
        <time>2021-03-18T11:50:59Z</time>
      </trkpt>
      <trkpt lat="45.54798" lon="4.84675">
        <ele>281.39774</ele>
        <time>2021-03-18T11:51:02Z</time>
      </trkpt>
      <trkpt lat="45.54795" lon="4.84667">
        <ele>281.07007</ele>
        <time>2021-03-18T11:51:05Z</time>
      </trkpt>
      <trkpt lat="45.54791" lon="4.84659">
        <ele>281.40286</ele>
        <time>2021-03-18T11:51:07Z</time>
      </trkpt>
      <trkpt lat="45.54788" lon="4.84653">
        <ele>281.6588</ele>
        <time>2021-03-18T11:51:09Z</time>
      </trkpt>
      <trkpt lat="45.54785" lon="4.84648">
        <ele>282.3295</ele>
        <time>2021-03-18T11:51:11Z</time>
      </trkpt>
      <trkpt lat="45.54781" lon="4.84643">
        <ele>282.55475</ele>
        <time>2021-03-18T11:51:13Z</time>
      </trkpt>
      <trkpt lat="45.54778" lon="4.84637">
        <ele>283.21518</ele>
        <time>2021-03-18T11:51:15Z</time>
      </trkpt>
      <trkpt lat="45.54776" lon="4.8463">
        <ele>283.86026</ele>
        <time>2021-03-18T11:51:17Z</time>
      </trkpt>
      <trkpt lat="45.54775" lon="4.84622">
        <ele>284.48996</ele>
        <time>2021-03-18T11:51:19Z</time>
      </trkpt>
      <trkpt lat="45.54775" lon="4.84614">
        <ele>284.93024</ele>
        <time>2021-03-18T11:51:21Z</time>
      </trkpt>
      <trkpt lat="45.54776" lon="4.84607">
        <ele>285.65723</ele>
        <time>2021-03-18T11:51:23Z</time>
      </trkpt>
      <trkpt lat="45.54778" lon="4.84601">
        <ele>285.52924</ele>
        <time>2021-03-18T11:51:25Z</time>
      </trkpt>
      <trkpt lat="45.54782" lon="4.84593">
        <ele>286.79376</ele>
        <time>2021-03-18T11:51:28Z</time>
      </trkpt>
      <trkpt lat="45.54785" lon="4.84586">
        <ele>287.5873</ele>
        <time>2021-03-18T11:51:31Z</time>
      </trkpt>
      <trkpt lat="45.54789" lon="4.8458">
        <ele>288.67776</ele>
        <time>2021-03-18T11:51:34Z</time>
      </trkpt>
      <trkpt lat="45.54793" lon="4.84574">
        <ele>289.4611</ele>
        <time>2021-03-18T11:51:37Z</time>
      </trkpt>
      <trkpt lat="45.54799" lon="4.84568">
        <ele>290.72562</ele>
        <time>2021-03-18T11:51:40Z</time>
      </trkpt>
      <trkpt lat="45.54803" lon="4.84564">
        <ele>291.4577</ele>
        <time>2021-03-18T11:51:42Z</time>
      </trkpt>
      <trkpt lat="45.54808" lon="4.8456">
        <ele>292.36386</ele>
        <time>2021-03-18T11:51:45Z</time>
      </trkpt>
      <trkpt lat="45.54813" lon="4.84556">
        <ele>292.67618</ele>
        <time>2021-03-18T11:51:47Z</time>
      </trkpt>
      <trkpt lat="45.54818" lon="4.84551">
        <ele>293.22397</ele>
        <time>2021-03-18T11:51:50Z</time>
      </trkpt>
      <trkpt lat="45.54823" lon="4.84546">
        <ele>294.2786</ele>
        <time>2021-03-18T11:51:53Z</time>
      </trkpt>
      <trkpt lat="45.54827" lon="4.84542">
        <ele>294.66257</ele>
        <time>2021-03-18T11:51:55Z</time>
      </trkpt>
      <trkpt lat="45.54831" lon="4.84538">
        <ele>294.852</ele>
        <time>2021-03-18T11:51:57Z</time>
      </trkpt>
      <trkpt lat="45.54836" lon="4.84532">
        <ele>295.20013</ele>
        <time>2021-03-18T11:52:00Z</time>
      </trkpt>
      <trkpt lat="45.54841" lon="4.84528">
        <ele>295.78375</ele>
        <time>2021-03-18T11:52:02Z</time>
      </trkpt>
      <trkpt lat="45.54845" lon="4.84524">
        <ele>296.06534</ele>
        <time>2021-03-18T11:52:04Z</time>
      </trkpt>
      <trkpt lat="45.54849" lon="4.8452">
        <ele>295.77863</ele>
        <time>2021-03-18T11:52:06Z</time>
      </trkpt>
      <trkpt lat="45.54855" lon="4.84516">
        <ele>296.01926</ele>
        <time>2021-03-18T11:52:09Z</time>
      </trkpt>
      <trkpt lat="45.54861" lon="4.84513">
        <ele>295.70697</ele>
        <time>2021-03-18T11:52:11Z</time>
      </trkpt>
      <trkpt lat="45.54866" lon="4.8451">
        <ele>294.8059</ele>
        <time>2021-03-18T11:52:13Z</time>
      </trkpt>
      <trkpt lat="45.54871" lon="4.84507">
        <ele>295.51752</ele>
        <time>2021-03-18T11:52:15Z</time>
      </trkpt>
      <trkpt lat="45.54876" lon="4.84505">
        <ele>294.78543</ele>
        <time>2021-03-18T11:52:17Z</time>
      </trkpt>
      <trkpt lat="45.5488" lon="4.84502">
        <ele>294.0687</ele>
        <time>2021-03-18T11:52:19Z</time>
      </trkpt>
      <trkpt lat="45.54886" lon="4.84499">
        <ele>293.58746</ele>
        <time>2021-03-18T11:52:22Z</time>
      </trkpt>
      <trkpt lat="45.54893" lon="4.84496">
        <ele>293.0038</ele>
        <time>2021-03-18T11:52:25Z</time>
      </trkpt>
      <trkpt lat="45.54898" lon="4.84492">
        <ele>292.15396</ele>
        <time>2021-03-18T11:52:28Z</time>
      </trkpt>
      <trkpt lat="45.54904" lon="4.84489">
        <ele>291.68808</ele>
        <time>2021-03-18T11:52:31Z</time>
      </trkpt>
      <trkpt lat="45.54909" lon="4.84486">
        <ele>291.09933</ele>
        <time>2021-03-18T11:52:33Z</time>
      </trkpt>
      <trkpt lat="45.54914" lon="4.84484">
        <ele>291.9799</ele>
        <time>2021-03-18T11:52:35Z</time>
      </trkpt>
      <trkpt lat="45.5492" lon="4.84478">
        <ele>290.5208</ele>
        <time>2021-03-18T11:52:38Z</time>
      </trkpt>
      <trkpt lat="45.54925" lon="4.84473">
        <ele>290.38773</ele>
        <time>2021-03-18T11:52:40Z</time>
      </trkpt>
      <trkpt lat="45.5493" lon="4.84471">
        <ele>289.79898</ele>
        <time>2021-03-18T11:52:42Z</time>
      </trkpt>
      <trkpt lat="45.54935" lon="4.84468">
        <ele>288.48834</ele>
        <time>2021-03-18T11:52:44Z</time>
      </trkpt>
      <trkpt lat="45.5494" lon="4.84466">
        <ele>287.52588</ele>
        <time>2021-03-18T11:52:46Z</time>
      </trkpt>
      <trkpt lat="45.54946" lon="4.84466">
        <ele>287.34668</ele>
        <time>2021-03-18T11:52:48Z</time>
      </trkpt>
      <trkpt lat="45.54952" lon="4.84466">
        <ele>286.23572</ele>
        <time>2021-03-18T11:52:50Z</time>
      </trkpt>
      <trkpt lat="45.54957" lon="4.84466">
        <ele>285.64697</ele>
        <time>2021-03-18T11:52:52Z</time>
      </trkpt>
      <trkpt lat="45.54963" lon="4.84467">
        <ele>285.89273</ele>
        <time>2021-03-18T11:52:54Z</time>
      </trkpt>
      <trkpt lat="45.54969" lon="4.84466">
        <ele>285.01727</ele>
        <time>2021-03-18T11:52:56Z</time>
      </trkpt>
      <trkpt lat="45.54974" lon="4.84465">
        <ele>284.9251</ele>
        <time>2021-03-18T11:52:58Z</time>
      </trkpt>
      <trkpt lat="45.5498" lon="4.84464">
        <ele>284.80225</ele>
        <time>2021-03-18T11:53:00Z</time>
      </trkpt>
      <trkpt lat="45.54985" lon="4.84462">
        <ele>284.79202</ele>
        <time>2021-03-18T11:53:02Z</time>
      </trkpt>
      <trkpt lat="45.54991" lon="4.8446">
        <ele>284.93536</ele>
        <time>2021-03-18T11:53:04Z</time>
      </trkpt>
      <trkpt lat="45.54997" lon="4.84458">
        <ele>285.26813</ele>
        <time>2021-03-18T11:53:06Z</time>
      </trkpt>
      <trkpt lat="45.55002" lon="4.84456">
        <ele>285.20157</ele>
        <time>2021-03-18T11:53:08Z</time>
      </trkpt>
      <trkpt lat="45.55007" lon="4.84455">
        <ele>285.45242</ele>
        <time>2021-03-18T11:53:10Z</time>
      </trkpt>
      <trkpt lat="45.55014" lon="4.84454">
        <ele>285.98486</ele>
        <time>2021-03-18T11:53:13Z</time>
      </trkpt>
      <trkpt lat="45.55018" lon="4.84451">
        <ele>286.61456</ele>
        <time>2021-03-18T11:53:15Z</time>
      </trkpt>
      <trkpt lat="45.55022" lon="4.84449">
        <ele>287.23917</ele>
        <time>2021-03-18T11:53:17Z</time>
      </trkpt>
      <trkpt lat="45.55027" lon="4.84447">
        <ele>287.90982</ele>
        <time>2021-03-18T11:53:19Z</time>
      </trkpt>
      <trkpt lat="45.55032" lon="4.84444">
        <ele>288.98495</ele>
        <time>2021-03-18T11:53:21Z</time>
      </trkpt>
      <trkpt lat="45.55037" lon="4.84441">
        <ele>289.98837</ele>
        <time>2021-03-18T11:53:24Z</time>
      </trkpt>
      <trkpt lat="45.55038" lon="4.84432">
        <ele>291.44748</ele>
        <time>2021-03-18T11:53:27Z</time>
      </trkpt>
      <trkpt lat="45.55037" lon="4.84425">
        <ele>292.1591</ele>
        <time>2021-03-18T11:53:29Z</time>
      </trkpt>
      <trkpt lat="45.55036" lon="4.84418">
        <ele>292.66592</ele>
        <time>2021-03-18T11:53:31Z</time>
      </trkpt>
      <trkpt lat="45.55035" lon="4.84411">
        <ele>292.59424</ele>
        <time>2021-03-18T11:53:33Z</time>
      </trkpt>
      <trkpt lat="45.55034" lon="4.84403">
        <ele>293.55673</ele>
        <time>2021-03-18T11:53:35Z</time>
      </trkpt>
      <trkpt lat="45.55032" lon="4.84394">
        <ele>293.29053</ele>
        <time>2021-03-18T11:53:37Z</time>
      </trkpt>
      <trkpt lat="45.55032" lon="4.84385">
        <ele>293.68472</ele>
        <time>2021-03-18T11:53:39Z</time>
      </trkpt>
      <trkpt lat="45.55032" lon="4.84378">
        <ele>293.07037</ele>
        <time>2021-03-18T11:53:41Z</time>
      </trkpt>
      <trkpt lat="45.55032" lon="4.8437">
        <ele>293.12668</ele>
        <time>2021-03-18T11:53:43Z</time>
      </trkpt>
      <trkpt lat="45.55032" lon="4.84363">
        <ele>292.50723</ele>
        <time>2021-03-18T11:53:45Z</time>
      </trkpt>
      <trkpt lat="45.55031" lon="4.84355">
        <ele>292.66592</ele>
        <time>2021-03-18T11:53:47Z</time>
      </trkpt>
      <trkpt lat="45.5503" lon="4.84347">
        <ele>292.9373</ele>
        <time>2021-03-18T11:53:49Z</time>
      </trkpt>
      <trkpt lat="45.5503" lon="4.8434">
        <ele>293.03452</ele>
        <time>2021-03-18T11:53:51Z</time>
      </trkpt>
      <trkpt lat="45.55029" lon="4.84332">
        <ele>292.584</ele>
        <time>2021-03-18T11:53:53Z</time>
      </trkpt>
      <trkpt lat="45.55028" lon="4.84325">
        <ele>293.25467</ele>
        <time>2021-03-18T11:53:55Z</time>
      </trkpt>
      <trkpt lat="45.55026" lon="4.84317">
        <ele>293.61816</ele>
        <time>2021-03-18T11:53:57Z</time>
      </trkpt>
      <trkpt lat="45.55024" lon="4.8431">
        <ele>293.67447</ele>
        <time>2021-03-18T11:53:59Z</time>
      </trkpt>
      <trkpt lat="45.55024" lon="4.84302">
        <ele>294.3042</ele>
        <time>2021-03-18T11:54:01Z</time>
      </trkpt>
      <trkpt lat="45.55022" lon="4.84293">
        <ele>294.89294</ele>
        <time>2021-03-18T11:54:04Z</time>
      </trkpt>
      <trkpt lat="45.5502" lon="4.84285">
        <ele>296.02948</ele>
        <time>2021-03-18T11:54:07Z</time>
      </trkpt>
      <trkpt lat="45.55018" lon="4.84277">
        <ele>297.30426</ele>
        <time>2021-03-18T11:54:10Z</time>
      </trkpt>
      <trkpt lat="45.55018" lon="4.8427">
        <ele>297.98517</ele>
        <time>2021-03-18T11:54:13Z</time>
      </trkpt>
      <trkpt lat="45.55018" lon="4.84263">
        <ele>298.34866</ele>
        <time>2021-03-18T11:54:15Z</time>
      </trkpt>
      <trkpt lat="45.5502" lon="4.84254">
        <ele>298.34866</ele>
        <time>2021-03-18T11:54:18Z</time>
      </trkpt>
      <trkpt lat="45.55022" lon="4.84246">
        <ele>299.21387</ele>
        <time>2021-03-18T11:54:21Z</time>
      </trkpt>
      <trkpt lat="45.55025" lon="4.84238">
        <ele>299.4135</ele>
        <time>2021-03-18T11:54:23Z</time>
      </trkpt>
      <trkpt lat="45.55027" lon="4.84232">
        <ele>299.91013</ele>
        <time>2021-03-18T11:54:25Z</time>
      </trkpt>
      <trkpt lat="45.5503" lon="4.84225">
        <ele>299.05005</ele>
        <time>2021-03-18T11:54:27Z</time>
      </trkpt>
      <trkpt lat="45.55032" lon="4.84218">
        <ele>299.02444</ele>
        <time>2021-03-18T11:54:29Z</time>
      </trkpt>
      <trkpt lat="45.55035" lon="4.84212">
        <ele>299.00397</ele>
        <time>2021-03-18T11:54:31Z</time>
      </trkpt>
      <trkpt lat="45.55039" lon="4.84206">
        <ele>298.91693</ele>
        <time>2021-03-18T11:54:33Z</time>
      </trkpt>
      <trkpt lat="45.55043" lon="4.84201">
        <ele>298.49713</ele>
        <time>2021-03-18T11:54:35Z</time>
      </trkpt>
      <trkpt lat="45.55046" lon="4.84196">
        <ele>298.85037</ele>
        <time>2021-03-18T11:54:37Z</time>
      </trkpt>
      <trkpt lat="45.5505" lon="4.84192">
        <ele>298.7173</ele>
        <time>2021-03-18T11:54:39Z</time>
      </trkpt>
      <trkpt lat="45.55054" lon="4.84188">
        <ele>298.72238</ele>
        <time>2021-03-18T11:54:41Z</time>
      </trkpt>
      <trkpt lat="45.55059" lon="4.84183">
        <ele>298.42032</ele>
        <time>2021-03-18T11:54:43Z</time>
      </trkpt>
      <trkpt lat="45.55063" lon="4.84178">
        <ele>298.02612</ele>
        <time>2021-03-18T11:54:45Z</time>
      </trkpt>
      <trkpt lat="45.55068" lon="4.84173">
        <ele>297.89304</ele>
        <time>2021-03-18T11:54:47Z</time>
      </trkpt>
      <trkpt lat="45.55072" lon="4.84169">
        <ele>298.2975</ele>
        <time>2021-03-18T11:54:49Z</time>
      </trkpt>
      <trkpt lat="45.55077" lon="4.84163">
        <ele>298.34354</ele>
        <time>2021-03-18T11:54:51Z</time>
      </trkpt>
      <trkpt lat="45.55081" lon="4.84158">
        <ele>298.47665</ele>
        <time>2021-03-18T11:54:53Z</time>
      </trkpt>
      <trkpt lat="45.55085" lon="4.84152">
        <ele>298.47665</ele>
        <time>2021-03-18T11:54:55Z</time>
      </trkpt>
      <trkpt lat="45.5509" lon="4.84147">
        <ele>298.49713</ele>
        <time>2021-03-18T11:54:57Z</time>
      </trkpt>
      <trkpt lat="45.55095" lon="4.84142">
        <ele>298.71216</ele>
        <time>2021-03-18T11:54:59Z</time>
      </trkpt>
      <trkpt lat="45.55099" lon="4.84137">
        <ele>298.40497</ele>
        <time>2021-03-18T11:55:01Z</time>
      </trkpt>
      <trkpt lat="45.55105" lon="4.84131">
        <ele>297.45786</ele>
        <time>2021-03-18T11:55:03Z</time>
      </trkpt>
      <trkpt lat="45.55109" lon="4.84126">
        <ele>297.00223</ele>
        <time>2021-03-18T11:55:05Z</time>
      </trkpt>
      <trkpt lat="45.55114" lon="4.84121">
        <ele>296.60287</ele>
        <time>2021-03-18T11:55:07Z</time>
      </trkpt>
      <trkpt lat="45.55118" lon="4.84115">
        <ele>296.75134</ele>
        <time>2021-03-18T11:55:09Z</time>
      </trkpt>
      <trkpt lat="45.55122" lon="4.8411">
        <ele>296.41858</ele>
        <time>2021-03-18T11:55:11Z</time>
      </trkpt>
      <trkpt lat="45.55125" lon="4.84103">
        <ele>296.83328</ele>
        <time>2021-03-18T11:55:13Z</time>
      </trkpt>
      <trkpt lat="45.55129" lon="4.84095">
        <ele>297.30426</ele>
        <time>2021-03-18T11:55:15Z</time>
      </trkpt>
      <trkpt lat="45.55132" lon="4.84086">
        <ele>297.80087</ele>
        <time>2021-03-18T11:55:17Z</time>
      </trkpt>
      <trkpt lat="45.55135" lon="4.84079">
        <ele>297.21722</ele>
        <time>2021-03-18T11:55:19Z</time>
      </trkpt>
      <trkpt lat="45.55139" lon="4.84071">
        <ele>296.43906</ele>
        <time>2021-03-18T11:55:21Z</time>
      </trkpt>
      <trkpt lat="45.55142" lon="4.84064">
        <ele>297.20187</ele>
        <time>2021-03-18T11:55:23Z</time>
      </trkpt>
      <trkpt lat="45.55145" lon="4.84058">
        <ele>297.27356</ele>
        <time>2021-03-18T11:55:25Z</time>
      </trkpt>
      <trkpt lat="45.55149" lon="4.84053">
        <ele>297.43738</ele>
        <time>2021-03-18T11:55:27Z</time>
      </trkpt>
      <trkpt lat="45.55154" lon="4.84049">
        <ele>297.04828</ele>
        <time>2021-03-18T11:55:29Z</time>
      </trkpt>
      <trkpt lat="45.55159" lon="4.84045">
        <ele>297.49368</ele>
        <time>2021-03-18T11:55:31Z</time>
      </trkpt>
      <trkpt lat="45.55164" lon="4.84042">
        <ele>297.86743</ele>
        <time>2021-03-18T11:55:33Z</time>
      </trkpt>
      <trkpt lat="45.55169" lon="4.8404">
        <ele>297.20187</ele>
        <time>2021-03-18T11:55:35Z</time>
      </trkpt>
      <trkpt lat="45.55175" lon="4.84038">
        <ele>298.4664</ele>
        <time>2021-03-18T11:55:37Z</time>
      </trkpt>
      <trkpt lat="45.5518" lon="4.84037">
        <ele>298.53296</ele>
        <time>2021-03-18T11:55:39Z</time>
      </trkpt>
      <trkpt lat="45.55187" lon="4.84037">
        <ele>298.2975</ele>
        <time>2021-03-18T11:55:41Z</time>
      </trkpt>
      <trkpt lat="45.55192" lon="4.84036">
        <ele>298.10294</ele>
        <time>2021-03-18T11:55:43Z</time>
      </trkpt>
      <trkpt lat="45.55198" lon="4.84037">
        <ele>298.44083</ele>
        <time>2021-03-18T11:55:45Z</time>
      </trkpt>
      <trkpt lat="45.55204" lon="4.84037">
        <ele>298.57904</ele>
        <time>2021-03-18T11:55:47Z</time>
      </trkpt>
      <trkpt lat="45.55209" lon="4.84037">
        <ele>298.0978</ele>
        <time>2021-03-18T11:55:49Z</time>
      </trkpt>
      <trkpt lat="45.55216" lon="4.84038">
        <ele>297.91348</ele>
        <time>2021-03-18T11:55:51Z</time>
      </trkpt>
      <trkpt lat="45.55222" lon="4.84038">
        <ele>297.5756</ele>
        <time>2021-03-18T11:55:53Z</time>
      </trkpt>
      <trkpt lat="45.55228" lon="4.84039">
        <ele>297.98004</ele>
        <time>2021-03-18T11:55:55Z</time>
      </trkpt>
      <trkpt lat="45.55235" lon="4.84039">
        <ele>297.9442</ele>
        <time>2021-03-18T11:55:57Z</time>
      </trkpt>
      <trkpt lat="45.55241" lon="4.8404">
        <ele>297.45273</ele>
        <time>2021-03-18T11:55:59Z</time>
      </trkpt>
      <trkpt lat="45.55247" lon="4.84042">
        <ele>296.94077</ele>
        <time>2021-03-18T11:56:01Z</time>
      </trkpt>
      <trkpt lat="45.55253" lon="4.84043">
        <ele>297.35034</ele>
        <time>2021-03-18T11:56:03Z</time>
      </trkpt>
      <trkpt lat="45.55258" lon="4.84046">
        <ele>296.81277</ele>
        <time>2021-03-18T11:56:05Z</time>
      </trkpt>
      <trkpt lat="45.55264" lon="4.84049">
        <ele>296.9203</ele>
        <time>2021-03-18T11:56:07Z</time>
      </trkpt>
      <trkpt lat="45.55269" lon="4.84052">
        <ele>297.44763</ele>
        <time>2021-03-18T11:56:09Z</time>
      </trkpt>
      <trkpt lat="45.55274" lon="4.84056">
        <ele>296.90494</ele>
        <time>2021-03-18T11:56:11Z</time>
      </trkpt>
      <trkpt lat="45.5528" lon="4.84061">
        <ele>296.95102</ele>
        <time>2021-03-18T11:56:13Z</time>
      </trkpt>
      <trkpt lat="45.55285" lon="4.84064">
        <ele>296.84863</ele>
        <time>2021-03-18T11:56:15Z</time>
      </trkpt>
      <trkpt lat="45.5529" lon="4.84068">
        <ele>295.89636</ele>
        <time>2021-03-18T11:56:17Z</time>
      </trkpt>
      <trkpt lat="45.55296" lon="4.84072">
        <ele>295.65576</ele>
        <time>2021-03-18T11:56:19Z</time>
      </trkpt>
      <trkpt lat="45.55301" lon="4.84076">
        <ele>295.51242</ele>
        <time>2021-03-18T11:56:21Z</time>
      </trkpt>
      <trkpt lat="45.55306" lon="4.8408">
        <ele>295.18475</ele>
        <time>2021-03-18T11:56:23Z</time>
      </trkpt>
      <trkpt lat="45.55311" lon="4.84085">
        <ele>294.20694</ele>
        <time>2021-03-18T11:56:25Z</time>
      </trkpt>
      <trkpt lat="45.55317" lon="4.8409">
        <ele>294.07382</ele>
        <time>2021-03-18T11:56:27Z</time>
      </trkpt>
      <trkpt lat="45.55322" lon="4.84096">
        <ele>293.99188</ele>
        <time>2021-03-18T11:56:29Z</time>
      </trkpt>
      <trkpt lat="45.55327" lon="4.841">
        <ele>293.72568</ele>
        <time>2021-03-18T11:56:31Z</time>
      </trkpt>
      <trkpt lat="45.55332" lon="4.84105">
        <ele>293.43387</ele>
        <time>2021-03-18T11:56:33Z</time>
      </trkpt>
      <trkpt lat="45.55337" lon="4.8411">
        <ele>293.68985</ele>
        <time>2021-03-18T11:56:35Z</time>
      </trkpt>
      <trkpt lat="45.55342" lon="4.84114">
        <ele>293.18814</ele>
        <time>2021-03-18T11:56:37Z</time>
      </trkpt>
      <trkpt lat="45.55348" lon="4.84118">
        <ele>293.25467</ele>
        <time>2021-03-18T11:56:39Z</time>
      </trkpt>
      <trkpt lat="45.55353" lon="4.84121">
        <ele>293.33658</ele>
        <time>2021-03-18T11:56:41Z</time>
      </trkpt>
      <trkpt lat="45.55359" lon="4.84125">
        <ele>293.54138</ele>
        <time>2021-03-18T11:56:43Z</time>
      </trkpt>
      <trkpt lat="45.55365" lon="4.84128">
        <ele>293.12668</ele>
        <time>2021-03-18T11:56:45Z</time>
      </trkpt>
      <trkpt lat="45.5537" lon="4.84132">
        <ele>292.98334</ele>
        <time>2021-03-18T11:56:47Z</time>
      </trkpt>
      <trkpt lat="45.55376" lon="4.84135">
        <ele>292.83487</ele>
        <time>2021-03-18T11:56:49Z</time>
      </trkpt>
      <trkpt lat="45.5538" lon="4.84139">
        <ele>292.64545</ele>
        <time>2021-03-18T11:56:51Z</time>
      </trkpt>
      <trkpt lat="45.55386" lon="4.84143">
        <ele>292.38434</ele>
        <time>2021-03-18T11:56:53Z</time>
      </trkpt>
      <trkpt lat="45.55391" lon="4.84147">
        <ele>292.50723</ele>
        <time>2021-03-18T11:56:55Z</time>
      </trkpt>
      <trkpt lat="45.55396" lon="4.84151">
        <ele>292.01062</ele>
        <time>2021-03-18T11:56:57Z</time>
      </trkpt>
      <trkpt lat="45.55401" lon="4.84154">
        <ele>292.56354</ele>
        <time>2021-03-18T11:56:59Z</time>
      </trkpt>
      <trkpt lat="45.55406" lon="4.84156">
        <ele>292.5482</ele>
        <time>2021-03-18T11:57:01Z</time>
      </trkpt>
      <trkpt lat="45.55412" lon="4.84158">
        <ele>292.4509</ele>
        <time>2021-03-18T11:57:03Z</time>
      </trkpt>
      <trkpt lat="45.55418" lon="4.84159">
        <ele>292.369</ele>
        <time>2021-03-18T11:57:05Z</time>
      </trkpt>
      <trkpt lat="45.55424" lon="4.84159">
        <ele>292.25122</ele>
        <time>2021-03-18T11:57:07Z</time>
      </trkpt>
      <trkpt lat="45.55431" lon="4.84159">
        <ele>292.9936</ele>
        <time>2021-03-18T11:57:09Z</time>
      </trkpt>
      <trkpt lat="45.55436" lon="4.84157">
        <ele>293.63864</ele>
        <time>2021-03-18T11:57:11Z</time>
      </trkpt>
      <trkpt lat="45.55442" lon="4.84153">
        <ele>294.17108</ele>
        <time>2021-03-18T11:57:13Z</time>
      </trkpt>
      <trkpt lat="45.55447" lon="4.84151">
        <ele>294.24786</ele>
        <time>2021-03-18T11:57:15Z</time>
      </trkpt>
      <trkpt lat="45.55453" lon="4.84145">
        <ele>294.7957</ele>
        <time>2021-03-18T11:57:18Z</time>
      </trkpt>
      <trkpt lat="45.55458" lon="4.84142">
        <ele>294.32977</ele>
        <time>2021-03-18T11:57:20Z</time>
      </trkpt>
      <trkpt lat="45.55466" lon="4.8414">
        <ele>293.1574</ele>
        <time>2021-03-18T11:57:22Z</time>
      </trkpt>
      <trkpt lat="45.55472" lon="4.84138">
        <ele>292.69153</ele>
        <time>2021-03-18T11:57:24Z</time>
      </trkpt>
      <trkpt lat="45.55477" lon="4.84134">
        <ele>292.53284</ele>
        <time>2021-03-18T11:57:26Z</time>
      </trkpt>
      <trkpt lat="45.55483" lon="4.84132">
        <ele>292.18466</ele>
        <time>2021-03-18T11:57:28Z</time>
      </trkpt>
      <trkpt lat="45.55489" lon="4.84129">
        <ele>291.52426</ele>
        <time>2021-03-18T11:57:30Z</time>
      </trkpt>
      <trkpt lat="45.55496" lon="4.84126">
        <ele>291.37067</ele>
        <time>2021-03-18T11:57:32Z</time>
      </trkpt>
      <trkpt lat="45.55502" lon="4.84124">
        <ele>291.1096</ele>
        <time>2021-03-18T11:57:34Z</time>
      </trkpt>
      <trkpt lat="45.55508" lon="4.84122">
        <ele>290.52594</ele>
        <time>2021-03-18T11:57:36Z</time>
      </trkpt>
      <trkpt lat="45.55513" lon="4.8412">
        <ele>290.15732</ele>
        <time>2021-03-18T11:57:38Z</time>
      </trkpt>
      <trkpt lat="45.55519" lon="4.8412">
        <ele>290.78705</ele>
        <time>2021-03-18T11:57:40Z</time>
      </trkpt>
      <trkpt lat="45.55524" lon="4.8412">
        <ele>290.4645</ele>
        <time>2021-03-18T11:57:42Z</time>
      </trkpt>
      <trkpt lat="45.55531" lon="4.8412">
        <ele>290.85358</ele>
        <time>2021-03-18T11:57:44Z</time>
      </trkpt>
      <trkpt lat="45.55536" lon="4.8412">
        <ele>290.4389</ele>
        <time>2021-03-18T11:57:46Z</time>
      </trkpt>
      <trkpt lat="45.55541" lon="4.8412">
        <ele>290.4901</ele>
        <time>2021-03-18T11:57:48Z</time>
      </trkpt>
      <trkpt lat="45.55547" lon="4.84121">
        <ele>290.9099</ele>
        <time>2021-03-18T11:57:50Z</time>
      </trkpt>
      <trkpt lat="45.55553" lon="4.84121">
        <ele>290.53107</ele>
        <time>2021-03-18T11:57:52Z</time>
      </trkpt>
      <trkpt lat="45.55559" lon="4.84122">
        <ele>291.29388</ele>
        <time>2021-03-18T11:57:54Z</time>
      </trkpt>
      <trkpt lat="45.55564" lon="4.84123">
        <ele>291.51404</ele>
        <time>2021-03-18T11:57:56Z</time>
      </trkpt>
      <trkpt lat="45.5557" lon="4.84123">
        <ele>291.85193</ele>
        <time>2021-03-18T11:57:58Z</time>
      </trkpt>
      <trkpt lat="45.55574" lon="4.84123">
        <ele>292.33316</ele>
        <time>2021-03-18T11:58:00Z</time>
      </trkpt>
      <trkpt lat="45.5558" lon="4.84123">
        <ele>292.5482</ele>
        <time>2021-03-18T11:58:02Z</time>
      </trkpt>
      <trkpt lat="45.55585" lon="4.84124">
        <ele>292.19492</ele>
        <time>2021-03-18T11:58:04Z</time>
      </trkpt>
      <trkpt lat="45.55591" lon="4.84125">
        <ele>292.80417</ele>
        <time>2021-03-18T11:58:06Z</time>
      </trkpt>
      <trkpt lat="45.55597" lon="4.84127">
        <ele>292.3946</ele>
        <time>2021-03-18T11:58:08Z</time>
      </trkpt>
      <trkpt lat="45.55603" lon="4.84127">
        <ele>293.10107</ele>
        <time>2021-03-18T11:58:10Z</time>
      </trkpt>
      <trkpt lat="45.55608" lon="4.84128">
        <ele>293.40314</ele>
        <time>2021-03-18T11:58:12Z</time>
      </trkpt>
      <trkpt lat="45.55613" lon="4.84128">
        <ele>294.11478</ele>
        <time>2021-03-18T11:58:14Z</time>
      </trkpt>
      <trkpt lat="45.55618" lon="4.84128">
        <ele>294.21204</ele>
        <time>2021-03-18T11:58:16Z</time>
      </trkpt>
      <trkpt lat="45.55623" lon="4.84128">
        <ele>294.24786</ele>
        <time>2021-03-18T11:58:18Z</time>
      </trkpt>
      <trkpt lat="45.55628" lon="4.84128">
        <ele>294.35538</ele>
        <time>2021-03-18T11:58:20Z</time>
      </trkpt>
      <trkpt lat="45.55632" lon="4.84127">
        <ele>295.2718</ele>
        <time>2021-03-18T11:58:22Z</time>
      </trkpt>
      <trkpt lat="45.55639" lon="4.84128">
        <ele>294.95438</ele>
        <time>2021-03-18T11:58:24Z</time>
      </trkpt>
      <trkpt lat="45.55645" lon="4.84129">
        <ele>293.90488</ele>
        <time>2021-03-18T11:58:26Z</time>
      </trkpt>
      <trkpt lat="45.55651" lon="4.84132">
        <ele>293.79224</ele>
        <time>2021-03-18T11:58:28Z</time>
      </trkpt>
      <trkpt lat="45.55657" lon="4.84137">
        <ele>293.53113</ele>
        <time>2021-03-18T11:58:30Z</time>
      </trkpt>
      <trkpt lat="45.55663" lon="4.84143">
        <ele>291.36554</ele>
        <time>2021-03-18T11:58:32Z</time>
      </trkpt>
      <trkpt lat="45.55667" lon="4.84149">
        <ele>290.42355</ele>
        <time>2021-03-18T11:58:34Z</time>
      </trkpt>
      <trkpt lat="45.5567" lon="4.84155">
        <ele>290.03958</ele>
        <time>2021-03-18T11:58:36Z</time>
      </trkpt>
      <trkpt lat="45.55674" lon="4.84162">
        <ele>290.2802</ele>
        <time>2021-03-18T11:58:38Z</time>
      </trkpt>
      <trkpt lat="45.55679" lon="4.84167">
        <ele>289.87064</ele>
        <time>2021-03-18T11:58:40Z</time>
      </trkpt>
      <trkpt lat="45.55685" lon="4.8417">
        <ele>289.9116</ele>
        <time>2021-03-18T11:58:42Z</time>
      </trkpt>
      <trkpt lat="45.55692" lon="4.84171">
        <ele>290.03445</ele>
        <time>2021-03-18T11:58:44Z</time>
      </trkpt>
      <trkpt lat="45.55699" lon="4.84173">
        <ele>290.37234</ele>
        <time>2021-03-18T11:58:46Z</time>
      </trkpt>
      <trkpt lat="45.55705" lon="4.84174">
        <ele>291.02768</ele>
        <time>2021-03-18T11:58:48Z</time>
      </trkpt>
      <trkpt lat="45.55711" lon="4.84175">
        <ele>291.18637</ele>
        <time>2021-03-18T11:58:50Z</time>
      </trkpt>
      <trkpt lat="45.55717" lon="4.84175">
        <ele>291.74442</ele>
        <time>2021-03-18T11:58:52Z</time>
      </trkpt>
      <trkpt lat="45.55722" lon="4.84176">
        <ele>292.73248</ele>
        <time>2021-03-18T11:58:54Z</time>
      </trkpt>
      <trkpt lat="45.55727" lon="4.84177">
        <ele>293.3827</ele>
        <time>2021-03-18T11:58:56Z</time>
      </trkpt>
      <trkpt lat="45.55733" lon="4.84178">
        <ele>294.11478</ele>
        <time>2021-03-18T11:58:58Z</time>
      </trkpt>
      <trkpt lat="45.55738" lon="4.84179">
        <ele>293.567</ele>
        <time>2021-03-18T11:59:00Z</time>
      </trkpt>
      <trkpt lat="45.55743" lon="4.8418">
        <ele>293.9868</ele>
        <time>2021-03-18T11:59:02Z</time>
      </trkpt>
      <trkpt lat="45.5575" lon="4.8418">
        <ele>293.3827</ele>
        <time>2021-03-18T11:59:04Z</time>
      </trkpt>
      <trkpt lat="45.55756" lon="4.84181">
        <ele>293.41852</ele>
        <time>2021-03-18T11:59:06Z</time>
      </trkpt>
      <trkpt lat="45.55763" lon="4.84182">
        <ele>292.9936</ele>
        <time>2021-03-18T11:59:08Z</time>
      </trkpt>
      <trkpt lat="45.55769" lon="4.84183">
        <ele>292.9219</ele>
        <time>2021-03-18T11:59:10Z</time>
      </trkpt>
      <trkpt lat="45.55775" lon="4.84184">
        <ele>292.63522</ele>
        <time>2021-03-18T11:59:12Z</time>
      </trkpt>
      <trkpt lat="45.55781" lon="4.84185">
        <ele>292.51233</ele>
        <time>2021-03-18T11:59:14Z</time>
      </trkpt>
      <trkpt lat="45.55788" lon="4.84186">
        <ele>292.27173</ele>
        <time>2021-03-18T11:59:16Z</time>
      </trkpt>
      <trkpt lat="45.55795" lon="4.84188">
        <ele>292.45602</ele>
        <time>2021-03-18T11:59:18Z</time>
      </trkpt>
      <trkpt lat="45.55801" lon="4.84189">
        <ele>292.18982</ele>
        <time>2021-03-18T11:59:20Z</time>
      </trkpt>
      <trkpt lat="45.55808" lon="4.84189">
        <ele>292.67618</ele>
        <time>2021-03-18T11:59:22Z</time>
      </trkpt>
      <trkpt lat="45.55814" lon="4.84191">
        <ele>292.2154</ele>
        <time>2021-03-18T11:59:24Z</time>
      </trkpt>
      <trkpt lat="45.55821" lon="4.84192">
        <ele>291.78024</ele>
        <time>2021-03-18T11:59:26Z</time>
      </trkpt>
      <trkpt lat="45.55827" lon="4.84193">
        <ele>292.10788</ele>
        <time>2021-03-18T11:59:28Z</time>
      </trkpt>
      <trkpt lat="45.55832" lon="4.84199">
        <ele>289.75287</ele>
        <time>2021-03-18T11:59:30Z</time>
      </trkpt>
      <trkpt lat="45.55837" lon="4.84206">
        <ele>288.80063</ele>
        <time>2021-03-18T11:59:32Z</time>
      </trkpt>
      <trkpt lat="45.55841" lon="4.84215">
        <ele>288.57028</ele>
        <time>2021-03-18T11:59:34Z</time>
      </trkpt>
      <trkpt lat="45.55842" lon="4.84226">
        <ele>289.73242</ele>
        <time>2021-03-18T11:59:36Z</time>
      </trkpt>
      <trkpt lat="45.55844" lon="4.84235">
        <ele>289.64026</ele>
        <time>2021-03-18T11:59:38Z</time>
      </trkpt>
      <trkpt lat="45.55845" lon="4.84244">
        <ele>289.13342</ele>
        <time>2021-03-18T11:59:40Z</time>
      </trkpt>
      <trkpt lat="45.55847" lon="4.84254">
        <ele>289.31772</ele>
        <time>2021-03-18T11:59:42Z</time>
      </trkpt>
      <trkpt lat="45.55849" lon="4.84262">
        <ele>289.97815</ele>
        <time>2021-03-18T11:59:44Z</time>
      </trkpt>
      <trkpt lat="45.55849" lon="4.84272">
        <ele>289.9116</ele>
        <time>2021-03-18T11:59:46Z</time>
      </trkpt>
      <trkpt lat="45.55851" lon="4.84281">
        <ele>289.51227</ele>
        <time>2021-03-18T11:59:48Z</time>
      </trkpt>
      <trkpt lat="45.55853" lon="4.8429">
        <ele>289.56348</ele>
        <time>2021-03-18T11:59:50Z</time>
      </trkpt>
      <trkpt lat="45.55856" lon="4.84298">
        <ele>290.3109</ele>
        <time>2021-03-18T11:59:52Z</time>
      </trkpt>
      <trkpt lat="45.55862" lon="4.843">
        <ele>290.08054</ele>
        <time>2021-03-18T11:59:54Z</time>
      </trkpt>
      <trkpt lat="45.55869" lon="4.843">
        <ele>289.97302</ele>
        <time>2021-03-18T11:59:56Z</time>
      </trkpt>
      <trkpt lat="45.55876" lon="4.84297">
        <ele>289.18973</ele>
        <time>2021-03-18T11:59:58Z</time>
      </trkpt>
      <trkpt lat="45.55883" lon="4.84295">
        <ele>289.55835</ele>
        <time>2021-03-18T12:00:00Z</time>
      </trkpt>
      <trkpt lat="45.55888" lon="4.84294">
        <ele>288.64194</ele>
        <time>2021-03-18T12:00:02Z</time>
      </trkpt>
      <trkpt lat="45.55893" lon="4.84293">
        <ele>288.9184</ele>
        <time>2021-03-18T12:00:04Z</time>
      </trkpt>
      <trkpt lat="45.559" lon="4.84293">
        <ele>288.74945</ele>
        <time>2021-03-18T12:00:06Z</time>
      </trkpt>
      <trkpt lat="45.55905" lon="4.84292">
        <ele>288.73923</ele>
        <time>2021-03-18T12:00:08Z</time>
      </trkpt>
      <trkpt lat="45.55911" lon="4.84292">
        <ele>287.9969</ele>
        <time>2021-03-18T12:00:10Z</time>
      </trkpt>
      <trkpt lat="45.55918" lon="4.8429">
        <ele>287.80234</ele>
        <time>2021-03-18T12:00:12Z</time>
      </trkpt>
      <trkpt lat="45.55924" lon="4.84287">
        <ele>287.05997</ele>
        <time>2021-03-18T12:00:14Z</time>
      </trkpt>
      <trkpt lat="45.55931" lon="4.84287">
        <ele>287.18286</ele>
        <time>2021-03-18T12:00:16Z</time>
      </trkpt>
      <trkpt lat="45.55937" lon="4.84286">
        <ele>287.72552</ele>
        <time>2021-03-18T12:00:18Z</time>
      </trkpt>
      <trkpt lat="45.55943" lon="4.84286">
        <ele>287.04974</ele>
        <time>2021-03-18T12:00:20Z</time>
      </trkpt>
      <trkpt lat="45.55949" lon="4.84285">
        <ele>286.932</ele>
        <time>2021-03-18T12:00:22Z</time>
      </trkpt>
      <trkpt lat="45.55956" lon="4.84284">
        <ele>286.79376</ele>
        <time>2021-03-18T12:00:24Z</time>
      </trkpt>
      <trkpt lat="45.55961" lon="4.84284">
        <ele>286.31253</ele>
        <time>2021-03-18T12:00:26Z</time>
      </trkpt>
      <trkpt lat="45.55967" lon="4.84285">
        <ele>286.57874</ele>
        <time>2021-03-18T12:00:28Z</time>
      </trkpt>
      <trkpt lat="45.55973" lon="4.84285">
        <ele>285.84665</ele>
        <time>2021-03-18T12:00:30Z</time>
      </trkpt>
      <trkpt lat="45.55979" lon="4.84285">
        <ele>286.0975</ele>
        <time>2021-03-18T12:00:32Z</time>
      </trkpt>
      <trkpt lat="45.55984" lon="4.84284">
        <ele>286.13846</ele>
        <time>2021-03-18T12:00:34Z</time>
      </trkpt>
      <trkpt lat="45.5599" lon="4.84283">
        <ele>285.11966</ele>
        <time>2021-03-18T12:00:36Z</time>
      </trkpt>
      <trkpt lat="45.55997" lon="4.84283">
        <ele>285.25278</ele>
        <time>2021-03-18T12:00:38Z</time>
      </trkpt>
      <trkpt lat="45.56004" lon="4.84285">
        <ele>285.06335</ele>
        <time>2021-03-18T12:00:40Z</time>
      </trkpt>
      <trkpt lat="45.5601" lon="4.84287">
        <ele>285.19135</ele>
        <time>2021-03-18T12:00:42Z</time>
      </trkpt>
      <trkpt lat="45.56015" lon="4.84288">
        <ele>284.25958</ele>
        <time>2021-03-18T12:00:44Z</time>
      </trkpt>
      <trkpt lat="45.5602" lon="4.84289">
        <ele>284.3415</ele>
        <time>2021-03-18T12:00:46Z</time>
      </trkpt>
      <trkpt lat="45.56025" lon="4.8429">
        <ele>284.12134</ele>
        <time>2021-03-18T12:00:48Z</time>
      </trkpt>
      <trkpt lat="45.5603" lon="4.84287">
        <ele>283.0974</ele>
        <time>2021-03-18T12:00:53Z</time>
      </trkpt>
      <trkpt lat="45.56032" lon="4.84283">
        <ele>283.93704</ele>
        <time>2021-03-18T12:00:57Z</time>
      </trkpt>
      <trkpt lat="45.56032" lon="4.84283">
        <ele>283.93704</ele>
        <time>2021-03-18T12:00:57Z</time>
      </trkpt>
    </trkseg>
  </trk>
</gpx>